GFSSW_850_thetae_000.txt.gz
Theta_e
311 311 310 310 310 310 310 311 311 311 311 312 311 311 311 311 312 312 313 312 316 317 316 316 316 316 316 318 319 318 311 310 313 313 315 315 314 316 316 315 314 316 317 317 317
310 310 310 310 310 310 310 310 310 311 311 312 312 312 312 312 312 314 314 313 313 316 317 316 317 317 316 317 319 316 309 310 310 311 314 316 315 317 315 316 314 316 317 317 317
310 310 310 310 310 310 310 310 311 311 311 311 312 312 312 312 313 313 315 314 313 315 317 316 316 318 317 317 318 315 314 311 314 315 317 315 314 317 313 312 316 316 317 317 316
312 312 312 312 312 312 311 311 311 311 311 311 312 312 313 312 310 315 315 314 313 314 315 315 316 317 315 315 317 316 315 315 315 317 317 315 317 314 314 318 317 317 317 316 316
311 310 311 311 311 311 312 312 312 312 312 312 312 313 313 312 313 314 314 313 313 314 315 315 316 316 315 314 314 314 314 317 318 317 317 318 315 314 314 317 317 317 316 316 316
312 312 312 312 312 311 311 311 311 311 312 312 313 313 313 310 314 314 314 314 314 314 315 315 314 315 315 314 314 314 314 314 314 315 315 314 315 314 315 316 316 316 316 316 316
314 314 314 314 314 314 314 314 314 313 312 311 311 310 310 314 315 315 315 315 314 314 314 315 314 314 314 312 313 314 312 309 309 312 310 313 312 310 315 315 315 315 315 317 317
316 315 314 313 312 312 313 314 315 315 315 315 313 310 308 312 313 314 315 314 313 313 313 313 313 313 313 313 311 311 309 310 310 309 311 312 310 311 314 314 314 315 316 316 316
320 320 317 314 313 311 311 310 311 313 313 313 312 309 309 312 310 311 312 313 313 312 312 312 312 312 312 309 308 307 309 307 308 309 309 308 309 309 314 313 313 315 315 315 315
323 322 321 320 318 316 315 312 310 310 311 310 309 309 312 313 311 312 313 313 312 312 312 312 312 308 305 307 310 308 307 306 307 309 307 309 309 309 313 312 310 311 313 313 314
325 325 324 323 321 320 318 316 311 310 311 313 313 312 310 311 311 313 314 313 312 312 309 310 308 309 310 307 309 307 307 306 306 307 308 309 310 309 309 310 310 311 311 312 312
324 323 324 324 324 323 319 317 312 309 309 312 311 311 312 311 313 314 312 313 312 310 307 307 308 309 309 308 308 308 308 309 309 308 307 308 309 309 309 310 310 311 311 311 312
323 323 324 324 324 323 321 317 313 306 308 313 312 309 310 310 310 311 312 312 310 308 307 310 310 309 308 308 309 307 308 309 309 308 306 305 309 307 307 308 309 311 312 311 312
324 323 324 324 323 323 322 319 313 307 310 310 308 309 309 309 308 308 311 311 309 310 307 308 308 309 308 308 308 310 307 308 308 308 310 307 311 308 308 308 307 309 310 314 315
322 321 322 322 324 324 322 320 315 311 322 313 309 310 311 308 307 307 310 311 309 309 308 309 309 309 309 309 307 309 308 307 307 307 307 308 307 311 307 309 308 307 312 311 314
320 321 321 323 323 322 321 320 314 314 323 315 308 308 309 309 308 308 309 309 308 307 306 307 307 307 308 306 306 307 308 306 304 306 309 308 308 313 308 309 310 309 313 313 314
317 318 320 322 322 321 321 319 322 323 316 316 310 308 308 307 309 306 307 308 308 312 310 308 306 306 307 308 306 308 307 308 308 307 311 306 307 312 310 310 308 307 311 312 313
313 314 316 318 320 320 320 318 322 318 317 314 314 311 314 310 311 307 306 307 305 307 306 311 318 307 305 307 308 306 308 309 312 309 314 303 309 315 311 309 311 309 310 310 311
309 309 312 313 317 320 318 321 319 316 316 317 318 320 317 312 313 308 306 307 309 304 314 308 310 306 304 306 307 306 308 308 310 311 310 312 310 310 311 308 307 308 309 310 311
306 307 311 309 316 318 316 319 315 315 317 318 321 319 319 314 312 310 309 308 308 304 306 310 312 308 307 306 305 306 306 309 307 312 314 311 311 313 312 312 309 306 306 311 311
300 307 309 310 315 314 316 316 317 317 317 317 319 320 318 318 314 317 318 313 306 309 304 307 310 312 311 307 310 310 307 306 307 310 315 316 314 310 312 311 305 305 309 305 302
301 308 309 315 313 313 315 314 315 315 315 314 316 317 317 317 317 316 317 315 313 309 309 307 315 316 314 309 307 306 311 309 312 312 309 311 313 309 308 308 304 299 298 300 300
305 307 308 314 311 313 312 313 314 314 314 315 315 314 314 316 316 316 315 313 314 312 314 313 314 315 313 309 308 312 312 312 312 311 315 316 314 310 305 297 297 295 293 293 293
301 302 306 308 310 310 310 310 312 312 313 313 313 313 313 313 313 314 313 311 308 309 309 309 311 314 314 311 311 313 312 311 312 315 313 313 312 311 297 295 293 294 291 291 292
298 300 302 301 305 307 308 308 308 308 309 310 311 311 311 312 312 312 311 310 307 306 306 308 311 311 310 311 310 309 308 307 308 309 310 309 310 302 292 292 292 293 292 291 291
296 296 298 298 298 301 304 305 306 306 306 307 307 307 307 308 308 309 306 304 305 304 304 304 306 304 303 302 302 304 304 304 304 304 305 306 303 292 292 291 291 292 291 291 291
293 295 295 296 296 298 298 300 301 300 301 299 298 302 303 302 299 298 297 298 299 299 300 301 303 302 302 300 300 300 300 301 302 301 299 300 293 291 291 291 290 290 292 289 290

GFSSW_850_thetae_003.txt.gz
Theta_e
311 310 310 310 310 309 310 310 310 310 311 311 311 312 312 312 312 313 313 313 312 315 316 316 316 316 316 317 318 317 312 312 313 312 313 315 313 315 315 316 315 316 317 317 317
310 310 310 310 310 310 310 310 310 310 310 311 311 312 312 312 313 313 314 313 311 314 316 316 316 317 316 317 318 316 311 312 310 309 313 315 315 316 315 316 315 315 317 317 316
311 311 311 311 311 311 311 311 311 311 311 311 311 311 312 312 313 313 315 314 313 313 316 316 316 317 316 317 317 314 315 311 312 313 314 315 314 316 314 313 317 317 317 317 316
312 312 312 312 311 311 312 312 312 312 312 312 312 312 312 313 310 314 314 313 313 313 315 315 316 317 315 315 316 315 315 314 315 316 316 315 316 314 315 316 316 316 316 316 316
311 311 311 311 311 311 311 311 311 311 312 312 313 312 312 312 313 313 314 313 313 313 314 315 315 316 314 313 314 314 314 316 316 316 316 316 315 314 315 315 315 315 315 315 315
314 314 314 314 314 314 314 314 313 313 312 311 311 311 310 309 314 314 314 314 314 314 314 314 314 315 314 314 313 313 313 313 313 314 314 314 314 313 314 314 314 314 314 315 314
315 315 315 315 315 314 314 314 315 316 316 315 314 312 310 312 314 314 314 314 314 314 314 314 314 314 313 311 313 313 312 309 308 311 310 312 311 310 314 314 314 314 314 315 315
318 318 318 317 316 315 313 313 313 314 314 314 314 313 312 313 312 312 312 312 313 313 314 314 313 313 313 312 310 310 309 310 310 308 310 312 311 310 313 312 312 314 314 314 314
321 321 321 320 320 318 317 316 314 312 311 310 311 311 312 315 313 311 309 310 312 312 312 312 312 311 311 308 308 306 309 307 307 308 309 309 310 309 312 311 311 311 312 313 314
324 324 324 324 323 322 322 319 318 313 310 310 309 309 312 314 313 311 311 311 312 312 311 311 311 307 304 307 310 309 307 306 307 309 306 308 308 309 310 310 310 310 310 311 311
323 323 324 324 324 324 323 320 317 312 311 311 313 312 313 311 312 312 313 312 312 312 309 309 307 309 309 307 307 307 306 305 305 306 307 309 309 309 309 309 309 310 310 310 312
324 323 322 323 324 324 323 320 315 312 309 318 318 313 313 311 312 313 312 312 311 310 306 307 309 309 307 306 306 306 307 308 308 307 305 307 309 309 309 310 310 310 310 311 313
324 323 323 323 323 323 323 321 320 309 308 315 314 311 311 310 310 310 311 312 310 308 306 309 310 308 308 308 308 306 307 309 308 306 305 304 307 307 309 307 310 311 310 312 311
323 324 324 323 321 323 323 322 320 315 312 312 309 309 308 308 307 308 310 311 309 310 306 307 307 308 307 309 307 309 307 307 307 307 309 306 310 307 309 308 308 309 310 311 311
322 322 321 320 321 322 322 322 320 313 326 314 308 309 311 308 307 307 309 310 309 308 307 309 307 308 308 309 306 309 307 307 307 306 306 307 306 308 307 308 308 307 310 311 311
319 319 319 320 320 322 322 321 319 318 325 317 307 308 309 309 307 308 309 308 307 307 306 306 306 306 307 306 306 305 306 304 304 305 309 308 308 310 308 310 308 308 312 311 311
314 314 316 318 321 322 321 321 321 323 318 318 311 307 307 307 308 306 308 307 307 311 310 307 306 306 307 308 305 307 307 309 309 307 310 305 306 310 309 310 307 308 307 309 309
311 312 314 318 319 321 320 318 322 319 318 314 314 313 315 311 310 306 306 307 305 306 307 313 319 307 304 308 308 305 307 312 313 313 315 303 312 316 308 310 309 306 306 303 302
309 309 309 310 315 320 319 319 318 315 316 318 318 320 317 313 312 309 306 307 308 305 313 310 309 306 303 305 307 306 307 308 310 309 312 313 310 311 312 306 304 301 298 297 297
307 305 306 307 310 318 317 317 316 314 317 317 320 318 319 316 315 313 312 310 308 305 308 311 316 308 307 305 305 306 306 309 306 310 313 311 311 312 311 305 299 298 296 294 294
303 302 306 307 314 315 314 315 315 316 317 317 318 319 318 318 315 315 317 314 309 309 305 307 310 311 310 307 307 306 306 306 306 309 312 314 314 310 302 299 297 294 292 291 292
299 304 307 313 313 313 313 313 313 314 315 315 316 316 316 315 316 316 316 314 313 307 307 307 311 312 312 309 306 307 310 311 315 314 310 313 314 297 295 295 293 290 290 291 293
303 305 310 312 311 312 312 312 313 313 313 314 314 313 313 314 314 314 314 312 313 312 313 312 311 313 310 308 308 310 310 309 311 311 313 314 314 297 293 293 293 293 291 290 290
300 300 305 310 310 310 309 309 310 310 312 313 312 312 312 312 311 313 313 311 308 308 308 308 311 313 312 308 308 310 309 309 311 312 311 312 312 308 295 292 292 293 292 291 291
298 298 302 304 303 305 306 306 306 307 308 308 308 310 310 311 310 310 310 308 306 306 305 307 311 310 309 309 307 305 304 303 303 305 306 306 305 305 291 291 291 291 292 291 289
296 295 298 298 300 301 303 303 304 305 305 305 305 304 304 306 307 308 308 307 306 303 303 303 307 302 300 302 301 302 301 301 301 301 302 303 304 291 291 291 291 289 292 289 288
293 295 295 294 295 296 296 300 299 300 299 296 297 299 301 299 297 297 297 297 298 300 301 302 303 301 304 300 299 300 298 299 299 299 298 299 293 289 290 290 290 289 291 288 288

GFSSW_850_thetae_006.txt.gz
Theta_e
311 310 310 310 310 310 310 310 310 310 310 311 311 311 312 312 312 313 313 313 313 312 315 316 316 316 316 317 318 318 320 320 319 318 318 317 318 314 316 316 315 317 317 318 317
310 310 310 311 311 311 311 311 311 311 311 311 311 311 311 312 312 313 314 313 312 312 315 316 315 316 318 318 318 320 320 319 318 317 317 317 317 317 317 318 318 317 316 316 317
311 312 312 312 312 312 312 312 312 312 312 311 311 311 312 312 312 313 314 314 313 313 315 315 315 316 318 318 319 319 320 320 317 315 314 316 317 316 317 318 318 318 317 316 316
312 312 312 312 312 311 312 312 312 312 312 312 312 312 312 312 314 313 315 313 313 313 314 315 315 317 319 320 318 319 319 318 318 316 316 317 317 317 316 316 316 316 316 315 315
311 311 312 312 313 313 313 313 313 313 312 312 311 311 311 311 313 313 313 313 313 313 314 315 316 317 318 318 316 318 318 318 317 316 316 317 317 317 316 316 316 316 314 314 314
315 315 316 316 316 316 316 317 317 317 317 316 315 313 311 310 313 314 314 313 313 313 314 314 315 315 316 316 317 316 316 316 315 315 315 315 316 315 315 315 314 314 314 314 314
315 316 316 316 316 315 315 315 316 315 315 316 316 315 314 314 314 313 313 314 313 313 314 314 314 314 314 315 313 313 315 315 315 314 314 313 315 315 315 314 313 314 314 314 314
318 319 319 319 319 318 318 317 316 316 314 313 313 313 313 316 316 314 311 311 312 313 314 314 314 314 313 312 313 314 313 315 316 312 312 314 315 316 314 312 313 313 313 313 314
321 322 322 322 322 321 322 321 320 319 317 312 310 311 312 313 313 313 310 309 311 312 313 313 313 313 311 314 315 314 315 315 315 313 312 314 314 314 313 312 312 313 313 313 313
324 323 323 323 323 324 323 323 323 318 313 310 309 310 311 312 312 312 311 310 311 311 311 311 312 314 312 314 317 317 316 315 314 315 313 313 313 313 312 312 312 312 313 313 313
325 323 323 323 323 323 323 323 321 317 316 316 315 313 314 313 311 312 312 311 311 311 314 311 314 316 317 315 316 313 313 314 314 314 313 313 313 313 313 313 313 313 313 313 313
324 324 323 323 322 322 323 323 320 318 314 322 322 320 318 312 311 311 311 312 312 314 310 312 315 316 312 312 312 313 313 314 315 313 310 313 313 313 313 313 313 313 312 312 311
324 324 323 323 322 322 323 322 322 318 312 317 316 313 313 312 311 311 311 311 312 312 312 316 316 313 311 313 313 314 313 315 315 313 312 311 316 314 315 311 312 311 311 310 309
322 322 322 323 321 322 322 322 321 315 320 319 312 309 308 308 308 308 310 311 311 313 311 313 310 311 311 312 313 314 314 312 312 312 317 311 318 317 316 314 313 312 311 309 308
319 321 322 321 320 320 322 322 321 314 326 317 309 309 310 308 307 308 309 310 312 311 311 314 311 310 312 313 311 314 309 309 309 312 311 314 313 318 312 313 313 311 308 308 305
319 320 320 319 319 319 322 321 319 321 326 320 308 310 310 308 307 308 308 309 308 310 309 312 306 309 312 309 309 307 310 309 310 312 316 315 314 316 315 313 312 308 305 303 302
315 315 314 314 317 321 321 321 321 323 319 321 313 309 308 308 309 308 311 311 314 316 317 314 310 309 307 311 308 309 312 319 318 319 319 312 312 314 314 309 308 306 303 301 301
313 312 314 316 314 318 320 321 321 319 321 315 315 315 320 315 313 309 311 317 310 310 314 318 320 311 308 313 318 312 314 318 319 321 320 308 315 316 311 306 303 302 300 299 299
309 309 309 310 311 318 319 320 317 317 318 319 319 320 320 316 315 313 312 315 312 310 318 321 320 307 306 307 310 311 311 312 315 315 315 315 315 315 313 306 303 300 299 297 297
308 308 307 308 309 315 317 316 315 315 317 318 320 319 320 319 317 317 317 313 313 309 309 315 319 316 311 306 307 309 310 313 312 315 318 314 314 315 313 308 302 299 297 296 295
304 303 305 305 308 314 314 314 313 314 316 318 319 319 318 318 317 318 318 316 313 314 308 313 316 316 311 313 313 311 310 309 309 312 316 317 315 310 309 303 300 297 295 295 295
299 305 305 310 312 312 313 312 312 313 313 315 316 317 317 317 316 315 315 315 314 311 314 312 312 315 315 313 309 311 312 313 316 315 314 314 314 304 302 299 296 293 293 293 293
300 303 310 310 311 312 312 312 312 312 313 313 313 314 314 314 314 313 313 312 312 313 314 313 315 316 315 312 310 312 312 312 313 314 316 317 315 301 299 298 296 297 294 293 292
301 304 307 310 310 310 310 310 312 310 311 311 312 312 313 313 313 312 311 311 309 309 308 309 312 314 314 313 311 312 311 311 311 313 313 313 312 310 305 301 298 295 293 293 291
298 300 302 308 308 308 307 308 308 308 307 308 308 310 309 309 308 309 309 309 308 306 306 308 312 311 311 311 311 311 311 310 310 309 309 309 309 308 308 300 295 292 291 293 289
296 298 299 300 301 304 306 306 306 305 306 305 305 305 305 305 305 306 306 306 305 305 306 305 307 306 306 306 306 307 307 307 305 304 304 303 304 303 294 292 292 291 290 292 289
295 295 296 296 298 301 302 302 302 301 299 297 299 301 302 302 299 299 299 299 301 301 302 303 304 305 305 305 303 303 302 302 302 303 302 302 300 294 292 292 292 291 290 291 289

GFSSW_850_thetae_009.txt.gz
Theta_e
310 310 310 310 310 310 310 310 310 310 310 310 311 311 311 312 312 312 313 313 313 312 314 316 316 317 317 320 319 319 321 321 321 320 319 319 319 318 318 317 318 318 318 318 318
310 310 311 311 312 312 312 312 312 312 311 311 311 311 311 311 312 312 313 313 313 312 314 316 318 318 320 321 321 320 322 321 321 319 319 318 318 318 318 318 318 318 319 319 318
311 312 312 312 313 312 312 312 312 312 312 312 312 312 312 312 313 314 314 313 313 313 314 317 317 318 319 320 321 321 321 320 320 319 318 318 317 317 318 318 317 317 317 317 317
312 312 312 312 312 312 312 313 313 313 312 312 312 312 312 312 316 313 316 313 313 313 314 315 317 319 319 320 319 321 319 319 319 318 318 318 317 318 317 317 317 317 317 317 317
312 312 312 313 314 316 317 317 318 317 317 317 315 313 312 313 314 314 313 313 313 313 314 317 317 318 319 318 319 320 319 318 318 318 318 318 317 318 317 317 317 317 316 316 316
313 315 316 316 317 316 317 317 317 317 317 318 318 316 314 314 314 313 313 313 313 313 315 316 317 317 317 317 318 318 317 317 317 317 317 317 317 317 316 316 316 316 316 316 316
316 316 316 316 317 317 317 317 317 316 316 316 315 314 314 316 317 314 313 313 313 313 316 316 316 316 317 317 317 315 316 317 317 317 317 315 316 317 317 316 315 315 315 315 315
317 317 318 319 320 320 320 320 320 319 318 317 314 311 314 315 316 316 314 311 312 313 314 315 314 315 315 315 315 316 316 318 318 316 315 315 317 318 316 315 315 315 315 315 315
320 320 321 321 322 322 323 323 323 322 321 319 313 310 315 312 313 313 312 311 311 312 314 314 314 315 315 316 317 318 318 319 318 317 316 315 316 316 315 315 315 315 315 315 315
323 323 323 323 323 323 323 323 323 321 317 313 310 311 311 312 312 312 311 309 311 312 312 313 314 315 316 317 319 321 320 319 319 319 316 317 317 316 315 316 316 316 316 315 315
325 325 324 323 322 322 322 323 322 321 318 316 319 314 318 314 313 312 312 310 312 313 315 314 315 317 319 319 318 318 318 318 318 318 317 317 316 316 316 316 317 317 316 314 312
323 323 323 323 322 322 322 321 322 320 318 322 323 321 317 316 313 312 311 312 313 315 315 314 315 317 318 315 316 316 317 317 318 317 314 316 316 316 317 316 316 314 314 312 311
323 323 323 323 323 322 321 322 322 320 316 320 317 314 314 315 315 315 312 313 314 316 315 317 320 317 316 316 316 316 316 317 317 316 316 316 317 320 318 317 314 312 312 310 307
323 323 322 321 322 321 322 321 322 318 320 321 315 311 309 310 312 309 311 312 314 317 318 317 315 314 314 315 315 316 317 316 315 315 319 315 319 318 319 317 314 312 310 308 306
320 320 320 321 322 322 320 321 321 315 324 319 311 310 310 310 309 309 309 311 314 315 314 317 314 313 315 315 315 316 312 313 313 315 316 317 317 318 317 317 313 311 308 306 305
320 320 320 320 320 319 320 321 319 322 325 322 312 313 312 311 310 309 310 309 310 313 313 314 309 312 314 313 312 310 312 314 314 316 319 319 319 317 317 315 311 308 306 305 304
318 317 316 316 320 319 321 320 323 325 321 322 316 311 312 312 311 311 313 312 316 318 319 317 315 312 310 313 311 311 314 320 323 323 322 318 316 317 316 312 312 309 305 304 303
315 314 314 314 316 316 316 319 323 320 320 319 318 319 321 318 315 313 315 318 317 314 318 319 319 316 311 314 317 317 317 322 324 324 323 314 319 318 312 308 306 304 303 302 301
312 311 311 314 314 316 317 320 320 318 317 319 318 318 319 319 317 318 319 318 317 316 318 319 319 313 311 312 312 315 314 313 315 316 319 317 318 317 310 308 305 303 301 300 299
311 307 308 309 311 314 316 317 317 315 316 317 318 318 319 319 319 318 319 317 317 312 312 317 318 317 312 309 310 313 316 319 316 319 320 316 315 315 315 312 305 303 301 299 299
310 310 312 309 309 314 314 315 315 314 316 318 317 318 318 318 318 319 318 317 316 315 311 314 316 316 315 315 314 312 312 312 312 313 316 316 315 313 312 310 306 302 299 298 297
303 307 305 307 313 312 315 312 312 312 314 314 314 316 317 315 315 316 316 315 314 314 315 314 313 316 314 313 314 313 313 314 315 315 314 315 316 314 307 306 302 299 297 296 295
305 306 308 312 312 313 312 311 311 312 313 313 315 315 314 314 314 313 314 313 312 313 314 313 313 315 314 311 312 314 313 313 314 314 315 316 315 310 304 302 300 300 297 296 294
304 305 308 310 310 310 310 311 311 311 311 311 312 312 312 313 312 311 310 311 311 311 309 310 311 312 313 310 311 313 311 312 313 314 315 314 312 312 309 306 305 301 298 297 295
301 303 306 308 310 310 309 308 309 309 309 309 309 310 309 309 308 309 309 309 309 308 308 310 310 309 309 309 309 309 308 308 309 310 310 309 310 309 308 307 304 303 296 294 294
300 301 301 305 306 308 309 308 308 307 307 306 307 306 308 308 307 306 306 306 305 304 306 305 306 306 305 305 305 305 305 306 306 307 307 307 306 305 302 296 297 296 293 292 294
295 296 300 301 303 306 308 307 305 305 303 302 304 304 304 304 301 301 301 302 303 303 303 303 304 303 302 302 302 303 303 303 304 304 303 303 302 296 297 295 295 294 293 291 292

GFSSW_850_thetae_012.txt.gz
Theta_e
310 310 310 310 310 311 311 311 311 311 311 311 311 311 311 311 312 312 313 314 313 313 313 316 316 317 318 321 319 320 319 320 321 321 319 319 318 319 318 318 318 318 318 318 318
310 310 311 311 312 312 312 312 312 312 312 312 312 312 312 312 313 313 314 313 312 312 312 315 319 318 320 321 321 320 321 322 320 319 318 318 318 317 317 317 318 318 318 318 319
311 312 312 312 312 312 312 312 312 312 312 312 312 312 312 313 314 316 313 313 313 313 314 317 318 319 319 320 321 321 320 319 318 319 319 318 318 317 317 316 318 318 318 317 317
312 312 312 312 312 313 314 314 315 315 316 315 314 313 312 312 317 313 314 314 313 313 313 315 317 318 319 320 320 320 320 319 319 318 318 318 318 317 317 317 317 317 317 317 317
312 312 312 313 315 316 317 318 318 318 319 319 318 317 316 314 315 315 314 313 313 313 313 316 317 318 318 318 318 319 319 319 319 318 318 318 318 317 317 317 317 317 316 316 316
312 313 315 316 317 318 318 317 317 317 317 317 316 315 315 315 317 314 313 313 313 313 314 316 317 317 317 317 317 318 317 317 316 316 316 316 316 317 316 316 317 317 316 316 315
315 316 317 317 317 317 317 318 318 318 318 317 317 314 313 316 318 318 313 312 313 313 315 316 317 317 316 317 315 316 315 315 316 317 316 316 314 314 317 316 316 316 316 315 315
316 317 317 318 318 319 319 320 320 320 320 321 319 314 313 315 316 316 315 313 312 312 314 317 316 315 316 316 316 315 315 316 318 316 314 314 314 315 316 316 315 315 315 315 315
318 318 319 319 320 321 321 321 322 322 322 321 316 312 315 313 312 313 312 312 312 312 313 314 314 315 315 315 315 315 316 317 318 317 314 314 314 315 316 316 315 316 316 316 311
321 321 322 322 323 322 322 322 323 322 320 315 311 312 312 312 312 312 312 311 312 312 313 313 314 314 314 314 315 318 318 317 317 317 315 313 313 315 316 316 316 317 316 311 309
323 324 324 324 323 322 322 322 323 323 320 318 320 313 318 317 314 314 312 311 312 313 314 314 313 314 314 315 315 316 316 316 316 315 316 315 314 314 316 316 316 315 312 310 308
324 324 322 322 323 322 321 321 322 320 319 321 321 321 321 319 315 314 312 312 313 314 314 314 314 315 316 316 316 315 315 315 315 316 315 314 314 314 315 315 316 313 310 308 308
323 323 323 323 322 322 321 321 321 321 315 320 320 319 317 316 316 315 312 312 313 315 315 315 318 317 316 316 316 316 315 315 315 315 314 313 314 314 315 316 312 310 308 307 306
323 323 323 322 321 322 322 321 321 319 319 320 316 311 311 313 313 311 312 313 315 316 316 316 316 315 315 315 315 316 315 315 315 314 315 315 316 316 315 311 310 308 307 306 304
326 323 321 321 324 322 322 320 319 316 325 318 311 311 310 311 310 310 309 311 313 315 314 318 313 313 314 315 315 315 312 313 313 313 314 315 314 315 314 311 310 307 306 305 303
325 320 320 321 322 321 319 320 318 321 326 318 312 313 312 310 310 310 311 310 311 312 313 313 310 312 314 313 313 310 311 312 311 313 316 316 316 316 314 313 308 306 305 304 303
320 320 319 319 321 319 320 320 323 324 321 320 315 312 313 312 312 311 312 311 313 316 315 314 313 312 311 312 311 310 312 316 317 316 317 314 315 315 312 310 308 305 304 303 303
320 318 317 315 318 320 319 317 323 322 322 319 319 319 322 317 314 313 315 317 316 316 315 319 318 314 310 313 315 315 316 319 321 316 316 314 315 316 309 307 306 304 303 302 301
318 315 314 314 317 316 318 321 322 321 319 319 319 319 319 319 318 317 317 318 317 315 318 317 317 310 312 312 312 313 314 313 313 309 313 314 315 313 307 305 303 303 301 300 299
315 313 312 311 316 317 318 319 319 317 316 316 319 317 317 317 318 318 318 316 316 312 311 316 318 316 310 310 310 311 314 316 314 318 316 315 314 314 310 306 303 301 301 300 299
312 312 311 311 311 314 315 316 316 315 315 316 316 317 316 317 318 318 318 316 315 312 312 313 316 315 313 314 314 311 312 315 314 313 312 313 311 310 309 307 303 302 300 299 297
310 308 310 308 311 312 313 313 313 313 313 315 315 315 317 317 317 316 316 315 314 314 314 313 314 313 313 311 311 311 313 313 314 314 312 313 314 311 306 304 304 300 298 297 296
305 307 308 308 313 313 312 312 313 312 312 313 313 313 312 313 315 313 313 313 312 313 314 313 311 311 308 309 310 313 312 311 311 309 312 313 310 308 302 301 301 301 298 297 297
305 307 308 310 310 311 312 312 311 311 311 311 312 312 313 313 312 313 311 311 311 311 309 310 311 309 308 307 307 308 308 308 310 311 310 309 309 309 308 308 307 305 302 299 297
305 304 307 308 309 309 310 310 310 311 311 310 311 311 312 312 310 310 309 308 310 308 309 309 305 307 307 308 307 307 306 306 306 306 307 306 305 304 303 301 298 300 301 295 296
302 302 303 304 307 309 309 309 309 308 308 309 309 307 308 308 308 307 306 306 306 305 305 305 300 303 299 303 303 303 302 302 302 302 302 302 303 302 298 297 296 296 295 293 292
298 299 302 303 304 307 308 308 308 307 307 304 305 305 305 303 300 300 301 301 302 303 302 300 299 293 299 300 299 295 299 299 300 300 301 301 298 293 294 295 293 293 293 293 291

GFSSW_850_thetae_015.txt.gz
Theta_e
310 310 310 310 310 311 311 311 311 311 311 311 311 311 311 312 312 312 313 313 313 312 312 315 316 317 318 320 319 319 313 315 318 317 316 318 317 318 317 317 317 317 317 318 317
310 310 310 311 311 312 312 312 312 312 312 312 312 312 312 313 313 314 315 313 312 312 312 314 317 317 319 321 320 318 314 317 316 316 316 317 316 316 316 316 316 316 317 317 317
310 311 311 312 312 312 312 312 313 313 313 313 313 313 312 313 313 316 313 313 313 313 313 317 318 318 319 320 320 319 315 316 318 318 318 317 317 317 315 314 316 316 317 317 317
311 312 312 312 312 313 314 315 316 317 318 318 318 317 316 314 313 313 313 314 313 312 313 315 317 318 317 317 319 318 319 319 318 318 317 317 318 317 317 317 316 316 317 317 316
312 312 312 312 314 316 317 318 319 319 319 318 318 318 318 316 315 315 314 313 313 313 313 314 317 317 316 316 316 316 317 319 319 318 318 316 316 316 316 316 316 316 316 316 315
312 312 313 315 317 318 318 318 317 317 318 317 317 316 315 315 318 316 314 313 312 313 313 316 317 317 317 316 315 315 315 315 315 316 315 315 314 316 316 316 316 315 315 315 314
312 314 316 317 317 318 318 318 318 319 319 319 319 317 315 316 318 318 317 312 312 313 314 315 316 317 316 314 315 315 314 312 314 314 314 315 313 313 316 316 317 316 316 312 313
315 316 317 317 318 319 319 319 319 320 320 320 320 318 315 315 316 316 315 315 313 312 313 316 316 316 316 315 315 314 313 313 314 314 314 313 313 313 317 316 316 315 314 312 310
316 317 318 319 320 321 321 321 321 321 322 320 317 314 315 313 313 313 313 313 313 312 313 314 316 314 315 312 312 312 313 313 314 314 313 312 311 313 317 316 315 314 311 309 308
317 319 319 320 322 322 322 321 322 322 321 316 312 314 313 313 312 312 312 312 312 312 312 313 314 311 309 311 312 314 313 314 314 314 313 312 310 310 316 315 313 312 308 307 307
318 320 321 322 323 322 322 322 322 322 320 319 318 315 315 315 314 313 312 311 311 313 311 313 310 310 310 310 312 313 314 314 313 313 314 313 312 312 314 315 312 308 307 306 306
319 320 322 322 322 323 322 321 322 321 320 320 320 321 321 321 317 314 312 311 313 311 312 311 311 311 311 312 313 313 313 312 312 313 313 312 312 311 312 313 312 307 306 306 305
322 323 323 323 322 322 322 321 321 321 317 319 319 319 319 318 316 314 313 312 311 312 311 311 313 313 313 313 314 314 313 313 313 312 312 312 311 312 312 307 307 306 306 306 305
322 323 323 323 322 322 321 320 320 320 315 317 315 312 313 315 312 312 311 312 313 312 311 311 312 313 313 314 313 314 312 313 313 312 313 312 314 312 311 308 306 305 305 304 304
323 322 323 322 322 323 322 320 320 315 321 315 311 311 310 312 311 310 311 312 312 313 312 315 312 312 312 313 311 313 311 312 312 312 312 312 312 311 309 309 306 304 303 303 303
322 324 324 321 320 322 322 319 318 318 323 315 310 312 310 310 309 309 310 310 310 311 311 311 310 311 311 311 312 309 310 310 310 311 313 312 313 312 309 309 305 304 303 303 302
324 323 324 320 320 321 320 320 322 323 320 316 312 310 311 310 309 310 309 309 311 314 313 313 311 310 311 311 309 310 310 315 314 312 315 312 313 313 309 307 305 303 303 302 302
323 323 320 319 320 320 319 317 322 322 321 317 317 316 319 310 311 310 311 311 309 313 312 316 317 311 309 311 313 310 313 317 319 315 312 311 314 314 304 303 303 303 302 302 301
322 320 319 318 319 320 318 318 320 321 318 318 317 318 317 317 318 312 311 314 316 313 317 318 317 310 310 311 312 313 314 312 313 304 311 313 312 307 304 302 302 301 301 300 300
320 317 316 315 317 318 316 320 317 317 315 315 317 316 316 315 316 314 316 314 313 312 312 315 316 314 310 311 311 312 312 315 312 312 311 312 312 312 307 304 301 299 299 299 299
318 313 312 313 316 317 316 317 316 316 315 315 315 315 314 315 315 316 317 315 313 310 311 313 315 314 311 312 312 311 310 314 313 311 310 309 310 308 308 304 301 300 299 298 297
314 312 312 311 310 311 314 313 314 313 314 314 314 315 315 314 316 315 316 314 313 312 313 312 312 309 312 310 309 310 311 311 314 311 308 313 312 303 301 301 301 299 300 300 300
311 309 309 311 311 312 312 313 313 312 313 313 313 312 311 313 316 313 313 311 313 312 313 312 310 306 306 306 310 312 310 309 309 310 312 313 310 302 301 300 302 302 302 302 299
307 309 308 311 310 310 313 312 312 312 311 311 311 311 312 312 311 312 310 310 311 309 311 311 311 306 308 304 306 307 306 306 307 309 305 307 307 305 304 303 301 303 304 302 299
305 305 307 309 308 309 309 310 311 311 310 310 310 310 311 312 310 311 310 309 309 309 308 308 305 307 307 306 305 306 305 305 305 305 305 304 303 303 302 298 297 298 301 301 297
303 303 305 305 307 309 309 309 309 308 309 309 310 309 310 311 310 305 305 305 305 304 305 305 301 301 298 302 302 302 301 301 301 301 301 301 301 299 297 296 296 296 296 294 294
301 300 303 303 303 307 308 308 307 307 305 305 307 307 306 301 301 301 301 301 302 301 301 301 297 293 298 300 298 294 298 297 297 297 298 298 298 292 294 294 293 293 293 292 291

GFSSW_850_thetae_021.txt.gz
Theta_e
311 310 310 310 310 310 311 311 311 312 312 312 312 312 312 313 313 313 313 313 313 312 312 314 316 316 317 318 317 317 309 311 315 315 315 315 314 316 316 315 315 315 316 316 316
310 310 310 310 310 311 312 312 312 312 312 313 313 313 313 314 314 314 315 314 313 312 312 314 315 316 317 319 319 313 308 311 313 314 315 316 315 316 315 315 315 315 315 315 315
309 309 310 311 311 312 312 312 313 313 314 315 316 317 317 317 317 314 312 312 312 312 313 314 316 317 317 319 318 315 311 312 316 316 316 316 315 315 314 313 315 314 315 314 315
309 310 310 311 312 312 312 313 314 316 318 320 320 320 320 319 315 313 312 312 312 312 313 315 317 317 315 315 317 317 316 316 317 316 316 315 316 315 314 316 315 313 314 314 314
309 310 311 312 312 312 313 315 318 319 320 319 318 318 317 317 319 317 312 313 312 312 312 313 316 316 315 315 314 315 315 316 317 317 315 315 315 314 315 315 314 313 314 314 313
309 310 312 312 312 313 316 318 319 319 318 318 318 318 317 314 318 317 315 314 313 312 312 313 315 316 315 314 313 314 314 314 315 315 314 313 312 314 315 314 313 313 314 313 311
310 311 312 312 313 316 318 318 318 317 318 318 319 319 318 317 317 317 317 316 313 312 312 313 316 316 315 313 314 314 312 309 311 312 311 312 313 311 316 313 312 313 312 311 311
311 311 311 313 315 317 318 317 318 318 318 319 319 319 317 316 316 315 315 315 313 312 313 314 315 315 315 314 312 312 310 310 312 312 313 313 313 312 315 313 311 310 309 309 309
311 312 312 314 316 317 318 318 319 319 319 320 319 317 316 314 314 314 314 314 314 313 313 314 315 315 313 309 308 308 309 311 311 312 312 311 312 312 312 313 309 307 307 307 306
312 312 314 316 317 318 319 320 320 320 320 320 317 316 315 314 313 312 312 312 312 312 312 313 314 308 307 307 312 309 310 310 311 313 311 312 309 309 314 311 309 306 305 304 304
316 315 316 317 318 320 321 321 320 320 321 319 316 316 314 313 312 311 311 312 312 311 309 311 308 309 308 308 309 310 310 312 310 310 312 310 309 309 310 309 306 305 303 302 302
315 316 317 317 319 322 322 321 320 319 319 320 320 317 315 316 314 311 311 312 311 309 309 309 308 308 308 308 309 310 311 309 309 310 309 310 310 309 308 307 306 304 302 302 301
316 317 318 318 320 322 321 321 321 320 319 319 319 319 319 319 317 316 313 312 310 308 308 309 311 309 309 309 309 310 309 311 312 311 310 309 309 309 304 304 304 304 302 301 301
317 318 319 320 321 322 321 321 321 320 315 316 315 315 315 316 314 314 312 312 310 310 308 309 310 312 310 311 309 312 309 310 311 311 313 309 312 309 307 304 302 302 301 300 300
318 319 321 321 321 322 321 321 320 317 321 314 312 312 313 315 311 309 310 311 310 310 309 312 312 310 311 311 311 312 310 310 310 309 309 309 309 308 306 306 302 300 300 300 300
319 320 320 321 322 321 321 320 318 317 322 313 309 309 308 308 308 308 310 310 310 310 309 310 310 309 310 309 309 308 309 308 307 307 310 309 310 310 308 308 302 300 300 300 300
319 319 320 320 321 322 321 319 320 322 317 314 310 308 308 307 308 308 307 308 308 310 311 310 310 310 309 310 308 308 310 313 313 310 314 308 309 310 308 303 303 301 300 300 300
319 319 321 320 321 322 321 319 322 320 319 311 308 308 310 308 308 308 306 308 306 309 309 314 317 309 307 309 310 307 310 313 315 313 312 309 313 312 301 301 303 302 301 300 300
321 320 321 321 322 322 320 321 323 320 317 314 314 311 311 311 309 308 307 308 309 307 316 313 315 309 307 309 310 309 310 310 312 298 307 312 310 304 301 299 299 300 300 300 300
321 321 321 322 323 322 321 323 320 318 316 315 315 315 315 315 313 308 308 309 312 307 310 314 316 311 309 309 308 310 309 312 309 312 310 312 310 311 303 301 299 298 300 300 300
322 320 320 321 322 319 322 320 317 317 315 316 316 316 314 314 313 310 313 312 310 309 310 310 313 312 310 310 310 310 311 311 310 309 310 307 309 305 305 301 300 299 301 301 301
320 320 318 320 317 318 322 317 316 316 316 314 313 314 313 311 313 312 313 312 311 309 311 310 310 308 311 308 307 309 310 311 314 311 307 309 312 303 304 301 301 301 302 302 301
316 314 315 317 320 316 314 315 315 314 314 314 314 313 312 312 315 311 311 311 310 310 311 311 309 306 313 309 308 309 308 308 307 306 307 310 310 301 301 302 302 302 303 302 302
313 311 311 312 312 315 315 315 315 313 312 313 313 311 312 313 312 313 311 310 310 310 311 312 310 312 315 309 307 309 306 305 307 307 311 311 308 303 302 301 301 302 302 303 303
309 308 308 310 310 313 314 314 316 313 312 312 311 313 313 313 311 312 310 309 308 308 309 310 310 307 308 305 306 306 306 304 305 304 306 305 303 302 301 300 302 302 301 300 300
306 305 306 307 311 311 313 312 315 314 312 313 314 312 311 314 312 311 310 309 309 306 307 303 305 304 304 305 306 308 307 305 306 306 304 305 304 302 301 301 298 298 297 297 297
303 303 305 304 307 311 311 312 312 311 308 309 311 311 311 311 311 307 307 307 307 306 304 305 301 303 310 299 301 303 299 301 302 301 301 302 301 291 295 295 296 296 295 295 295

GFSSW_850_thetae_024.txt.gz
Theta_e
311 310 310 309 309 310 310 311 311 311 312 312 312 313 313 313 313 313 313 313 313 312 312 314 315 315 316 317 317 316 307 310 314 311 314 315 314 315 315 314 315 315 315 314 314
311 310 309 309 310 310 311 311 312 312 312 313 313 314 314 315 316 315 314 314 313 312 312 313 314 315 316 318 318 311 306 309 312 313 314 315 314 315 315 314 314 315 314 314 315
310 309 309 310 310 311 312 312 312 313 313 315 316 318 319 320 319 314 312 312 312 312 312 313 315 315 315 318 317 313 310 311 315 315 315 315 314 315 314 313 314 314 313 313 313
310 309 309 310 311 312 312 312 313 314 316 318 320 320 320 319 318 313 312 311 312 312 313 314 315 316 313 314 316 316 315 314 316 316 316 315 315 314 314 314 313 313 313 314 314
309 309 309 310 311 312 312 313 314 317 319 319 319 318 318 317 319 318 313 312 311 312 313 313 315 315 313 314 314 315 314 314 315 315 315 314 313 313 314 313 313 312 312 313 312
309 309 309 311 312 312 312 314 317 319 319 318 318 318 318 315 317 317 317 313 313 312 312 312 314 315 315 313 313 313 313 313 314 314 313 312 312 313 312 313 312 312 313 311 310
308 309 310 311 311 312 314 317 318 318 318 318 318 319 319 318 317 317 317 316 313 312 312 312 315 315 315 313 313 313 312 309 311 311 311 311 312 310 312 312 313 312 311 310 309
308 309 310 311 311 313 316 317 318 317 317 318 318 319 318 317 317 316 316 316 314 312 312 313 315 315 315 314 311 311 308 310 310 311 312 312 313 312 312 312 310 309 309 308 308
308 309 311 311 312 314 317 318 318 318 319 319 319 318 317 315 315 315 314 314 314 313 313 314 315 314 313 308 308 306 311 309 310 311 311 311 312 311 311 311 309 307 306 306 306
309 310 311 311 313 315 317 318 319 319 319 319 319 317 316 314 313 313 313 313 313 313 313 314 313 307 305 308 313 311 309 309 310 312 310 311 309 308 310 310 308 305 305 304 304
310 311 311 312 315 317 318 319 320 319 320 319 317 317 314 314 313 311 312 312 312 312 309 310 308 309 308 307 309 308 309 311 310 310 312 310 309 309 311 307 304 304 303 302 303
312 312 314 315 316 318 319 321 320 318 319 319 320 317 315 313 312 310 311 312 311 309 308 307 308 308 308 308 308 309 310 309 308 308 310 309 309 308 308 306 304 303 302 301 301
314 315 316 317 319 319 320 321 321 320 319 319 319 319 318 315 315 314 311 311 309 308 307 308 311 307 308 307 308 308 308 309 310 310 309 309 309 308 304 303 302 302 301 301 301
316 316 317 320 320 319 320 320 321 320 316 316 315 316 316 317 315 315 311 312 309 310 307 308 308 311 308 309 307 309 307 309 310 311 313 309 312 308 306 303 301 300 300 300 300
317 317 318 319 319 320 320 320 321 318 320 314 312 312 313 315 311 309 309 310 309 309 308 313 310 309 310 310 308 311 308 309 309 309 309 309 309 308 305 306 302 300 299 299 299
318 318 319 320 320 320 321 321 319 318 321 314 309 308 310 308 308 308 310 310 310 309 309 310 309 308 310 308 309 306 308 307 306 306 309 309 310 309 307 307 302 300 300 299 299
318 318 319 318 321 321 321 319 319 322 316 313 310 307 309 307 307 307 307 308 309 312 312 310 310 309 308 309 307 307 309 313 313 310 314 308 308 309 307 304 303 301 300 299 299
319 318 319 318 320 320 319 317 321 320 317 309 308 307 309 307 307 307 307 309 306 308 308 312 316 309 307 310 309 307 309 313 315 312 312 307 311 311 301 300 301 302 302 300 299
320 319 319 319 319 320 318 322 322 318 317 310 310 309 308 308 307 307 305 306 307 305 315 312 315 308 306 307 309 308 309 309 310 296 305 311 310 304 301 300 299 299 300 300 300
320 320 319 319 319 321 319 323 319 317 314 311 316 312 310 312 309 307 306 306 310 305 310 312 316 310 307 308 307 308 307 311 308 311 312 312 310 312 305 302 298 298 299 300 300
321 320 320 320 319 318 321 321 321 318 317 314 315 314 311 313 310 307 310 310 308 308 309 310 313 312 309 308 309 310 310 310 309 309 313 309 312 303 305 301 299 299 301 301 302
321 321 320 321 319 319 320 319 319 318 316 314 314 315 314 313 311 310 311 312 310 308 310 310 309 308 311 307 306 308 309 310 314 311 306 309 314 301 302 300 301 301 302 303 303
318 318 319 321 322 321 318 320 318 317 317 314 314 314 311 313 317 311 311 310 309 309 311 310 310 306 309 309 307 308 307 307 307 306 307 314 312 301 301 300 302 303 303 303 303
315 312 312 313 318 321 320 319 318 315 315 314 314 312 313 314 313 313 311 309 309 309 311 311 309 309 314 309 308 310 307 305 309 313 314 312 312 305 303 302 301 302 303 304 303
311 309 310 313 315 316 319 317 318 316 313 313 312 315 317 316 314 314 310 308 308 309 309 311 310 309 309 307 306 307 307 305 307 309 313 311 309 304 304 302 303 304 303 302 302
308 307 307 307 311 314 317 317 317 316 313 313 314 313 315 316 314 312 311 310 310 306 308 305 311 306 305 306 305 306 306 304 306 306 305 305 305 303 304 303 301 302 302 301 300
304 306 308 306 308 312 313 315 315 314 309 312 313 313 314 314 310 307 309 309 309 308 307 305 304 302 311 300 302 308 305 306 305 304 306 307 306 294 296 297 299 300 298 297 298

GFSSW_850_thetae_027.txt.gz
Theta_e
310 310 310 309 309 309 310 310 311 311 312 312 312 313 313 313 314 314 314 313 312 312 312 313 314 315 315 316 316 315 308 310 313 311 314 314 314 314 315 314 315 314 313 313 314
311 310 309 309 309 310 310 311 311 312 312 313 313 314 315 316 318 317 314 314 313 312 312 313 313 314 315 317 316 310 307 309 311 310 313 314 314 314 314 314 314 314 313 313 313
311 310 309 309 309 310 311 311 312 312 313 314 316 318 319 320 319 313 312 312 312 311 312 313 314 314 314 316 316 312 309 309 314 314 315 314 314 315 314 312 314 314 312 312 313
311 310 309 309 309 310 311 312 312 313 314 316 319 320 320 319 318 313 312 311 311 312 313 314 314 314 312 313 316 314 314 313 315 315 315 314 315 314 314 313 313 313 312 312 313
311 310 309 309 310 311 311 312 312 314 316 319 320 319 318 318 318 319 313 311 311 312 312 312 313 314 311 313 314 315 314 314 315 314 314 314 313 313 313 313 311 311 311 312 312
311 310 309 309 310 311 312 312 313 316 319 319 318 318 318 317 317 317 317 314 312 311 312 312 313 314 314 313 312 312 313 312 314 313 312 312 311 312 311 310 310 310 310 310 311
311 310 308 309 310 311 312 312 315 318 319 318 317 318 318 318 318 317 317 316 314 312 312 312 313 315 314 311 313 312 312 309 311 310 311 311 310 309 311 309 310 311 312 311 310
311 309 308 309 310 311 311 313 316 318 318 317 318 318 318 318 318 317 316 316 315 312 312 312 315 315 314 312 310 310 308 312 311 310 311 311 314 310 311 311 311 310 309 308 308
310 309 308 308 310 311 312 314 317 318 318 318 319 318 318 316 316 316 315 315 314 312 312 314 314 313 313 309 309 307 313 309 310 310 310 310 313 310 310 309 309 308 307 307 306
309 308 308 309 310 311 312 315 318 318 318 319 319 317 316 315 314 314 314 314 313 313 313 314 313 307 305 309 314 312 310 308 310 311 310 310 310 308 309 308 307 306 305 306 306
307 307 308 309 311 311 313 317 318 319 319 319 317 317 314 314 313 312 313 313 313 312 310 310 309 310 309 308 310 308 309 310 309 309 311 310 308 310 308 307 305 304 304 304 304
307 307 309 310 311 312 315 318 319 318 318 319 319 317 315 313 311 311 312 312 311 308 307 307 309 308 307 307 308 307 309 309 308 308 309 309 309 309 308 305 305 304 303 303 302
308 309 310 312 315 316 316 318 320 320 319 319 319 319 318 315 313 311 311 311 308 307 306 308 310 306 307 307 308 307 308 308 310 309 308 308 310 309 305 303 303 303 302 301 301
312 313 316 316 318 318 318 317 320 320 316 315 315 317 317 316 314 314 311 311 309 308 306 307 308 309 307 308 306 308 306 307 309 310 313 309 315 309 306 304 301 300 300 300 300
316 317 318 316 319 318 317 318 320 319 319 314 312 312 314 316 312 310 310 310 308 309 309 314 308 309 310 309 307 311 306 307 309 309 309 309 310 309 306 307 302 299 299 299 300
317 318 318 317 319 318 318 321 319 317 320 314 309 307 310 309 308 308 309 310 310 308 308 310 309 307 309 307 307 305 307 306 305 306 309 309 311 310 308 307 303 300 300 299 298
318 318 318 317 319 318 321 319 319 321 315 312 310 307 311 307 307 307 307 307 310 313 312 310 309 308 307 307 306 307 308 312 313 311 314 307 307 310 307 304 303 301 300 299 299
318 318 318 317 318 319 319 316 322 319 316 308 307 306 311 307 308 306 307 309 306 308 309 313 314 309 307 308 308 306 309 313 315 313 313 306 311 311 303 301 301 302 303 300 299
319 319 319 317 318 320 317 321 320 317 315 309 308 309 308 307 307 306 307 308 309 306 313 311 312 307 306 306 308 308 309 308 309 295 308 311 310 308 301 301 299 300 301 300 300
319 319 319 318 318 319 318 321 318 316 311 309 317 311 311 308 308 306 306 305 308 306 309 311 316 309 307 307 307 308 307 311 308 310 310 311 312 314 306 304 299 297 299 300 300
320 319 319 319 318 320 321 319 319 318 315 312 315 314 310 310 308 306 308 307 306 305 308 309 314 311 307 308 309 309 309 309 309 309 312 310 312 305 306 303 301 299 301 302 301
320 321 320 319 319 319 321 316 318 319 318 315 313 313 312 311 309 308 308 308 308 307 309 310 311 309 310 306 305 307 308 309 313 311 306 309 313 303 303 302 303 302 302 303 303
320 320 320 319 321 320 318 318 317 318 319 318 317 314 312 312 315 309 307 309 309 308 310 309 311 310 311 309 306 308 306 307 307 306 307 311 311 301 301 300 302 303 303 303 303
318 315 316 319 320 320 319 319 319 317 317 316 315 313 312 314 314 313 310 309 308 309 311 311 309 312 319 313 309 309 307 306 309 308 310 312 312 303 302 302 301 303 304 304 304
313 311 311 317 316 320 319 318 319 319 317 317 314 316 317 318 316 316 311 308 308 309 309 312 313 307 309 308 308 309 308 306 308 310 313 312 311 306 304 302 303 304 303 303 304
307 307 308 307 310 315 318 320 319 319 315 316 319 317 317 320 319 318 314 310 311 306 308 307 314 307 307 306 305 307 305 306 308 308 308 309 308 304 306 304 302 303 303 303 303
308 308 309 308 309 312 315 317 319 318 314 315 316 318 317 318 313 309 313 310 310 309 309 310 307 311 316 301 306 311 307 305 306 304 308 307 308 298 300 300 302 304 303 302 302

GFSSW_850_thetae_030.txt.gz
Theta_e
311 310 310 309 309 309 310 310 310 311 311 312 312 313 313 314 314 315 314 313 312 312 312 313 314 314 314 315 315 314 317 319 319 318 319 316 317 314 315 315 315 313 313 313 314
311 310 310 310 309 309 310 310 311 311 312 313 313 314 315 317 318 318 315 314 313 312 312 313 313 314 316 317 316 316 317 316 317 317 318 316 316 316 316 316 315 314 313 312 313
311 311 310 309 309 309 310 311 311 312 313 313 315 317 319 320 319 314 312 313 313 312 312 313 313 313 316 317 317 315 316 313 315 315 316 317 316 315 316 317 316 316 311 312 312
311 311 310 309 309 309 310 311 312 312 313 315 317 319 320 319 320 313 311 311 311 312 313 313 313 315 316 317 317 317 315 315 316 315 315 316 316 317 316 316 314 313 312 312 312
310 311 311 309 309 309 310 311 312 312 314 317 319 319 319 318 319 318 313 311 311 312 313 312 313 315 316 316 316 318 317 315 315 315 315 314 316 316 315 313 313 312 312 312 313
310 311 311 310 309 309 310 311 312 312 315 318 319 318 318 319 318 318 318 314 311 312 312 312 313 314 315 315 316 314 314 315 314 314 313 314 314 313 312 311 311 310 311 311 311
310 310 311 310 308 309 310 311 312 313 316 319 319 318 318 319 318 318 317 316 313 312 312 312 313 314 314 315 312 313 316 316 315 313 314 312 314 314 311 308 308 308 309 310 310
310 310 311 309 308 309 310 311 312 314 317 318 318 318 318 318 318 318 317 316 314 312 312 312 314 314 314 312 313 315 314 319 315 313 312 313 320 315 308 309 309 307 308 309 309
309 310 311 309 308 308 310 311 312 315 317 318 318 318 318 316 317 316 316 316 315 313 312 313 314 314 313 316 316 315 320 318 317 312 313 314 319 313 309 310 310 309 308 307 307
310 310 310 309 308 308 310 311 313 316 318 318 318 318 317 315 315 315 315 314 313 313 313 314 313 315 314 316 321 321 318 316 318 314 313 315 316 313 309 310 311 309 306 304 303
310 310 309 308 307 308 310 312 315 318 318 319 318 318 315 315 314 313 314 313 313 313 316 311 316 317 318 317 316 316 317 318 315 312 314 317 316 317 312 310 310 309 306 304 303
309 309 308 307 307 309 310 314 317 317 319 318 318 317 315 314 312 312 313 313 313 315 311 313 316 317 313 313 313 313 316 317 315 311 313 315 314 315 313 312 311 310 306 303 303
307 307 307 307 310 312 311 313 318 319 320 319 318 318 317 314 313 312 312 311 312 312 313 317 315 311 312 312 313 314 315 316 315 312 312 313 317 317 313 307 305 305 305 302 302
307 307 307 310 315 315 315 313 319 320 321 319 317 318 317 316 313 312 312 311 310 314 312 313 311 311 311 313 313 316 313 313 313 314 319 313 322 319 315 311 306 304 303 301 301
310 308 312 314 316 317 314 316 319 318 324 317 314 314 313 316 312 309 310 310 312 311 312 317 311 311 313 314 311 316 310 312 312 314 314 316 318 319 311 313 309 305 303 301 300
316 312 315 317 317 317 317 318 320 320 324 317 310 310 314 310 309 308 309 310 310 311 310 315 309 311 314 309 310 309 311 311 311 314 318 318 319 319 317 315 310 306 302 300 299
321 320 315 317 318 317 319 321 321 324 317 315 314 311 314 310 309 310 310 312 316 318 318 313 313 309 308 311 308 310 315 320 320 318 321 311 315 318 315 310 309 307 303 300 299
319 319 317 317 317 318 320 318 324 321 320 310 309 311 316 311 310 309 311 314 312 313 316 320 321 312 309 315 314 312 317 322 325 322 320 309 316 317 307 304 303 304 303 300 298
318 319 318 318 318 318 316 322 322 320 320 312 310 314 315 311 312 310 312 315 315 312 319 318 318 309 307 308 313 311 313 314 314 306 318 318 314 313 305 305 303 303 302 300 299
319 319 318 318 318 317 317 321 320 318 317 313 319 316 317 312 313 312 312 312 313 311 312 315 318 310 307 309 309 311 312 315 314 322 323 318 317 319 311 309 305 303 302 301 299
320 319 318 316 318 317 319 320 319 317 314 315 318 318 316 313 314 313 314 311 312 310 312 313 316 313 309 311 314 311 312 312 314 316 322 322 319 314 315 311 307 305 303 302 300
320 320 319 317 318 318 319 318 317 319 315 317 316 319 315 313 313 313 314 315 309 308 311 313 315 317 313 308 307 312 314 313 319 317 314 315 319 306 308 309 308 307 303 302 302
318 319 318 318 320 319 317 318 318 318 319 319 318 316 315 315 316 313 313 310 308 310 313 313 316 321 317 311 308 310 310 312 315 313 320 321 318 305 304 305 305 306 304 304 302
318 319 318 319 318 318 318 318 319 317 318 318 319 318 316 317 314 317 314 311 308 310 311 313 316 318 322 320 316 313 311 311 313 319 319 317 316 308 308 307 305 304 304 303 304
313 313 314 319 320 319 318 319 319 319 317 318 318 319 320 320 319 318 316 311 308 308 311 313 317 316 316 314 314 314 314 311 313 315 318 317 315 313 310 308 308 307 304 302 303
306 306 309 308 312 319 319 319 319 319 318 317 319 319 318 320 320 321 320 318 315 309 310 311 317 316 315 312 311 313 313 312 312 314 315 314 315 312 310 308 305 304 303 303 303
308 306 308 309 309 312 319 319 318 318 318 318 318 318 318 319 318 318 317 316 315 312 311 312 315 314 319 312 309 313 312 312 311 312 313 314 314 307 306 305 305 304 304 304 303

GFSSW_850_thetae_033.txt.gz
Theta_e
310 310 310 309 309 309 309 310 310 311 311 312 312 313 314 314 315 316 315 313 312 312 312 313 314 314 317 319 317 316 319 320 320 320 321 318 319 317 317 318 317 315 316 314 314
311 310 310 309 309 309 310 310 311 311 312 312 313 314 316 318 318 318 315 314 313 312 312 315 316 316 318 319 319 319 320 319 320 320 320 319 319 318 317 317 317 315 314 314 313
311 311 310 310 309 309 310 310 311 312 312 313 314 316 318 319 319 316 313 313 313 312 312 313 315 316 318 318 319 318 319 317 318 318 319 319 318 318 318 319 318 318 315 312 312
311 311 311 310 309 309 310 310 311 312 312 313 315 318 319 319 321 315 312 312 312 312 312 314 316 316 317 318 318 319 317 317 318 317 318 319 319 318 318 318 315 314 313 312 312
311 310 311 311 310 309 309 310 311 312 312 313 316 319 319 319 320 318 313 311 311 312 315 316 315 316 317 317 318 319 318 317 318 317 317 317 318 318 318 315 313 313 312 311 311
311 310 310 311 310 309 309 310 311 312 312 314 318 319 318 320 319 318 318 314 311 312 313 314 315 316 317 317 317 317 317 317 317 317 316 316 317 316 317 313 312 311 311 310 311
310 310 310 310 310 309 309 309 311 312 312 315 318 318 318 320 319 318 317 317 313 311 315 312 313 315 317 317 315 316 317 318 318 316 316 315 317 316 317 312 312 312 310 310 310
310 310 310 310 310 310 309 309 310 311 312 315 318 318 319 320 318 318 317 316 315 313 312 312 313 316 317 315 316 317 317 320 319 315 315 315 321 320 313 312 312 312 311 309 309
309 309 309 310 310 310 308 309 310 311 313 316 318 318 320 318 317 317 317 316 315 313 312 312 315 317 315 317 319 319 321 322 321 316 316 316 321 316 312 313 314 313 311 309 307
308 309 309 310 310 309 308 308 310 311 314 317 318 318 318 316 316 316 316 315 314 313 314 315 316 317 318 319 322 322 322 321 321 318 316 318 318 317 313 313 315 314 312 309 307
309 308 309 310 310 309 308 309 311 318 316 318 320 320 316 316 315 314 315 314 314 315 318 316 318 319 320 319 320 320 320 321 321 316 316 319 319 319 316 313 314 315 313 310 307
310 310 310 310 309 308 308 317 318 317 320 319 318 318 316 315 313 313 314 315 315 318 317 316 318 319 319 318 319 318 319 320 321 316 315 317 318 318 318 316 315 315 314 310 306
320 308 310 310 309 309 308 313 313 318 319 319 319 319 317 315 315 314 314 315 316 318 317 319 319 315 316 316 317 318 319 320 320 316 314 316 318 318 318 317 316 313 314 311 306
323 311 309 311 313 311 311 309 315 318 319 318 318 319 317 315 315 313 313 313 312 317 317 317 317 315 315 317 317 319 319 317 317 317 321 317 322 322 321 317 313 311 310 308 306
323 315 309 309 316 314 310 310 317 318 320 319 318 315 313 317 314 310 311 311 316 314 315 318 314 314 316 317 316 318 315 316 317 318 319 320 319 322 322 321 316 311 309 307 305
323 316 311 314 317 312 310 315 320 321 320 319 314 315 315 316 312 309 310 310 313 314 313 316 311 314 316 312 314 313 315 315 315 318 322 321 322 323 321 317 318 312 308 307 304
323 318 315 314 315 315 316 318 321 320 318 318 317 314 318 316 313 313 312 312 316 317 318 317 316 313 312 314 311 314 318 324 323 321 324 316 321 322 319 313 314 311 308 305 303
323 319 315 314 315 315 319 320 321 318 318 316 316 315 319 315 315 313 313 315 314 318 322 323 323 318 313 318 318 315 319 325 328 327 324 311 318 319 316 311 308 311 307 304 302
321 318 316 316 315 316 318 319 318 316 317 317 315 318 318 315 316 313 315 318 318 317 321 322 323 315 313 314 318 315 317 318 319 312 320 320 317 317 309 308 307 308 306 304 302
320 318 317 316 316 317 318 318 317 317 318 320 318 319 321 317 316 315 317 318 319 316 317 321 322 314 311 310 312 314 315 316 317 326 326 322 321 321 313 311 308 307 306 304 302
318 318 318 317 317 316 318 315 317 317 318 319 320 320 319 320 317 315 320 318 317 316 315 318 319 315 310 313 316 313 315 315 317 319 325 325 323 319 319 315 311 307 306 305 303
317 320 318 318 317 317 317 318 316 317 318 318 318 319 319 319 317 317 319 319 314 313 315 317 319 323 317 313 313 315 316 316 320 319 317 320 322 311 317 316 311 309 307 306 303
315 318 318 318 320 318 317 317 316 318 319 319 318 318 319 319 317 318 319 317 313 314 316 315 318 324 322 314 310 312 313 314 315 316 322 323 322 310 309 312 311 310 307 306 304
314 318 317 319 318 318 317 318 317 317 318 319 319 319 319 321 317 320 320 314 313 313 315 314 318 322 325 323 318 315 313 313 315 318 319 321 320 311 310 310 309 309 307 306 304
313 313 312 319 319 318 317 318 318 318 318 317 319 319 320 320 320 318 319 314 311 310 312 314 319 320 320 320 320 318 316 314 314 316 319 320 319 319 312 311 310 308 308 306 304
306 307 307 309 310 317 317 318 318 319 318 318 318 319 319 321 322 321 319 318 316 310 311 311 316 317 318 318 319 319 317 316 314 314 316 317 319 318 312 311 311 309 308 306 305
307 306 307 305 309 311 317 318 318 318 317 318 318 318 319 319 319 319 319 318 318 315 310 312 313 316 319 317 317 315 316 316 316 314 315 317 316 312 313 310 309 309 307 307 306

GFSSW_850_thetae_036.txt.gz
Theta_e
310 309 309 309 309 309 309 310 310 311 311 312 312 313 314 314 315 316 316 314 313 312 312 313 313 315 318 319 316 317 318 319 320 320 320 318 318 318 318 318 317 316 316 316 315
310 310 310 309 309 309 309 310 310 311 312 312 313 314 315 316 317 318 317 315 313 312 312 315 317 316 318 319 320 319 320 320 318 319 319 318 318 318 317 317 316 315 313 313 313
310 310 310 310 309 309 309 310 310 311 312 313 313 314 317 318 319 318 314 313 313 312 312 313 316 316 317 318 319 319 318 316 318 318 319 319 318 318 318 317 318 317 315 313 313
310 310 310 310 310 309 309 309 310 311 312 313 314 316 318 319 322 317 312 312 312 312 312 314 316 317 317 319 319 318 317 317 318 317 318 319 319 318 318 317 316 316 315 312 312
311 310 310 310 310 309 309 309 310 311 312 312 314 316 319 320 321 320 316 311 311 312 316 316 315 316 317 318 318 318 318 317 318 317 317 318 318 318 318 317 316 314 313 312 312
311 311 310 310 310 310 309 309 309 310 312 312 314 317 319 320 320 319 318 316 312 312 314 314 315 316 316 317 317 317 318 318 318 318 317 316 317 317 317 317 315 313 312 312 312
311 311 310 310 310 310 310 309 309 310 311 312 314 317 319 319 320 319 318 317 315 312 315 314 314 315 317 317 316 317 316 316 317 317 316 316 315 315 316 315 313 312 311 311 311
310 310 310 310 310 310 310 309 309 309 311 312 314 318 319 319 320 319 318 317 316 313 312 314 312 316 317 316 316 316 317 318 317 317 315 315 318 317 317 314 313 312 311 310 310
307 309 310 310 310 310 310 309 308 309 310 312 315 318 319 318 318 318 317 316 316 314 313 312 313 317 315 316 317 317 317 319 318 316 314 314 318 315 314 313 314 313 311 310 310
311 308 308 309 309 309 310 309 308 309 310 312 315 317 317 317 317 317 317 316 315 314 313 314 316 316 316 315 318 321 319 320 320 316 315 315 313 315 313 313 314 313 312 311 310
323 314 308 308 309 309 310 308 310 316 312 312 319 319 317 317 316 315 316 315 315 315 316 316 316 317 317 317 317 318 318 318 319 314 316 316 316 316 314 313 314 315 313 312 309
326 324 313 309 309 310 309 309 316 317 318 318 316 318 318 316 314 314 315 315 315 316 317 315 316 317 318 319 318 318 318 317 318 314 315 315 315 315 316 313 314 314 315 312 309
325 325 324 310 310 311 310 310 310 314 319 315 315 317 318 317 315 314 315 315 315 317 317 318 318 317 317 317 318 317 317 317 318 316 314 313 313 315 315 317 314 315 315 314 311
325 325 324 317 312 312 311 310 310 312 318 315 320 320 318 317 315 316 315 315 315 316 317 317 317 316 317 317 316 317 317 317 317 316 317 314 317 318 318 316 315 315 314 313 309
324 324 324 324 313 312 311 309 312 316 314 317 318 317 316 316 314 313 314 313 314 314 316 317 315 314 316 316 316 317 315 316 317 317 317 317 317 317 317 318 315 311 312 311 308
321 323 322 317 313 315 312 309 318 320 318 319 314 315 314 315 312 309 312 311 312 315 314 315 313 314 315 311 314 313 315 315 315 316 318 318 319 319 319 318 316 312 312 310 307
322 322 321 317 315 317 315 315 319 318 314 315 316 316 317 317 314 312 311 311 314 315 315 314 314 313 313 313 312 315 317 320 319 317 319 315 318 319 316 314 315 312 310 309 307
321 322 321 317 316 316 317 314 315 313 312 317 317 316 318 317 316 313 312 312 312 314 317 317 319 315 311 316 315 313 317 320 324 322 320 311 315 317 311 310 311 311 309 308 305
320 320 320 317 315 315 317 313 314 314 314 314 316 317 318 317 316 313 314 315 314 313 317 320 321 315 313 314 315 314 316 317 317 307 313 317 314 315 308 307 308 309 308 306 304
318 317 317 317 315 315 318 313 314 314 315 314 315 317 320 317 315 314 314 315 316 314 315 320 322 315 309 311 312 314 313 315 314 316 318 319 318 318 311 309 306 307 306 304 303
315 317 317 317 316 316 314 312 314 315 315 315 315 316 316 319 315 314 317 317 316 316 314 317 319 313 310 311 314 312 313 315 315 316 319 319 319 317 314 311 307 307 306 304 303
314 318 318 317 317 316 317 316 314 315 317 317 316 316 318 316 317 316 316 318 317 316 316 316 318 313 312 311 311 314 314 314 316 317 316 315 320 313 314 311 309 307 307 305 304
313 314 317 318 319 318 315 315 315 316 315 317 319 317 317 319 318 317 317 316 317 315 315 316 317 320 320 313 310 311 312 314 315 313 318 317 319 308 308 310 310 307 307 306 304
312 315 314 318 317 318 315 315 317 315 316 317 317 318 318 319 318 318 317 316 315 315 315 316 317 320 323 320 316 312 311 313 314 316 315 317 318 310 309 309 309 309 307 306 305
311 313 313 316 317 317 316 316 316 317 315 316 318 318 319 319 319 319 317 313 312 313 314 315 317 317 318 318 316 313 313 312 313 314 316 317 316 316 311 307 309 310 308 306 305
306 308 308 310 310 312 318 317 317 317 317 316 318 318 318 319 319 319 319 316 313 310 311 312 316 316 317 316 316 318 318 313 312 313 314 315 315 315 315 311 309 309 307 306 305
306 306 307 309 311 312 309 313 317 317 317 317 316 317 319 319 318 318 318 317 315 311 310 311 313 314 319 315 315 318 317 318 316 313 313 314 315 312 313 308 308 308 308 306 306

GFSSW_850_thetae_039.txt.gz
Theta_e
309 309 309 309 309 309 309 309 310 310 311 312 312 313 314 314 315 316 315 314 313 312 312 312 314 314 318 319 316 316 311 313 316 316 317 317 316 318 317 317 316 315 316 316 314
309 309 309 309 309 309 309 310 310 311 311 312 313 313 315 316 317 317 316 315 313 312 312 315 316 316 318 319 319 316 312 316 316 315 315 317 317 317 317 316 315 313 314 314 313
310 310 310 309 309 309 309 309 310 311 311 312 313 314 315 317 320 318 313 312 313 313 312 313 316 316 317 317 318 317 314 314 316 317 318 317 317 318 317 315 315 315 313 313 314
310 310 310 310 310 309 309 309 309 310 311 312 313 314 316 317 320 318 312 311 312 312 312 313 316 316 315 316 318 315 316 317 318 317 318 317 318 317 317 316 317 316 315 313 313
311 311 310 310 310 310 309 309 309 310 311 312 312 314 316 318 320 320 318 312 311 312 314 315 315 315 315 316 317 316 316 317 317 317 317 317 317 317 316 315 316 316 314 313 313
311 311 311 310 310 310 310 309 309 309 310 311 312 314 317 318 318 319 318 317 312 312 314 314 315 315 315 316 315 316 316 317 317 317 317 316 316 316 316 316 315 314 313 313 313
311 311 311 310 310 310 310 310 309 309 310 311 312 314 316 316 318 319 318 317 315 312 314 313 314 314 317 316 316 316 314 314 315 316 315 316 314 313 316 315 315 313 312 312 312
308 310 311 310 310 310 310 310 309 308 309 310 312 314 315 317 318 319 319 318 317 313 313 314 312 315 316 316 315 315 314 315 315 314 314 314 314 316 315 314 313 312 312 312 311
311 308 308 309 310 310 309 309 310 309 308 310 312 315 316 317 318 318 318 317 316 315 313 313 313 316 315 312 312 314 314 314 316 314 312 313 314 314 313 314 313 312 312 312 311
323 316 309 307 309 309 309 309 310 309 309 310 312 315 314 316 317 318 317 316 316 314 313 313 315 312 312 310 314 315 315 316 316 314 313 312 311 312 314 314 314 313 312 311 311
325 325 320 310 308 308 309 309 310 314 311 310 315 315 317 316 316 316 317 315 315 315 313 314 312 313 313 311 313 315 316 317 315 314 314 312 312 312 314 313 312 313 312 312 311
324 324 325 323 310 308 308 309 315 316 316 314 315 316 318 317 315 315 315 315 315 314 314 313 313 313 313 313 314 314 315 314 314 313 312 312 312 312 313 312 313 313 313 312 311
325 325 324 325 323 309 309 309 310 315 316 312 310 312 316 317 316 315 315 315 314 313 313 314 315 315 315 316 316 315 315 315 315 314 313 312 312 312 312 314 314 313 314 313 313
324 324 324 323 322 317 310 309 310 310 310 311 316 317 316 316 314 316 316 315 314 314 313 314 315 316 314 315 314 315 315 315 315 315 315 312 316 314 315 313 311 313 312 313 311
322 322 323 322 321 318 316 310 310 314 307 310 318 316 316 316 314 313 314 314 312 313 314 315 314 314 315 315 313 315 314 315 315 314 316 315 315 315 314 315 316 313 312 312 312
318 320 321 320 317 318 313 310 314 317 315 316 314 314 313 314 311 311 313 313 313 313 312 313 313 312 313 310 313 311 313 313 313 313 315 314 316 316 317 317 316 312 312 312 312
317 317 320 320 317 317 315 313 313 316 310 314 314 313 314 315 311 310 310 310 313 314 313 312 312 312 312 312 311 313 314 317 317 315 319 314 315 318 315 313 313 312 310 310 310
314 317 318 320 319 317 316 309 313 311 311 314 314 314 316 314 313 311 310 312 310 312 312 315 315 312 311 312 313 312 314 317 320 319 317 311 314 316 313 313 312 314 313 309 308
311 315 318 319 319 317 312 311 315 313 312 313 315 316 316 315 313 312 310 311 311 311 315 315 315 312 310 313 314 312 315 315 316 301 310 315 313 312 309 308 308 309 310 309 307
309 315 317 318 317 317 316 312 311 314 312 312 315 315 316 315 314 312 312 312 314 312 313 316 320 312 309 312 311 313 312 316 313 314 314 315 316 318 312 310 306 306 306 306 306
307 314 316 317 317 315 317 312 312 312 313 313 313 313 315 315 313 312 314 313 312 311 312 314 318 312 310 311 313 312 313 314 315 314 317 316 317 312 315 312 307 307 307 308 307
307 314 314 316 316 316 317 314 312 312 312 314 314 316 313 315 315 312 314 314 315 312 312 314 316 310 311 309 309 313 313 312 316 316 312 313 319 311 312 310 309 308 307 307 307
308 311 313 316 318 317 315 313 313 313 313 315 316 316 316 317 316 315 314 314 315 312 313 314 316 316 316 311 310 311 311 314 314 310 315 315 319 308 309 310 310 308 308 307 307
307 311 312 315 317 316 317 315 314 312 314 315 316 316 317 318 316 318 314 313 315 314 315 316 316 319 321 319 312 312 312 313 315 315 316 317 317 313 311 310 308 308 309 308 307
305 308 311 314 312 314 315 316 316 315 313 315 315 315 317 319 319 318 317 313 312 314 314 316 317 315 317 317 314 312 312 312 313 314 316 317 316 316 313 308 309 311 308 307 306
305 306 308 309 310 312 312 309 317 315 315 315 316 316 316 317 318 319 317 316 314 310 314 312 317 316 318 315 315 316 313 312 313 313 313 315 315 312 314 315 310 311 310 307 307
304 305 306 306 308 311 311 310 312 315 315 315 315 315 316 317 316 317 317 316 314 312 311 312 314 314 320 315 315 317 317 317 314 313 313 314 314 311 313 312 309 310 310 310 311

GFSSW_850_thetae_042.txt.gz
Theta_e
308 308 308 308 308 309 309 309 310 310 311 311 312 313 313 314 315 315 314 313 312 311 312 313 313 315 315 315 314 315 309 312 315 313 316 316 315 317 316 316 315 316 316 316 319
309 309 309 309 309 309 309 309 310 310 311 312 312 313 314 315 316 316 315 315 313 312 312 315 314 317 317 318 317 315 309 315 315 314 313 315 316 317 316 315 313 314 315 315 317
309 309 309 309 309 309 309 309 310 310 311 312 312 313 315 316 318 316 312 312 313 312 312 314 315 316 317 316 317 314 311 313 315 317 316 315 316 316 314 313 315 314 315 314 315
310 310 310 310 310 309 309 309 309 310 310 311 312 313 314 316 318 317 312 311 312 312 312 314 315 315 314 315 317 313 314 316 316 316 317 315 316 316 316 316 317 317 314 314 314
311 311 310 310 310 310 309 309 309 309 310 311 312 313 315 317 318 319 318 311 311 312 313 315 315 315 313 315 316 314 315 316 317 316 317 317 316 316 316 316 317 316 314 314 314
311 311 311 311 310 310 310 310 309 309 309 310 311 312 315 316 318 319 318 315 311 313 314 314 315 315 315 315 314 316 315 316 316 316 316 315 315 316 316 316 315 315 315 313 313
311 311 311 311 310 310 310 310 310 309 309 309 311 312 314 314 317 318 318 317 314 312 313 313 314 314 316 315 315 315 313 312 314 315 315 315 313 312 315 314 314 314 314 313 312
308 309 310 311 311 310 310 310 309 310 309 309 310 312 313 315 317 318 318 318 316 313 313 314 312 314 316 315 314 314 312 314 314 313 314 313 313 313 314 314 313 313 313 312 312
320 313 308 308 310 310 310 309 309 309 310 309 309 312 313 315 317 317 318 317 316 314 313 313 313 315 314 310 311 311 313 313 313 312 312 312 313 313 313 313 313 312 312 312 312
323 323 319 310 307 308 309 309 309 309 309 309 309 313 312 315 316 317 317 316 315 314 313 313 314 311 309 309 314 313 313 313 314 314 312 312 310 310 312 311 313 313 313 312 312
324 323 324 322 313 308 307 308 308 312 311 310 311 311 315 314 317 317 316 315 315 313 312 313 311 312 312 309 312 313 313 315 314 314 313 311 311 311 312 311 311 312 312 312 313
325 323 324 324 323 314 308 308 309 313 313 312 312 313 316 316 315 315 316 315 314 313 312 312 312 312 311 311 312 312 314 312 312 313 311 312 311 310 311 312 313 314 314 313 312
324 324 324 324 323 323 311 308 309 313 313 311 310 312 313 315 316 315 315 314 313 312 312 313 315 313 313 314 314 313 313 313 315 313 311 311 311 311 311 312 314 315 316 315 314
322 322 323 319 319 323 323 310 309 309 306 307 313 313 313 315 315 316 316 315 313 313 312 312 313 314 313 314 313 314 312 314 314 315 314 312 316 313 312 311 310 314 314 314 313
320 321 321 322 320 321 322 313 310 311 308 308 315 314 314 314 312 313 314 314 312 313 313 314 313 313 314 314 313 315 313 313 314 313 314 313 313 312 313 313 313 315 315 316 313
316 318 319 319 319 320 318 311 311 313 310 311 315 313 313 314 311 311 312 313 313 312 312 312 312 312 314 311 312 311 313 312 311 312 315 314 314 314 314 315 313 314 315 316 315
311 314 317 318 317 318 315 315 311 314 311 311 315 313 314 313 310 310 310 310 312 314 314 312 312 311 311 312 312 312 313 314 316 314 317 312 313 317 314 312 313 314 317 315 313
308 311 314 317 318 318 313 311 313 313 313 312 313 313 315 314 312 310 310 312 311 312 312 315 315 312 310 312 313 312 312 315 317 316 315 311 315 315 311 314 313 315 314 314 312
308 308 311 314 317 317 313 312 317 313 312 312 314 315 314 314 312 311 309 311 311 309 314 313 313 311 310 311 313 311 314 313 315 298 310 315 313 312 309 309 310 311 310 310 310
307 307 309 312 316 317 313 314 312 312 312 313 317 315 316 314 313 311 310 310 312 310 312 313 315 310 310 312 311 311 311 314 311 314 314 315 314 318 313 311 310 308 308 308 309
306 307 308 309 314 316 314 312 312 311 313 313 315 316 316 315 313 312 313 312 311 310 312 313 316 312 310 311 312 312 313 313 314 312 315 313 316 310 314 312 311 309 313 311 309
305 308 308 314 314 315 317 314 311 310 312 312 313 313 314 314 314 313 314 312 312 310 312 312 316 312 311 309 308 311 313 312 315 314 311 313 320 310 311 310 310 313 315 312 310
305 306 307 313 315 314 315 316 316 312 312 312 315 314 313 314 317 313 312 311 312 311 311 313 314 313 314 311 309 310 311 314 312 309 316 315 319 307 308 309 312 312 316 313 309
302 305 306 311 311 313 313 316 316 314 313 312 314 314 315 316 315 315 314 312 313 312 313 314 315 315 318 317 311 311 310 311 315 317 317 316 318 313 311 311 311 312 314 313 310
301 304 305 309 308 312 311 314 314 315 313 313 313 314 315 317 317 317 316 312 312 312 313 314 317 316 316 315 312 312 313 312 314 315 317 318 317 317 313 309 310 315 314 311 310
300 302 305 305 308 310 309 312 308 315 315 314 314 314 315 316 317 318 316 315 315 311 313 312 317 316 317 315 313 314 311 311 313 314 314 315 316 313 313 314 311 313 314 311 312
298 300 303 305 305 306 308 311 311 310 309 313 314 314 315 315 315 316 316 316 315 315 314 313 316 317 320 316 314 317 317 313 312 313 313 315 315 310 312 311 312 312 312 313 315

GFSSW_850_thetae_045.txt.gz
Theta_e
307 307 308 308 308 308 309 309 309 310 311 311 312 313 313 313 314 314 313 313 312 311 312 312 313 315 314 314 314 315 308 310 312 311 314 315 314 314 315 315 315 316 316 316 321
308 308 308 308 308 308 309 309 310 310 311 311 312 313 314 315 316 315 315 314 313 312 312 314 314 316 316 316 315 312 308 312 312 311 313 314 315 316 315 314 313 315 316 316 320
309 309 309 309 309 308 309 309 309 310 310 311 312 313 314 315 318 316 312 312 313 312 312 314 314 316 316 316 315 311 310 311 315 316 315 314 314 315 314 312 314 315 316 316 319
310 310 309 309 309 309 309 309 309 309 310 311 312 312 314 316 315 315 311 311 312 312 312 314 314 315 314 314 316 312 313 314 315 316 315 314 315 315 314 315 316 316 316 316 316
310 310 310 310 310 310 310 309 309 309 309 310 311 312 314 316 317 318 316 311 312 312 312 314 314 314 313 315 315 313 314 315 316 316 316 316 315 314 315 316 316 316 315 315 315
310 311 311 310 310 310 310 310 310 309 309 309 310 311 313 314 318 319 317 312 312 313 314 314 314 315 315 314 313 315 315 315 315 315 315 315 315 315 317 317 316 316 315 314 314
311 311 310 310 310 310 310 310 310 310 310 309 309 310 312 313 315 318 317 315 312 313 313 314 314 314 315 314 315 314 313 310 312 314 314 315 313 311 316 315 316 315 314 314 314
310 309 310 311 311 310 310 310 309 309 309 309 309 309 311 313 314 318 317 317 315 313 313 313 312 315 316 315 313 312 310 313 312 312 314 313 311 312 314 314 314 314 314 313 313
322 316 311 308 309 310 310 310 309 309 309 309 309 309 310 312 314 316 318 317 316 314 313 313 313 314 314 309 310 309 313 312 312 311 311 311 312 312 313 312 313 313 313 314 314
324 324 322 316 310 307 308 309 309 309 309 309 309 311 311 313 314 316 317 316 315 314 313 313 314 310 306 309 313 313 312 311 313 313 311 312 309 309 312 311 312 312 313 313 313
323 324 323 324 321 313 308 307 308 309 309 309 310 309 313 313 316 317 317 315 314 313 311 312 310 311 311 309 311 311 312 313 313 313 313 311 310 310 311 311 311 312 313 313 314
324 323 323 323 323 323 315 308 309 312 310 310 311 311 314 315 315 316 316 315 314 312 311 311 311 311 310 310 311 312 313 312 311 311 311 311 311 309 309 310 312 313 314 315 314
323 324 323 322 323 323 323 310 308 311 311 310 310 311 311 313 315 315 316 314 312 311 311 312 314 311 312 312 312 311 311 312 313 312 310 310 310 310 310 311 312 313 315 315 315
320 322 322 322 320 321 323 320 309 310 306 307 310 312 312 313 314 315 316 315 312 312 311 312 312 312 312 313 312 313 311 312 313 314 314 311 314 311 310 310 309 314 315 316 316
317 320 321 321 320 321 322 321 309 313 320 310 312 312 313 313 311 313 314 314 311 312 312 312 312 312 313 313 311 314 311 311 313 312 313 312 312 314 311 312 312 313 317 317 318
310 316 318 318 318 320 321 316 312 315 318 309 314 312 312 312 310 310 312 312 312 311 312 311 311 311 313 311 311 310 312 310 310 311 314 313 313 313 313 313 313 313 316 317 317
308 310 316 317 317 318 319 314 313 316 313 313 314 312 313 312 310 310 310 310 312 313 313 311 312 311 311 312 311 312 312 314 314 313 316 310 312 315 312 311 312 314 317 318 316
307 308 310 315 317 317 314 311 314 314 313 311 312 312 315 312 311 309 310 311 310 311 310 313 312 311 309 313 313 311 312 314 315 314 313 310 314 315 310 312 313 315 316 315 315
304 307 308 309 315 316 314 314 316 313 311 313 314 315 314 313 313 310 310 311 311 309 313 313 313 310 309 310 312 311 313 312 314 298 309 313 312 311 309 309 310 313 314 314 315
303 304 306 306 310 316 313 317 316 311 311 313 318 316 316 313 314 310 309 309 311 310 311 312 313 310 310 312 310 311 310 314 310 312 311 313 313 316 315 312 311 309 313 316 314
301 304 305 304 308 314 317 311 312 311 313 312 315 316 314 314 313 310 312 311 309 309 311 312 313 311 309 310 311 311 312 312 312 311 314 312 315 309 314 311 311 310 317 316 315
299 305 304 309 310 311 313 315 312 310 312 312 312 314 313 313 313 312 313 312 312 309 311 310 313 311 311 309 308 310 312 312 313 312 310 311 317 310 309 310 310 313 316 316 316
299 301 305 309 310 309 311 312 313 312 313 312 313 312 311 316 317 314 311 310 311 310 311 312 313 308 312 311 307 310 310 312 311 308 315 313 318 305 308 309 311 313 316 315 315
298 300 302 304 307 309 309 310 312 314 313 312 313 313 314 314 315 314 312 311 311 310 312 313 314 313 317 315 310 310 309 311 313 314 316 316 317 314 312 308 310 313 316 315 315
298 299 301 305 303 306 308 311 310 312 314 313 313 313 315 316 315 314 312 312 311 311 312 314 317 315 315 315 311 311 311 311 313 314 315 317 316 316 313 309 311 316 316 314 315
298 298 300 302 303 306 304 308 309 310 311 314 314 313 313 315 316 316 315 314 314 310 312 312 316 315 316 315 314 313 310 311 312 314 314 315 316 313 313 314 311 314 316 314 315
298 298 299 299 300 303 305 306 306 307 310 310 312 313 314 314 314 314 315 315 315 315 313 314 315 315 319 315 315 315 315 315 312 312 313 315 315 311 313 312 312 313 312 313 315

GFSSW_850_thetae_048.txt.gz
Theta_e
307 307 307 308 308 308 308 309 309 310 310 311 311 312 313 314 314 313 312 312 311 312 312 312 313 313 313 314 314 314 307 309 310 311 313 313 313 312 314 314 316 316 316 316 319
307 307 308 308 308 308 308 309 309 310 310 311 311 312 313 314 315 314 314 313 312 311 311 313 313 315 315 315 314 309 307 310 310 309 313 313 314 313 314 313 314 314 316 316 319
308 308 308 308 308 308 308 308 309 309 310 311 311 312 313 314 316 315 313 313 313 312 312 314 314 315 314 315 314 309 308 310 314 315 315 313 313 314 313 311 314 315 316 316 319
309 309 309 309 309 308 308 308 308 309 310 310 311 312 313 315 312 313 311 311 312 312 312 313 314 314 312 313 314 312 312 312 314 315 314 312 314 313 313 315 316 316 315 316 317
309 309 310 309 309 309 309 309 309 308 309 309 310 311 313 315 317 317 313 311 312 311 312 313 314 313 311 314 314 312 312 314 315 315 315 315 314 313 314 315 315 316 315 315 316
310 310 310 310 310 310 309 309 309 309 309 309 309 310 312 313 316 318 316 311 312 312 313 314 314 314 314 313 311 314 314 314 315 315 314 314 314 315 316 316 316 316 316 315 315
310 310 310 310 310 310 310 309 309 309 309 309 309 309 310 312 314 318 317 313 312 313 313 314 314 314 314 313 314 313 313 311 311 314 314 314 312 311 316 316 316 316 315 315 315
314 310 309 310 310 310 310 310 309 309 309 309 309 309 310 311 313 317 316 315 313 312 312 313 313 315 315 313 312 311 309 312 311 312 313 312 310 310 313 314 314 315 315 315 314
323 321 315 311 308 309 310 310 310 309 309 309 309 309 310 311 312 315 317 317 316 314 313 313 312 313 313 309 310 308 312 312 311 311 311 310 311 311 312 312 312 313 314 314 314
323 323 323 321 316 311 307 308 309 309 309 309 309 309 310 312 313 314 317 317 315 313 313 313 313 308 305 309 311 312 312 311 312 312 310 311 308 308 313 312 313 313 313 313 314
323 323 323 323 323 321 314 307 307 308 308 309 310 308 311 312 314 315 316 315 314 313 311 311 310 311 310 308 310 309 311 312 311 311 312 310 308 309 313 311 311 313 314 315 315
322 323 322 322 323 323 322 308 308 312 311 309 309 309 311 313 315 316 316 315 313 311 310 309 310 309 310 309 311 311 312 311 310 310 311 310 310 310 309 310 313 315 315 316 316
322 323 323 323 323 322 323 317 308 310 310 309 310 310 310 311 314 315 315 314 311 310 310 311 312 310 310 310 312 310 310 311 312 311 309 309 310 309 309 310 312 313 315 316 316
318 320 322 320 320 322 321 323 311 309 308 309 309 312 311 312 313 314 315 315 311 312 309 310 311 312 311 311 310 312 309 311 312 313 313 310 313 310 310 310 308 314 314 316 316
314 317 319 321 319 321 321 321 313 312 322 312 310 311 312 311 310 312 313 314 310 311 311 312 311 312 312 312 310 312 310 310 311 311 311 311 312 312 311 311 311 313 316 317 317
309 313 317 318 318 320 320 320 313 317 322 312 312 312 311 311 310 311 312 312 312 311 311 310 311 310 311 310 311 309 310 309 308 310 313 311 312 312 311 312 311 312 315 317 316
307 309 313 316 316 318 319 312 313 318 314 315 313 311 312 310 310 310 310 310 311 313 312 311 311 310 311 311 310 311 312 314 311 311 315 309 311 314 311 310 309 310 316 316 316
304 307 308 314 316 317 316 312 316 312 315 311 312 311 313 310 310 309 309 311 309 310 308 311 310 310 308 312 312 310 312 313 312 311 311 309 313 313 309 311 313 312 315 315 316
299 304 306 308 315 316 314 315 317 314 314 314 314 315 314 313 311 310 309 310 310 308 311 310 311 309 308 310 311 311 312 311 313 297 308 310 309 309 308 308 310 312 314 316 317
297 298 302 304 308 315 314 316 315 312 311 313 316 315 314 312 313 309 309 309 311 309 310 311 312 309 309 310 310 310 310 313 310 312 310 311 311 313 313 312 309 308 312 316 315
297 299 301 303 306 311 314 314 313 313 314 313 314 315 313 313 312 310 311 309 308 308 311 310 312 310 309 310 310 311 312 311 311 310 311 310 313 308 311 310 310 310 315 315 316
297 301 302 306 308 309 310 311 312 310 312 313 312 314 313 311 312 310 312 310 310 309 310 310 312 310 310 308 307 309 310 310 311 310 309 310 315 308 309 309 310 312 315 315 315
298 298 302 307 306 307 307 308 309 311 312 312 313 312 312 315 316 312 310 310 310 310 311 311 313 310 312 311 307 309 309 310 309 308 312 311 316 306 308 308 310 310 314 315 315
298 298 299 298 305 306 307 307 308 310 311 313 313 312 312 315 315 315 312 309 311 310 312 312 314 315 318 314 310 310 308 310 313 314 315 313 315 313 312 311 310 313 316 315 316
298 298 298 302 298 300 305 308 308 307 310 312 313 313 314 316 315 315 312 311 309 309 311 314 316 313 315 312 310 310 310 310 313 313 313 315 314 315 313 311 312 316 317 315 316
298 296 298 299 300 302 302 301 305 308 309 309 312 312 312 314 314 314 313 311 313 309 311 312 315 314 315 314 312 314 309 311 311 312 313 313 314 314 314 314 312 314 315 315 316
297 298 298 298 297 298 299 303 303 303 304 307 309 310 313 313 313 313 313 313 313 313 311 314 313 314 318 314 314 317 314 315 314 313 313 313 314 314 313 312 313 313 314 314 315

GFSSW_850_thetae_051.txt.gz
Theta_e
307 307 307 307 307 308 308 308 309 309 310 310 311 311 312 313 313 313 312 312 311 313 312 312 313 313 313 315 315 313 310 311 311 311 314 311 312 311 313 314 316 316 316 317 317
307 307 307 307 308 308 308 309 309 309 310 310 311 312 312 313 314 314 314 313 312 311 311 312 313 313 314 314 313 309 308 311 309 309 312 312 313 312 313 313 314 314 316 316 318
307 307 308 308 308 308 308 308 309 309 310 310 311 311 312 314 315 315 313 313 313 311 311 313 313 314 314 314 313 308 308 309 312 313 313 312 312 313 312 311 314 315 315 316 317
308 308 308 308 308 308 308 308 308 309 309 310 310 311 312 314 310 312 311 311 312 311 312 313 314 314 311 312 312 312 311 311 313 314 313 311 313 312 312 315 315 315 315 315 316
308 308 308 309 309 309 309 309 309 308 308 309 310 311 312 314 316 315 311 311 311 311 312 313 313 313 310 313 312 311 311 313 314 314 314 313 313 312 313 315 315 315 316 316 315
309 309 309 309 309 309 309 309 309 309 309 309 309 309 311 312 315 317 315 311 311 312 312 313 313 313 313 312 310 313 313 313 314 314 313 313 313 314 315 315 315 315 316 316 315
310 310 310 310 310 310 309 309 309 309 309 309 310 309 310 311 313 317 316 312 312 313 313 313 314 314 313 312 313 312 312 311 311 313 313 313 311 311 314 315 315 315 315 315 316
314 312 310 310 310 310 310 310 309 309 309 309 309 309 310 311 312 315 317 314 312 312 313 313 313 315 314 312 311 310 308 312 310 311 312 312 312 310 312 312 314 315 315 315 316
321 319 317 312 309 310 310 310 310 310 309 309 309 309 309 310 312 315 316 315 314 313 313 312 312 313 312 309 310 307 311 311 311 310 310 310 311 310 313 312 313 313 314 314 315
322 322 322 321 316 312 309 308 309 309 309 309 309 309 310 311 312 313 316 316 315 314 313 313 313 308 305 309 310 311 312 310 311 311 310 310 309 308 313 311 313 314 315 315 314
322 323 323 323 323 322 317 310 307 307 307 309 309 309 310 311 313 314 315 315 314 313 310 310 310 311 309 309 309 308 310 311 310 310 311 310 309 309 313 311 311 314 316 316 317
320 321 322 322 322 322 323 311 307 311 310 309 308 309 311 312 314 315 315 314 313 310 309 308 310 309 308 307 310 310 312 311 309 309 310 310 311 309 309 312 313 315 316 317 317
320 321 322 322 321 321 321 322 310 310 309 310 310 309 309 310 313 314 315 314 310 309 309 310 311 308 309 309 310 310 310 310 312 310 308 308 310 309 309 309 312 314 316 316 317
317 318 320 322 321 321 322 321 318 309 309 310 309 311 311 311 312 313 314 314 311 311 307 310 310 310 310 310 309 312 308 309 311 312 312 309 312 310 310 309 308 314 316 317 317
312 315 317 319 319 318 321 321 319 313 324 312 309 311 311 310 310 312 312 313 310 310 310 310 310 311 311 311 309 311 308 309 310 311 311 310 312 312 309 311 310 311 315 316 316
309 310 315 317 318 319 320 320 313 319 322 313 311 311 311 310 310 311 312 312 311 310 310 309 310 309 310 309 310 307 309 308 307 309 313 310 312 310 310 311 311 311 315 316 316
305 308 311 316 316 318 319 315 315 317 316 315 313 310 311 310 310 310 310 310 310 312 311 310 310 309 310 310 309 310 311 312 310 311 315 308 311 313 310 309 309 311 315 316 314
302 305 308 314 316 316 316 313 317 313 316 311 311 311 312 310 309 309 309 311 309 308 307 311 310 309 308 310 311 309 311 311 310 309 309 308 312 312 309 310 312 312 313 314 314
296 299 303 308 313 315 313 314 317 312 312 314 313 314 313 312 310 310 309 309 309 306 309 308 309 308 307 309 310 310 312 310 310 296 308 309 308 308 307 307 309 313 312 314 315
298 297 295 303 309 313 314 314 315 312 311 313 318 315 315 313 311 309 308 308 310 308 309 309 310 308 309 310 309 310 309 312 309 311 310 310 309 313 313 312 310 308 312 314 314
298 297 300 297 306 310 313 313 312 313 312 313 314 316 313 313 311 310 311 308 307 308 310 309 310 309 308 309 310 311 311 310 310 309 310 309 312 306 310 309 309 308 312 314 316
297 298 303 305 307 308 309 309 311 311 313 312 312 314 313 312 313 311 310 309 309 308 310 309 310 308 309 308 306 308 310 309 311 310 308 309 314 308 309 309 310 310 313 315 316
298 298 298 306 304 305 305 306 308 310 312 312 313 311 313 313 315 312 310 310 309 309 310 310 312 308 311 310 306 309 307 309 308 307 310 312 315 306 307 309 311 312 314 315 315
298 297 298 301 304 303 303 304 306 308 308 310 312 312 313 314 314 314 311 309 310 310 311 312 314 314 317 313 309 310 308 309 312 313 314 311 314 312 311 311 310 313 315 315 316
298 298 298 296 298 300 304 306 305 305 307 309 309 312 313 314 314 315 313 311 309 309 310 312 315 314 315 313 309 309 310 309 312 313 314 315 313 313 312 310 312 314 315 315 316
298 297 297 297 300 297 298 300 304 305 307 307 307 308 309 312 313 312 312 312 313 308 309 310 315 312 314 313 313 312 309 309 310 312 312 313 313 313 313 313 311 312 313 314 315
297 297 297 297 296 297 297 301 300 299 300 301 302 303 305 308 310 311 311 312 312 313 312 312 312 314 317 314 312 315 313 313 312 310 311 312 312 312 312 312 312 312 313 313 314

GFSSW_850_thetae_054.txt.gz
Theta_e
308 307 307 307 307 308 308 308 309 309 309 310 311 311 312 312 313 312 311 313 311 313 312 312 313 313 315 316 316 315 320 321 320 319 319 314 316 312 313 315 316 317 316 317 319
307 307 307 307 307 308 308 308 309 309 310 310 311 311 312 313 313 313 312 312 311 312 312 312 313 313 314 314 314 317 319 319 317 317 318 315 316 315 315 315 316 315 316 316 318
307 307 307 307 308 308 308 308 309 309 309 310 311 311 312 313 314 314 313 313 312 311 311 312 313 314 315 314 314 313 317 314 314 314 314 315 314 314 315 317 317 317 316 315 317
307 307 307 307 308 308 308 308 308 308 309 310 310 311 312 314 313 313 312 312 313 311 311 313 314 314 316 316 313 315 312 314 315 315 314 315 314 314 314 318 315 315 315 315 315
308 308 308 308 308 308 308 308 308 308 308 309 309 310 312 314 315 313 310 311 312 312 311 313 313 314 316 315 314 315 314 313 314 314 313 313 314 315 314 315 315 315 315 315 315
308 309 309 309 309 309 309 309 309 309 309 309 309 309 311 313 314 316 312 311 311 311 312 312 313 313 314 314 314 314 314 314 314 314 314 315 316 314 316 316 315 315 315 315 315
309 310 310 310 309 309 309 309 309 309 309 309 309 309 310 311 313 317 315 311 312 312 312 313 313 314 314 315 313 312 316 315 314 314 315 313 316 315 316 315 314 315 315 315 316
313 311 310 310 310 310 310 310 309 309 309 309 309 309 309 310 312 316 316 313 312 313 313 313 314 314 314 312 314 316 316 318 314 313 314 314 318 316 312 312 314 315 315 315 316
319 316 314 311 310 310 310 310 310 310 310 309 309 309 309 310 312 315 316 314 312 312 312 313 313 313 313 317 317 316 317 317 316 313 314 315 318 316 313 312 314 315 314 314 315
322 322 320 318 315 313 310 309 309 310 310 309 309 309 309 311 311 314 315 314 314 313 313 313 313 316 315 317 315 317 317 315 317 315 313 316 316 317 315 312 315 316 316 315 315
320 321 322 322 323 322 319 313 308 307 307 309 309 309 309 311 312 314 316 315 314 313 316 312 316 317 317 316 313 314 315 315 315 313 315 317 317 317 316 316 315 316 316 316 317
319 321 321 321 322 322 322 317 308 311 312 309 308 309 311 311 313 314 315 314 314 315 312 314 316 316 313 312 314 314 316 316 315 312 313 316 316 317 316 316 316 317 317 317 317
320 319 320 320 319 320 321 321 318 310 309 310 310 309 309 311 312 314 314 313 313 313 314 315 314 311 313 312 314 315 316 316 315 313 313 314 316 318 316 314 314 315 315 315 316
316 319 320 321 320 320 321 320 322 311 316 315 310 312 310 310 312 312 314 314 312 315 313 314 312 312 313 314 314 316 314 313 314 316 316 313 315 316 317 316 315 315 316 316 316
313 315 318 319 318 320 320 321 319 316 327 314 310 311 311 311 311 312 312 313 315 313 314 315 313 313 314 315 313 315 312 313 314 317 316 316 316 316 313 316 316 317 316 317 316
309 310 316 317 318 319 319 321 314 320 325 316 312 312 312 310 310 311 311 312 311 312 312 312 309 312 314 310 312 311 314 314 314 316 318 316 316 316 316 316 316 316 316 316 315
305 308 311 316 317 318 319 318 317 318 316 317 313 312 312 311 311 312 313 313 313 314 314 312 313 311 310 313 311 313 316 315 318 319 318 312 315 315 315 315 314 315 316 315 314
297 305 308 313 314 316 315 315 319 317 317 313 313 312 314 312 311 311 313 314 312 311 312 314 313 313 312 315 315 315 316 316 319 317 315 311 316 317 315 313 313 313 314 313 314
297 296 304 310 313 314 313 315 318 316 315 315 314 315 314 312 312 312 313 314 314 311 312 313 312 310 309 310 314 314 315 315 314 308 315 314 315 314 314 312 312 313 313 313 314
298 297 296 304 311 313 314 314 314 314 314 314 318 317 318 315 313 312 312 312 312 311 312 311 312 310 309 310 310 312 313 315 315 322 319 314 315 316 317 317 317 314 314 314 315
298 297 296 299 307 311 313 313 312 312 313 315 317 318 317 316 314 312 314 312 311 311 311 313 313 311 310 312 314 313 313 313 314 315 319 317 315 316 316 316 316 315 313 314 315
298 300 301 299 308 309 311 311 311 312 312 313 314 315 316 316 316 317 317 314 309 310 312 312 313 314 313 309 308 310 314 314 316 316 314 315 317 312 315 316 313 314 314 315 315
298 298 301 306 305 308 307 308 309 311 313 313 313 314 315 315 315 315 315 312 310 311 314 313 314 318 317 312 309 311 312 313 314 313 319 320 318 313 312 313 313 313 314 314 315
298 300 298 304 304 303 304 306 307 307 309 311 312 313 314 314 314 314 314 312 310 310 312 312 313 316 319 318 314 313 312 312 314 317 317 317 316 316 315 315 315 314 313 313 313
298 298 299 301 302 303 303 303 303 305 307 308 308 310 313 313 313 314 314 314 311 309 309 312 316 316 316 316 312 314 314 312 313 315 317 317 316 316 316 316 315 314 314 314 315
298 298 297 298 299 301 302 304 305 305 305 305 306 308 309 311 312 313 313 314 314 310 311 311 315 315 316 316 316 317 317 315 314 315 315 315 316 316 316 315 313 312 313 313 314
298 297 298 298 299 300 302 302 302 304 302 304 305 302 303 305 305 305 307 309 311 312 313 312 312 312 317 316 315 316 316 316 315 315 316 316 316 316 316 315 314 313 313 313 312

GFSSW_850_thetae_057.txt.gz
Theta_e
308 308 308 308 307 307 308 308 309 309 309 310 311 311 312 312 312 312 312 315 313 313 313 312 313 314 316 318 317 317 321 321 322 321 320 318 319 317 317 318 318 320 319 322 325
307 307 307 307 307 308 308 308 309 309 310 310 311 311 312 312 313 313 311 312 312 312 312 312 315 315 317 319 318 319 321 321 320 320 321 318 318 318 317 317 318 318 317 318 328
307 307 307 307 307 308 308 308 309 309 309 310 310 311 312 313 316 316 313 312 311 311 312 312 314 315 316 317 318 319 320 319 318 318 318 319 317 317 317 319 318 319 318 317 325
307 307 307 307 307 308 308 308 308 308 309 309 310 311 312 314 316 314 313 313 313 311 311 312 314 315 316 317 317 317 316 317 317 317 317 318 318 317 317 319 318 318 318 317 324
307 307 307 307 307 307 308 308 308 308 308 309 309 310 312 315 316 312 312 311 312 311 312 314 315 315 316 316 315 316 316 316 316 316 316 315 317 318 318 318 317 316 316 317 320
307 308 308 308 308 308 308 308 308 309 308 308 309 309 312 315 314 314 311 311 311 312 311 313 314 315 316 316 316 316 316 316 316 316 316 316 317 316 318 318 318 316 316 316 318
308 309 309 309 309 309 309 309 309 309 309 309 309 309 310 314 312 316 313 311 311 312 312 312 313 315 316 317 315 316 316 316 316 316 317 315 317 317 316 316 317 317 316 316 317
311 310 310 310 310 310 310 310 309 309 309 309 309 309 312 310 312 317 314 312 312 312 312 313 313 314 317 315 316 317 317 318 318 316 316 317 317 318 317 316 316 317 317 317 317
317 315 312 311 310 310 310 310 310 310 310 309 309 309 312 310 312 316 314 313 312 313 313 313 314 316 315 318 318 318 316 318 319 316 317 317 319 319 316 315 316 316 317 317 317
321 320 318 315 313 312 310 310 310 310 310 310 309 310 310 312 311 314 314 313 313 312 313 314 315 316 317 317 317 317 317 317 318 317 316 318 318 318 318 317 317 318 318 318 317
321 322 322 322 321 320 317 312 309 308 308 312 310 310 309 311 312 314 314 313 313 314 316 315 315 315 316 317 317 316 317 317 317 316 316 317 318 318 318 318 318 318 318 317 318
320 320 322 321 322 322 322 311 308 310 313 309 308 309 310 312 314 314 315 315 315 317 316 315 316 317 317 317 316 316 316 317 317 316 315 317 317 318 318 318 318 318 318 318 318
319 319 320 322 321 320 320 321 319 316 313 312 310 309 309 311 314 315 314 315 316 317 316 315 316 315 315 315 316 316 317 317 317 316 316 317 317 317 318 318 317 317 317 317 317
315 320 319 320 320 319 319 319 321 319 322 319 313 313 309 311 312 314 314 314 314 316 315 315 315 314 315 315 315 315 316 316 316 316 316 316 317 316 317 318 319 318 318 318 318
314 315 319 320 320 320 319 320 321 318 324 317 312 311 311 312 312 313 313 313 316 315 315 315 315 314 315 315 315 316 315 316 316 317 318 317 317 317 318 318 318 318 318 318 318
310 311 316 318 319 319 320 321 315 323 325 318 314 314 313 311 312 312 312 312 313 315 314 315 312 315 315 313 315 314 316 317 317 317 317 316 317 317 317 317 318 318 318 318 317
305 309 314 317 317 318 319 316 321 321 319 320 315 314 315 314 312 313 314 314 314 314 314 315 314 313 313 315 314 316 316 315 317 320 318 316 317 317 317 317 317 317 317 317 316
298 306 309 314 316 316 317 316 320 319 321 315 315 314 316 314 313 313 315 315 314 314 314 315 315 314 313 316 316 316 316 316 318 319 318 314 317 316 317 317 317 316 316 316 316
297 297 306 311 314 315 314 316 318 318 317 318 315 316 316 314 315 313 314 315 316 314 314 314 314 314 313 314 315 316 317 317 318 316 316 315 316 316 317 315 315 315 315 315 316
298 297 296 309 313 314 314 315 315 314 316 317 319 318 319 316 314 314 315 315 315 314 314 314 314 312 312 312 313 314 315 315 315 324 319 315 316 317 318 317 317 317 317 317 316
298 300 297 302 310 311 314 313 312 313 315 317 316 318 319 318 316 315 316 314 313 313 313 314 313 313 311 313 314 313 313 314 315 316 318 318 316 317 317 317 317 318 317 316 316
299 301 299 302 310 311 312 311 312 312 313 314 315 316 317 317 317 318 317 316 311 312 313 313 314 316 313 312 311 314 314 314 316 317 316 316 318 314 316 317 317 317 315 315 315
300 301 300 306 306 310 309 310 311 313 313 313 314 314 315 316 318 317 317 316 313 314 314 313 315 319 316 314 311 313 314 313 315 315 320 319 316 315 316 316 316 316 316 315 315
299 301 302 303 305 305 306 307 309 308 311 313 314 313 313 315 315 316 316 315 312 314 313 313 314 318 320 319 316 314 313 314 314 316 317 317 317 317 317 317 317 316 315 315 315
299 300 301 303 303 305 304 304 306 306 308 309 311 313 314 314 314 314 314 314 312 311 310 313 313 315 317 317 316 316 315 315 315 315 316 316 316 317 317 317 317 317 316 316 315
299 299 299 301 302 304 304 303 303 304 306 306 308 308 311 312 311 311 312 313 313 313 314 312 315 315 316 316 317 317 317 316 315 315 316 316 316 316 316 317 317 316 316 316 315
298 298 300 299 301 303 303 303 304 303 304 303 305 306 307 308 307 306 306 308 309 310 313 312 312 313 315 314 314 316 316 317 317 317 317 318 317 317 317 316 316 316 316 316 315

GFSSW_850_thetae_060.txt.gz
Theta_e
308 308 308 308 308 308 308 308 308 309 309 310 310 311 311 312 312 312 313 316 314 314 313 312 313 315 317 319 318 318 319 319 321 321 320 319 319 318 318 318 318 319 319 323 324
308 307 307 307 307 307 308 308 308 309 309 310 310 311 311 312 313 314 314 313 313 313 312 312 315 314 318 319 319 319 319 320 319 318 319 318 319 317 317 317 318 319 318 324 324
307 307 307 307 307 307 308 308 308 309 309 310 310 311 311 313 315 317 314 311 312 312 312 313 315 315 317 318 319 320 319 317 318 317 318 319 318 318 317 316 318 318 318 322 324
307 307 307 307 307 307 308 308 308 309 309 309 310 310 311 314 319 315 313 312 312 311 312 312 315 315 316 317 318 317 318 317 318 317 317 318 318 318 317 318 318 319 319 318 319
307 307 307 307 307 307 307 308 308 308 308 309 309 310 312 315 318 313 313 312 312 311 311 313 315 315 316 316 316 315 316 315 317 316 316 316 316 317 318 318 318 318 318 318 318
307 307 307 307 307 307 308 308 308 308 308 308 309 310 312 316 315 313 310 311 312 311 312 314 314 315 316 316 316 316 316 316 316 317 316 316 317 317 318 317 318 318 317 317 317
307 307 308 308 308 308 308 309 309 309 309 309 309 309 311 315 313 315 311 311 311 313 313 312 313 314 316 316 316 316 316 316 316 316 316 315 315 314 316 317 317 318 317 316 317
308 308 309 309 309 309 309 309 309 309 309 309 309 309 313 311 311 316 313 312 312 312 313 312 312 316 317 316 316 316 316 317 316 316 316 316 314 316 317 316 316 316 317 317 316
312 311 310 310 310 310 310 310 310 310 309 309 309 310 313 310 312 315 314 313 312 312 312 313 315 316 315 316 316 316 314 314 317 316 316 315 316 317 317 316 316 316 316 316 317
319 318 315 313 313 312 311 310 310 310 310 310 309 310 310 313 312 315 314 313 313 312 313 314 315 316 315 314 314 317 316 315 318 316 315 315 314 315 317 317 317 317 318 317 317
321 321 320 319 319 318 317 312 309 308 309 312 312 310 310 311 312 314 314 312 313 314 314 315 313 313 314 314 315 316 315 316 316 314 316 315 314 314 316 317 317 318 318 317 317
320 321 321 321 322 322 322 312 309 312 313 311 309 310 310 312 314 314 313 314 314 315 316 314 313 314 316 316 316 316 315 314 315 315 314 314 313 313 315 315 317 317 317 317 317
319 319 319 319 322 321 322 319 316 317 314 313 310 309 309 310 314 314 314 315 316 316 315 316 315 315 316 315 316 315 315 314 315 315 314 314 313 315 315 315 316 317 317 317 317
315 319 319 320 320 320 320 319 320 320 321 317 312 312 309 312 313 315 314 315 314 315 315 315 314 314 314 315 314 314 315 315 315 315 313 316 313 314 313 312 314 317 317 317 317
313 313 317 318 320 319 321 319 319 319 323 317 311 312 311 311 311 313 314 314 315 315 314 314 313 314 315 315 314 315 315 316 316 316 316 315 314 312 313 313 314 316 318 318 318
311 313 312 317 319 320 320 320 319 321 322 317 314 314 312 311 312 312 312 313 313 315 314 314 312 314 314 313 314 314 316 316 316 315 314 314 313 311 312 314 315 317 318 318 317
308 311 312 313 317 319 319 318 320 321 318 318 316 315 315 313 313 313 313 313 313 314 314 314 313 313 313 314 313 315 315 313 316 316 312 314 312 314 314 313 314 315 316 316 317
299 307 311 315 312 317 317 318 319 319 320 316 316 316 316 314 313 313 314 313 312 312 312 313 315 313 312 314 314 313 313 314 315 318 315 310 312 314 314 316 316 316 316 316 316
297 299 307 312 314 315 315 314 318 318 318 317 315 316 317 315 314 313 313 314 314 312 313 313 314 313 312 313 314 314 314 315 314 306 311 312 313 313 314 313 314 315 315 314 316
299 297 299 309 312 314 315 314 315 315 315 317 319 318 318 315 314 313 314 314 314 314 313 314 313 312 310 311 312 313 313 313 312 312 312 311 311 312 314 314 312 315 317 317 316
299 299 300 301 311 312 313 314 313 313 315 317 318 319 318 318 314 314 315 313 313 313 313 313 314 312 311 311 312 312 312 313 313 312 314 313 311 313 314 314 314 315 316 316 315
300 300 300 299 310 311 312 311 311 312 314 315 315 316 318 318 317 317 316 316 312 312 313 313 314 312 312 311 310 311 311 312 313 314 311 313 314 313 312 314 316 316 315 316 315
299 301 299 305 307 309 309 310 311 312 312 313 315 315 315 317 318 317 316 315 312 315 316 314 315 312 314 313 310 312 312 312 312 310 313 311 313 311 312 313 315 316 315 316 316
299 301 302 303 305 306 308 308 309 309 311 312 313 313 314 314 316 316 316 315 313 314 314 314 314 315 315 318 316 313 312 312 312 311 313 313 314 313 312 312 313 315 316 316 316
298 300 301 301 301 305 306 306 307 309 309 309 312 313 313 314 314 314 314 312 312 312 313 313 314 313 314 315 315 316 316 315 315 314 314 313 313 313 313 312 314 316 315 316 316
299 299 300 301 302 302 305 304 305 306 307 308 309 311 311 313 312 313 312 312 314 311 312 312 314 313 313 314 315 315 315 314 313 313 313 314 314 313 313 314 314 314 315 315 315
298 299 299 300 301 302 302 303 303 304 305 305 306 306 306 307 307 306 307 309 310 311 313 312 311 312 314 311 312 315 313 313 314 314 314 314 313 312 313 314 315 315 315 314 315

GFSSW_850_thetae_063.txt.gz
Theta_e
308 308 308 308 308 307 308 308 308 308 309 310 310 311 311 311 312 311 312 314 314 315 313 312 313 315 318 319 318 318 313 314 317 318 317 318 317 318 318 318 318 318 320 322 323
308 308 308 307 307 307 308 308 308 309 309 310 310 311 311 312 312 312 313 315 315 313 312 313 314 316 318 319 318 315 311 316 316 315 316 317 317 317 317 317 318 319 318 321 323
308 307 307 307 307 307 308 308 308 309 309 309 310 310 311 312 314 315 313 312 313 312 312 315 315 316 316 318 318 317 314 316 316 316 317 317 317 317 315 314 316 317 318 323 323
307 307 307 307 307 307 308 308 308 308 309 309 310 310 311 314 315 315 315 312 312 311 312 314 315 315 314 315 317 316 316 316 316 316 316 316 317 316 316 317 318 317 318 319 320
307 307 307 307 307 307 308 308 308 308 308 309 309 310 312 314 317 313 313 312 312 310 311 312 314 315 313 315 315 313 314 315 316 316 316 316 316 316 316 317 317 317 318 318 319
307 307 307 307 307 307 307 307 307 308 308 308 309 309 313 316 315 313 311 312 312 311 312 313 314 314 315 315 313 315 315 315 316 316 316 315 315 316 317 317 317 317 317 317 318
306 307 307 307 307 307 308 308 308 308 308 308 308 309 312 314 313 313 310 311 312 311 312 313 314 314 315 314 315 315 314 314 314 315 315 315 310 312 315 316 317 317 317 317 316
307 307 307 307 308 308 308 308 309 309 309 309 309 309 312 312 312 314 311 311 311 312 312 312 312 315 317 315 315 314 313 313 313 314 315 313 308 310 315 315 316 316 317 316 316
308 308 308 308 309 309 309 309 309 309 309 309 309 310 313 310 311 315 313 312 311 312 312 312 314 314 315 311 311 313 310 312 315 314 314 313 311 315 316 315 315 315 316 316 316
315 313 311 311 310 310 310 310 310 309 309 309 309 309 310 312 312 315 313 312 312 312 313 314 315 311 309 309 309 313 313 313 313 314 314 314 311 311 315 315 316 317 317 316 316
319 318 317 317 315 313 312 311 309 308 309 310 310 310 311 312 312 314 313 313 312 313 311 314 309 309 309 309 311 313 314 313 313 314 314 312 311 311 314 314 314 316 316 317 317
317 319 320 320 319 320 318 310 310 311 310 310 310 311 310 311 313 313 313 313 313 311 312 309 309 310 310 312 313 314 314 313 313 313 313 312 311 309 311 313 314 314 315 316 317
319 320 320 320 322 321 321 312 309 310 312 312 310 309 309 312 313 313 312 314 313 312 312 311 313 311 314 314 314 314 313 313 313 313 311 312 310 311 312 313 315 315 315 315 316
313 318 319 319 320 321 320 320 320 318 317 316 311 310 309 311 313 314 313 315 314 313 312 313 313 313 314 314 312 314 313 313 314 311 310 311 310 310 312 310 309 313 316 317 317
312 312 317 318 319 320 320 319 320 319 316 313 311 312 310 311 312 313 313 314 312 313 311 312 312 312 313 313 312 312 313 313 314 313 314 312 310 309 309 311 310 312 315 316 317
310 312 312 315 318 319 319 319 319 317 317 315 312 312 310 311 312 312 313 313 314 313 311 312 312 312 312 311 312 312 313 313 313 311 311 311 309 307 308 310 312 313 316 317 316
310 309 311 312 316 318 319 318 318 319 316 316 314 312 311 310 312 311 311 312 311 313 313 313 312 312 312 312 311 313 309 309 311 313 310 309 310 309 310 310 313 313 314 316 316
300 309 311 312 310 314 317 316 318 316 317 314 314 313 314 311 312 312 311 311 310 311 309 312 311 311 311 311 312 312 309 309 311 314 311 309 311 312 310 312 315 315 314 314 314
298 301 309 311 309 311 315 315 317 316 316 315 314 315 314 313 311 312 311 311 310 309 310 310 311 310 310 311 311 312 313 311 311 299 308 309 309 309 310 311 313 313 314 316 316
299 297 302 309 313 313 312 312 314 314 315 313 316 314 314 313 312 311 310 310 313 309 310 312 313 309 310 311 310 311 311 312 309 308 309 308 308 310 310 311 309 312 315 316 316
299 297 299 303 311 312 311 313 313 313 314 318 318 316 314 313 311 311 312 311 311 311 310 310 311 310 310 310 311 311 311 311 311 310 311 310 309 306 309 311 311 313 315 315 315
300 298 300 299 310 311 312 311 311 312 314 315 316 316 317 314 312 312 314 313 311 311 312 311 311 309 310 309 309 309 309 310 311 311 308 310 312 311 311 312 314 314 315 315 315
299 300 299 305 307 307 309 311 311 311 312 314 314 314 315 317 318 315 314 314 313 313 313 312 312 306 311 311 309 311 310 310 310 307 310 309 312 308 309 311 312 313 314 315 315
299 298 301 303 304 304 307 308 310 310 311 311 312 312 313 316 315 316 316 312 313 314 314 313 312 311 311 314 314 312 314 313 311 310 311 311 312 311 310 309 310 312 313 315 314
299 298 299 298 299 303 304 306 307 308 309 310 310 312 312 313 314 315 315 312 312 314 313 313 314 313 312 313 315 316 315 314 314 312 313 312 312 312 311 311 312 312 313 313 314
298 297 300 299 299 300 301 303 305 306 307 308 309 310 311 312 312 312 313 313 312 311 312 311 312 313 313 312 313 314 314 313 314 313 311 311 311 311 311 311 311 312 313 314 314
298 298 299 298 298 298 299 302 302 304 305 306 306 307 306 307 307 308 309 309 309 311 313 312 311 312 313 311 312 313 311 312 313 312 312 313 312 311 311 311 312 314 314 312 311

GFSSW_850_thetae_069.txt.gz
Theta_e
308 309 309 308 308 308 308 308 308 308 309 309 310 310 311 311 311 310 311 311 313 316 314 313 313 314 315 318 318 317 311 313 314 313 316 314 314 315 316 317 318 319 320 321 329
307 308 308 307 307 307 308 308 308 308 309 309 310 310 311 312 312 311 311 313 315 315 314 312 313 315 317 317 317 313 310 312 313 312 314 315 315 316 316 317 317 318 319 321 329
307 308 308 307 307 307 308 308 308 308 309 309 310 310 311 312 313 311 312 314 313 315 312 312 314 317 316 316 316 312 310 310 314 315 315 315 315 315 314 314 316 317 317 321 326
307 308 307 307 307 307 308 308 308 308 309 309 310 310 311 313 310 312 313 314 313 312 312 314 315 315 313 314 316 315 314 313 315 315 316 313 314 314 314 316 316 317 316 318 322
307 308 307 307 307 307 307 308 308 308 308 309 309 310 312 315 316 315 313 312 312 312 313 314 315 313 312 313 314 313 312 315 315 315 314 315 314 313 314 316 316 317 316 317 319
308 307 307 307 307 307 307 308 308 308 308 308 309 310 314 312 316 313 314 311 311 312 312 314 314 314 313 312 312 312 313 313 314 313 314 313 312 314 314 315 315 316 316 317 318
309 307 307 307 307 307 307 307 307 307 307 308 308 310 315 312 315 311 312 311 311 311 311 313 313 313 313 313 314 313 312 311 312 313 313 313 310 310 313 314 314 315 316 317 317
307 307 307 307 307 307 307 307 307 307 308 308 308 310 312 314 314 311 311 311 311 311 312 313 313 314 314 313 311 310 307 308 309 312 313 309 306 308 314 313 313 314 315 316 317
307 307 307 307 307 307 307 308 308 308 308 308 308 309 310 313 313 311 310 311 311 312 312 313 314 314 313 308 307 307 306 309 309 311 312 310 310 309 314 314 313 313 314 315 315
307 307 307 307 307 307 308 308 308 308 308 308 309 310 310 311 313 312 311 311 312 313 312 313 313 307 305 304 305 310 309 310 309 311 312 311 310 308 313 313 313 314 314 314 314
309 308 308 308 308 308 309 310 308 309 309 308 309 309 310 312 313 312 312 312 311 312 309 310 309 308 308 307 306 307 310 311 311 312 312 310 309 308 313 312 312 314 314 314 314
315 312 310 310 310 310 311 310 308 309 309 309 309 310 312 313 313 312 312 312 312 309 309 308 308 308 307 308 310 311 311 311 311 312 311 310 309 308 309 310 312 313 313 314 314
315 316 314 315 315 314 313 310 309 309 308 309 309 311 312 312 312 312 312 312 308 309 308 308 309 307 309 309 309 310 310 310 310 310 308 307 305 305 307 309 312 313 313 312 312
316 316 317 317 317 319 317 311 309 311 310 311 310 309 310 312 312 312 312 312 311 309 308 309 310 308 310 311 309 311 309 309 311 309 308 307 306 306 307 306 306 311 311 311 313
315 316 317 317 319 320 318 312 311 314 309 309 309 310 311 311 311 312 312 313 311 310 309 310 310 310 311 311 309 311 310 309 310 309 311 310 308 306 305 309 306 308 312 315 315
310 316 316 318 319 319 319 317 316 314 311 312 310 310 310 310 311 311 313 312 312 311 309 310 310 310 309 310 310 308 308 307 308 306 307 308 306 304 305 307 310 311 313 314 314
309 311 314 317 318 319 320 319 316 309 311 313 311 309 309 310 311 310 311 311 310 311 311 311 311 310 310 310 311 308 306 306 307 308 307 306 307 306 306 306 307 307 311 313 314
308 309 310 313 317 318 319 315 313 310 313 311 311 308 309 310 310 310 310 311 309 307 308 311 313 311 310 310 311 308 307 307 306 307 306 307 310 309 307 308 309 310 312 314 314
302 307 308 310 312 317 317 318 313 313 313 312 310 310 311 310 310 310 310 309 309 306 309 309 309 309 309 309 310 311 308 306 306 294 305 306 306 306 306 305 311 313 314 314 314
299 302 307 308 312 311 313 315 315 313 313 312 314 312 312 310 311 310 309 308 309 307 307 308 309 309 309 309 309 309 308 310 306 304 304 305 307 306 309 309 310 310 312 313 314
299 298 302 309 308 309 310 314 312 312 313 313 313 313 311 310 310 310 310 309 308 307 308 306 309 310 309 309 310 310 310 308 308 306 306 304 305 303 307 309 308 310 313 313 313
299 296 301 307 309 304 309 309 311 312 312 315 315 313 311 310 309 309 310 309 309 307 308 308 308 308 310 307 307 308 309 308 308 308 306 307 308 305 308 308 310 311 312 313 314
299 299 300 304 309 307 309 311 311 312 313 314 315 315 314 311 313 310 310 311 309 308 309 309 308 307 311 309 308 309 308 308 306 306 308 309 308 305 306 306 309 310 310 311 312
298 299 300 303 304 307 311 311 312 311 312 313 314 314 315 316 315 314 313 311 312 312 311 310 308 309 312 311 308 309 308 307 309 308 310 308 308 307 305 307 309 310 311 310 311
299 297 298 298 303 304 307 310 311 311 310 310 311 313 315 317 316 316 314 312 312 312 312 311 309 311 312 312 312 312 310 311 308 310 310 310 307 307 307 308 310 310 310 312 312
299 297 298 297 299 303 304 306 310 309 310 310 310 311 313 313 313 315 314 314 314 312 313 310 311 311 311 312 313 314 312 311 311 312 311 312 312 308 311 311 310 310 309 308 308
298 297 297 297 297 303 304 303 305 307 306 308 309 309 311 309 311 312 313 313 313 312 313 312 311 310 313 311 312 314 311 311 311 310 311 313 311 308 309 309 310 310 308 305 304

GFSSW_850_thetae_072.txt.gz
Theta_e
316 312 309 310 309 308 308 309 309 309 309 310 309 309 310 311 311 311 310 311 311 313 316 313 313 314 315 317 317 317 311 313 312 312 315 313 314 315 316 316 318 321 319 321 327
313 311 309 309 308 308 308 308 308 308 309 309 309 310 311 311 311 311 310 311 310 316 314 313 313 314 317 317 316 312 310 312 311 310 313 313 314 315 315 316 317 317 318 321 327
310 311 309 308 307 307 308 308 308 308 308 309 310 310 311 311 313 311 310 310 314 315 313 312 313 315 316 316 315 311 311 310 313 314 314 314 314 314 314 313 316 317 317 320 326
312 309 309 308 307 307 307 308 308 308 309 309 310 310 310 313 310 312 310 311 313 315 312 313 314 315 313 313 315 314 312 312 314 314 314 314 314 313 313 316 315 316 317 317 322
314 309 309 308 307 307 307 308 308 308 309 309 309 310 311 314 316 314 311 313 313 313 312 313 315 314 312 312 313 312 312 313 314 314 314 314 314 313 314 315 315 316 316 317 318
314 311 308 307 307 307 307 308 308 308 308 309 309 309 314 313 314 314 313 313 313 312 313 314 315 314 312 311 312 311 312 313 313 313 313 312 312 314 313 314 315 315 316 316 318
313 312 308 307 307 307 307 308 308 308 308 308 308 309 315 313 315 312 314 311 311 312 313 314 314 313 313 311 312 311 311 310 312 312 312 313 309 309 312 312 314 315 315 316 317
314 313 308 307 307 307 307 307 307 307 307 307 308 310 313 314 314 310 312 311 310 311 312 313 313 313 313 312 310 309 305 308 308 311 312 309 306 307 311 312 312 314 314 315 316
313 312 307 307 307 307 307 307 307 307 308 308 308 311 310 313 314 310 311 311 310 312 312 313 314 312 312 307 306 305 306 307 308 310 311 309 309 309 312 312 313 313 313 314 314
313 309 307 307 307 307 307 307 308 308 308 308 309 309 309 313 313 311 311 311 312 312 312 313 312 307 305 304 306 307 308 308 308 310 311 310 309 307 312 312 313 314 314 313 314
312 308 307 307 307 307 308 310 308 309 308 308 309 309 309 312 312 311 311 312 312 312 309 309 307 308 308 306 305 305 307 309 310 310 311 309 308 307 312 310 311 313 314 313 314
311 309 308 307 308 308 310 309 308 308 308 309 309 309 311 312 312 312 311 311 311 308 308 307 307 306 306 307 308 308 309 310 310 310 311 309 308 307 308 309 312 312 312 312 312
313 312 312 310 310 312 312 309 308 308 307 309 309 311 313 312 312 312 312 311 307 308 308 307 308 306 307 307 309 309 308 309 310 309 306 305 305 304 305 307 309 310 310 310 310
313 313 316 316 316 314 315 310 309 311 307 309 309 309 312 312 311 312 311 311 308 308 306 308 307 307 308 308 306 308 308 308 310 308 308 306 305 305 305 304 306 309 311 312 313
313 315 314 316 317 317 314 311 310 313 310 308 308 309 312 311 311 311 311 312 308 308 307 308 308 308 310 310 308 309 308 308 308 308 310 309 307 306 303 308 308 310 311 312 313
314 314 316 317 319 316 315 311 312 311 309 311 309 310 309 310 311 311 313 312 311 310 308 309 309 309 309 308 308 306 306 305 305 304 306 307 306 305 305 307 308 307 309 312 313
310 314 316 316 317 318 318 315 313 308 309 312 309 309 308 310 311 310 310 310 309 310 311 310 310 310 310 309 309 306 305 306 307 307 306 305 306 305 306 305 306 307 310 313 314
307 310 314 315 316 318 318 314 309 308 310 310 309 308 309 310 310 310 309 311 309 307 308 311 312 310 309 309 310 306 306 307 306 305 305 306 308 307 306 306 307 310 312 313 314
307 308 309 314 315 317 317 315 310 310 312 310 308 309 309 309 310 310 309 310 309 306 309 309 308 309 309 308 310 309 307 304 304 292 304 305 304 305 304 308 309 311 312 313 313
303 306 307 309 312 316 316 314 312 312 311 309 311 309 309 308 310 309 309 308 309 306 307 308 309 308 308 309 309 308 306 309 304 302 304 303 305 304 309 310 308 309 310 312 312
299 301 306 308 309 308 316 314 312 312 313 312 312 311 309 309 308 309 309 308 307 307 307 306 309 309 309 309 308 308 308 306 306 305 305 303 304 301 308 307 307 308 311 311 312
299 297 302 307 306 300 308 309 311 312 312 313 313 311 309 308 309 309 309 308 308 307 308 307 308 310 309 307 306 307 307 306 306 307 303 305 305 305 305 307 309 310 311 312 311
299 299 301 305 308 306 307 310 311 313 313 314 315 314 311 310 311 308 308 309 308 307 308 307 307 305 310 309 307 308 307 305 305 305 307 306 306 304 305 307 309 310 311 312 311
298 299 299 302 304 307 310 311 311 311 313 313 314 314 314 314 313 311 311 310 310 309 309 309 307 307 309 309 308 309 307 306 308 308 308 307 307 307 305 305 308 309 310 310 312
298 297 298 300 303 305 309 310 312 312 311 311 312 314 315 316 315 314 312 311 311 311 311 309 308 310 312 309 308 308 307 306 308 308 309 308 307 309 307 303 308 309 310 311 311
298 296 297 297 297 304 306 309 310 310 310 310 310 312 313 315 315 315 313 313 313 312 312 310 310 310 310 311 312 313 310 307 308 310 310 310 309 307 309 309 308 309 310 310 309
298 297 298 297 297 304 306 306 309 308 308 309 309 310 312 312 311 312 312 312 312 312 312 312 309 307 308 310 312 311 310 309 309 309 309 311 310 307 308 308 309 307 305 304 304

GFSSW_850_thetae_075.txt.gz
Theta_e
314 316 316 317 316 316 317 312 310 312 309 315 316 319 312 311 311 311 310 311 311 312 312 316 314 313 315 316 317 316 313 314 314 312 314 312 314 314 315 316 319 321 319 323 327
314 315 316 316 314 311 312 309 308 308 309 314 310 310 310 311 310 311 311 310 311 313 314 314 313 315 316 316 316 313 312 314 310 310 312 312 314 315 315 315 316 318 318 321 327
314 314 315 316 311 309 308 308 308 308 309 310 309 310 311 311 311 310 310 310 311 312 315 315 313 316 316 315 314 310 313 310 312 313 313 313 313 314 314 313 316 317 317 319 326
314 313 315 316 310 308 308 308 308 308 309 310 309 310 310 311 310 311 311 310 311 314 313 313 314 315 313 313 314 313 311 312 314 313 313 313 313 313 314 316 315 316 316 318 324
314 314 315 315 310 307 307 308 308 308 309 309 309 310 310 313 315 314 311 311 314 314 313 312 315 313 311 312 313 312 311 313 313 313 313 313 313 313 313 315 315 315 315 316 319
314 313 315 315 309 307 307 308 308 308 309 309 309 309 310 314 312 314 312 312 314 313 312 313 314 313 312 311 312 310 312 312 312 312 312 312 311 313 312 313 314 314 315 316 317
314 313 314 314 309 307 307 308 308 308 308 308 308 308 312 313 313 313 313 313 313 312 312 313 314 314 312 310 311 310 310 310 311 312 311 312 309 310 312 312 313 314 314 315 316
313 313 314 313 307 307 307 307 308 307 307 307 308 309 313 313 313 311 314 311 311 311 313 313 313 313 313 311 309 307 306 310 308 310 311 308 308 306 310 311 311 313 314 314 315
313 313 313 310 307 307 307 307 307 307 307 307 308 310 311 312 313 310 312 311 310 311 312 313 313 311 311 307 307 306 308 307 307 309 310 308 307 308 311 311 311 312 313 313 313
312 313 313 308 307 307 307 307 307 307 307 308 309 310 309 313 313 310 311 311 311 312 313 313 312 306 304 305 309 308 306 307 307 309 310 310 308 307 311 311 312 313 314 313 314
312 312 311 308 307 307 307 309 309 308 309 309 309 309 309 312 312 310 311 312 312 312 309 309 308 309 308 305 304 304 305 307 308 309 310 309 307 307 311 310 312 314 314 313 313
312 312 309 307 307 307 309 309 308 308 308 308 308 310 311 312 311 311 311 312 310 307 307 307 307 307 305 305 305 306 307 309 309 309 309 308 309 307 307 309 310 310 311 311 311
312 311 308 307 308 309 309 308 308 308 307 308 309 310 312 312 311 311 311 310 307 308 307 307 307 305 306 307 308 308 307 308 309 307 305 304 305 304 304 306 307 307 308 308 309
311 311 311 311 314 311 311 309 308 309 308 308 309 310 312 311 311 311 311 310 308 307 305 307 306 305 305 307 306 309 307 307 308 307 307 305 306 305 305 304 306 309 310 311 312
312 311 313 313 314 314 310 310 309 311 310 308 308 309 313 310 310 311 311 311 307 307 306 307 306 307 307 307 305 307 306 307 306 307 308 308 307 306 303 307 309 306 310 311 311
311 313 313 314 315 313 311 310 311 311 310 309 308 309 309 310 310 310 312 311 309 308 307 309 308 308 308 306 307 305 305 304 304 304 307 307 305 305 305 306 307 306 309 312 312
311 314 314 314 315 315 314 311 312 309 308 310 308 308 308 309 310 309 309 309 308 308 309 309 310 309 308 308 307 305 305 307 308 307 307 303 305 306 305 305 305 306 311 312 313
306 312 314 314 316 318 315 311 306 308 308 308 308 307 309 309 310 309 309 309 308 307 307 310 311 309 308 308 309 305 306 307 307 306 306 305 307 307 304 306 306 310 311 312 312
304 309 311 314 315 318 315 312 308 308 310 308 307 309 309 309 310 310 309 310 308 305 308 308 308 308 308 308 309 308 307 304 304 292 303 305 304 303 306 307 308 309 310 311 311
304 305 308 311 314 316 314 311 309 309 309 308 309 308 308 308 310 309 309 308 309 306 307 308 309 308 308 308 307 307 304 308 304 303 304 302 303 304 309 308 306 307 309 311 311
300 304 305 308 311 312 314 310 312 312 310 310 309 309 307 309 308 309 309 308 307 306 306 305 309 309 308 309 308 307 307 305 305 305 305 303 304 300 306 306 306 307 310 311 312
298 301 304 305 304 301 312 311 311 311 312 314 310 310 307 308 308 309 309 308 308 307 307 306 308 310 310 307 306 307 307 306 307 306 302 304 305 304 305 306 307 308 309 310 311
299 299 302 305 306 305 304 311 311 312 311 313 314 311 308 308 309 308 308 308 307 307 308 307 308 308 311 309 306 307 306 304 303 305 305 306 305 303 305 306 307 308 309 309 310
298 299 299 301 301 306 307 310 312 311 312 313 313 313 311 310 312 308 308 309 307 307 309 308 306 308 309 308 307 308 306 305 307 307 306 306 307 306 305 305 308 309 308 309 310
298 297 298 302 302 305 308 309 311 312 311 312 313 313 313 313 313 311 311 310 310 310 308 308 308 307 310 307 307 307 306 305 307 307 308 306 307 308 307 304 308 309 309 310 310
298 297 297 296 298 305 307 309 310 311 311 312 312 312 313 314 313 313 311 311 311 310 310 308 306 309 309 310 311 310 306 307 308 306 308 304 306 306 309 307 308 309 309 310 309
298 297 298 297 298 305 306 308 309 308 309 309 310 311 312 312 310 311 311 311 311 311 311 309 307 304 304 310 310 308 309 307 307 306 308 309 307 306 305 305 307 309 309 308 306

GFSSW_850_thetae_078.txt.gz
Theta_e
314 314 315 316 317 317 317 318 319 317 317 321 321 317 316 316 312 311 310 311 310 312 311 313 315 315 314 315 317 317 322 322 320 319 318 316 318 314 315 318 321 322 321 324 326
315 314 315 315 316 317 317 317 318 318 315 316 321 318 318 316 317 311 311 310 311 312 311 316 315 314 316 316 315 319 321 322 318 317 318 317 318 316 317 317 318 320 319 322 325
315 314 315 315 316 316 317 316 316 314 315 316 317 315 312 312 311 312 313 311 310 311 313 314 314 315 317 315 315 315 320 316 314 314 315 317 316 315 317 318 318 318 319 321 327
315 314 315 315 316 316 316 315 310 309 310 315 313 312 313 311 312 319 312 311 310 311 314 314 314 315 317 317 314 317 312 314 314 313 314 317 315 316 316 317 316 316 317 319 325
315 314 314 314 315 316 316 310 308 308 309 311 310 311 310 311 311 313 312 311 311 311 314 314 314 315 317 316 314 316 313 313 313 313 313 313 315 316 315 315 315 315 315 317 329
315 314 313 315 316 315 314 308 308 309 309 309 310 310 310 312 310 314 312 311 312 313 313 313 314 314 313 315 316 313 314 313 312 313 313 315 313 314 314 314 314 314 314 318 326
315 314 311 314 314 315 311 308 308 309 309 309 309 309 311 312 312 312 312 312 313 313 313 312 314 313 313 313 311 312 315 314 313 313 313 312 313 314 312 311 312 313 314 315 316
314 314 312 314 314 314 308 308 308 308 308 308 308 310 312 310 312 313 313 313 312 312 312 313 313 313 313 311 311 313 314 316 311 312 312 311 316 310 310 310 312 312 313 314 315
315 314 313 314 314 309 308 308 308 307 307 307 307 311 312 312 314 311 313 312 311 312 312 313 312 311 311 314 314 312 315 314 309 311 313 312 315 311 311 311 312 312 312 313 314
314 313 313 313 310 308 308 308 307 307 307 307 308 311 309 313 313 310 311 311 311 311 312 312 312 312 311 314 314 313 312 310 311 312 312 313 313 312 312 311 314 314 314 313 313
314 313 312 313 308 308 308 308 309 309 308 309 309 310 308 312 311 310 311 311 311 312 314 311 315 315 314 314 311 313 311 312 310 310 312 313 313 314 313 312 314 314 314 313 313
313 312 313 311 308 308 308 309 308 308 310 308 308 309 311 311 311 311 311 312 312 313 311 313 313 314 308 308 309 311 311 312 312 310 312 312 314 315 313 313 312 312 312 311 311
313 312 312 310 308 309 309 308 308 307 308 308 309 311 311 311 311 311 311 311 311 311 311 313 311 308 309 309 310 311 312 312 313 310 309 310 313 311 308 308 307 309 308 308 309
312 312 311 309 311 311 311 308 308 308 309 308 309 310 311 311 311 311 311 310 309 311 310 311 306 309 310 311 312 312 310 311 312 313 313 309 312 313 310 310 311 311 311 310 311
312 311 310 310 312 314 309 308 308 308 312 309 308 309 312 311 310 311 310 310 310 309 310 310 308 309 311 311 310 311 310 311 311 314 313 312 312 313 308 312 312 310 310 310 311
311 310 310 311 312 310 309 310 310 312 314 310 308 310 311 310 310 310 311 309 308 310 311 310 307 309 310 307 309 308 311 311 311 313 313 313 312 312 311 310 311 309 311 311 311
312 311 312 312 312 310 309 311 314 316 309 310 309 311 312 311 311 311 311 311 311 311 311 311 310 310 309 310 309 310 313 313 313 314 313 307 310 313 308 308 309 310 311 311 311
309 311 313 313 314 311 311 314 313 312 309 309 310 311 311 311 311 311 311 311 310 310 311 312 312 311 310 312 312 313 312 314 314 312 312 307 312 313 307 306 306 309 310 310 311
306 311 312 313 315 315 313 313 312 310 311 310 310 311 311 310 311 312 312 312 312 310 311 311 310 309 308 309 311 310 310 308 309 302 313 311 311 310 309 309 309 310 310 310 309
304 306 310 311 315 316 315 312 310 309 309 310 310 311 311 311 312 312 312 312 312 309 308 310 311 309 309 309 308 310 308 312 310 317 315 309 309 313 312 311 311 310 310 309 309
302 302 305 310 314 315 315 312 312 311 308 310 310 309 310 311 311 312 313 310 311 309 307 309 314 310 309 311 312 308 309 308 310 311 317 313 311 309 313 313 312 311 310 309 309
302 304 301 307 310 308 314 312 312 312 312 313 310 309 309 310 311 311 311 311 309 308 309 309 311 313 312 308 307 307 310 310 313 311 307 310 313 306 311 312 312 310 308 308 310
298 300 301 302 308 306 307 312 312 313 313 314 313 310 308 310 310 311 310 308 308 309 309 310 313 314 312 311 308 310 309 309 309 310 311 317 313 306 308 309 309 309 308 309 310
298 301 300 301 300 305 307 312 313 311 313 313 314 312 310 309 310 310 310 309 307 309 309 309 309 313 313 312 312 311 309 307 310 312 311 311 311 309 309 310 309 308 308 308 309
298 299 299 305 303 303 307 308 313 314 312 313 314 314 312 311 311 310 311 311 309 308 308 310 313 309 310 309 311 311 310 308 310 311 311 312 310 312 311 311 310 309 308 308 309
297 298 297 297 300 304 305 306 309 312 313 314 315 314 314 313 312 312 312 312 312 310 309 308 312 311 312 310 310 310 311 310 310 311 310 309 310 310 311 310 309 308 308 307 307
298 297 298 298 300 305 306 306 308 308 309 311 313 314 315 312 311 310 311 311 312 311 310 311 311 312 314 311 312 314 311 311 311 311 310 310 310 308 309 308 309 309 308 307 307

GFSSW_850_thetae_081.txt.gz
Theta_e
314 314 316 316 317 318 320 321 320 318 318 320 319 315 316 318 315 313 313 313 311 312 311 312 315 314 316 317 318 319 322 324 323 321 321 320 320 318 318 320 322 323 323 327 334
315 314 315 317 317 318 319 319 319 319 317 319 319 315 315 315 318 314 316 316 311 310 311 313 315 315 317 317 318 320 323 323 322 320 321 320 320 319 319 320 320 321 325 332 333
315 314 314 315 317 317 318 318 318 319 315 316 320 317 317 318 318 321 320 315 311 311 312 314 315 316 317 317 318 320 323 321 319 318 319 320 319 319 319 319 319 321 325 332 333
316 315 313 315 316 317 317 318 318 319 319 316 317 319 317 315 321 323 323 320 311 311 313 313 315 316 318 318 318 319 316 318 317 316 318 319 319 318 319 318 318 319 322 330 331
316 315 314 315 315 316 316 317 317 317 316 315 318 314 313 314 315 318 323 320 312 311 312 314 315 316 318 318 317 319 316 316 315 315 318 317 318 318 318 317 315 315 321 328 330
317 315 314 315 315 315 316 316 316 315 312 314 314 313 312 313 313 313 319 316 312 311 312 314 315 316 316 318 318 317 317 316 315 315 315 318 317 316 317 315 315 315 319 324 328
318 315 314 314 315 315 316 316 315 311 310 313 311 311 313 312 312 311 314 312 311 311 313 314 314 314 316 316 314 316 317 316 316 315 316 315 316 317 314 313 315 315 318 320 325
318 315 314 312 315 315 316 315 311 310 310 310 312 311 312 311 312 313 311 312 312 313 312 312 313 314 316 313 314 316 318 318 316 315 315 314 319 318 312 312 314 315 316 318 322
317 315 314 313 315 315 315 313 310 310 309 309 310 312 311 311 311 312 313 312 313 311 312 312 313 314 313 315 316 315 317 318 314 314 315 314 317 312 313 313 313 314 315 315 316
317 315 314 312 314 315 314 310 309 309 308 308 310 310 310 312 313 312 312 312 311 312 311 312 314 315 315 317 318 317 317 316 317 314 313 315 315 314 313 314 315 315 314 315 314
317 315 314 312 314 313 312 311 312 313 312 309 309 311 310 312 313 311 311 311 312 313 314 313 315 315 315 316 317 317 316 315 314 313 314 316 316 315 314 314 315 316 316 316 315
315 314 313 313 314 312 311 311 309 309 311 309 308 310 311 312 311 311 310 312 312 314 314 314 315 315 315 312 314 315 315 315 314 313 314 315 315 315 314 315 315 316 316 315 314
315 314 313 312 312 312 313 311 308 308 309 308 309 310 311 311 312 311 311 312 313 314 314 314 314 313 312 312 313 314 314 315 314 313 313 313 314 315 313 311 311 311 312 311 312
313 313 312 312 312 312 314 309 308 308 308 309 309 310 311 312 312 311 311 312 313 314 313 314 309 312 313 313 313 313 312 314 315 314 313 313 314 315 314 312 312 313 313 313 313
314 313 312 312 312 312 310 308 308 308 315 310 309 309 312 312 311 311 310 310 312 313 312 312 310 312 313 314 313 313 313 315 315 315 314 314 313 316 312 312 314 314 314 314 313
313 313 312 311 313 312 310 308 308 312 313 309 309 311 312 311 311 310 311 310 310 311 312 311 308 312 313 311 312 312 313 314 315 315 313 315 313 314 314 313 314 313 313 313 313
313 312 312 312 312 310 309 310 314 315 311 311 309 312 312 312 312 312 312 311 311 311 312 311 310 311 310 311 312 313 313 314 313 315 313 310 312 314 311 313 313 314 313 313 312
312 312 310 313 312 310 311 313 316 311 311 310 310 312 311 312 312 312 312 312 312 312 311 312 311 311 311 312 312 313 313 315 315 315 314 308 313 314 312 309 309 312 313 312 312
310 311 311 314 312 312 313 315 313 312 312 311 311 312 312 311 312 313 312 312 312 312 312 312 313 310 310 311 312 313 312 312 312 307 316 313 313 313 310 310 310 312 313 312 311
306 311 312 314 312 314 315 313 311 311 311 311 311 311 312 312 312 312 313 313 313 312 311 312 313 311 310 310 310 312 311 311 313 319 319 313 312 314 312 311 312 313 313 312 311
304 306 307 313 314 314 315 313 311 310 310 311 312 311 311 311 311 312 312 312 313 312 310 311 314 311 310 312 312 310 310 311 312 314 322 316 312 311 314 313 313 313 312 311 311
300 304 303 310 312 314 315 312 312 312 311 312 311 311 312 312 311 312 313 312 312 311 310 311 313 313 312 310 309 311 312 311 313 312 311 315 315 308 312 313 313 313 312 311 311
300 300 303 305 311 312 313 312 312 313 312 314 311 310 310 311 311 312 313 309 311 310 311 311 315 315 312 311 309 310 311 312 312 314 314 318 313 309 312 314 314 312 311 311 310
300 303 300 302 301 309 312 313 313 313 313 315 313 311 310 311 311 312 312 309 308 310 310 311 313 316 314 313 313 312 312 311 312 314 314 313 313 311 312 314 313 311 310 311 310
299 300 300 306 303 304 311 312 313 314 314 315 315 313 311 311 311 311 312 310 308 308 309 312 315 312 312 311 313 313 312 312 311 312 312 313 312 313 312 313 312 312 311 311 309
299 299 299 300 302 304 303 309 313 312 315 315 316 315 312 312 312 312 311 311 311 310 310 311 317 313 314 311 311 313 313 312 311 311 312 312 312 312 312 313 313 311 310 310 309
297 297 299 299 303 305 306 306 307 312 313 313 314 315 315 314 313 312 311 312 311 310 310 311 312 315 314 313 312 314 312 313 311 311 312 312 312 311 313 313 312 311 310 310 309

GFSSW_850_thetae_084.txt.gz
Theta_e
315 314 314 317 318 320 322 322 321 316 317 320 320 317 316 315 315 317 312 316 313 312 311 312 313 314 317 319 319 320 321 322 323 321 320 320 319 319 319 321 323 323 327 329 333
316 314 314 316 317 318 320 322 322 319 317 319 318 317 317 317 315 315 317 314 315 311 311 313 314 315 317 318 318 319 321 323 322 320 319 320 319 319 318 321 322 322 334 333 332
317 315 314 315 316 317 319 320 321 320 317 319 318 316 317 317 315 316 317 317 317 312 312 313 314 316 317 318 318 318 321 321 318 318 320 320 320 318 319 318 320 323 333 333 333
317 316 314 315 316 317 318 319 319 319 316 320 319 316 313 316 321 320 318 321 313 318 312 314 314 315 318 318 318 319 317 318 317 317 320 319 319 318 319 318 319 321 328 332 333
318 316 315 314 315 317 317 319 319 318 318 315 316 318 316 317 319 315 321 321 314 311 311 314 314 316 317 318 318 317 316 317 316 317 318 319 318 318 318 317 318 322 325 330 332
317 316 315 313 314 317 317 318 318 319 320 319 316 318 315 315 318 317 322 322 316 312 311 313 314 316 316 317 317 318 316 316 316 315 316 317 317 316 318 317 316 318 323 329 330
314 316 315 313 314 315 316 317 317 317 317 315 316 315 314 314 313 314 321 324 324 319 311 312 314 315 316 316 317 317 316 315 316 315 315 315 315 315 316 316 315 315 319 325 328
314 317 315 314 314 315 315 316 317 316 315 315 313 312 312 312 312 314 314 323 319 322 311 313 314 313 314 315 315 316 316 316 315 315 314 315 317 315 314 314 315 315 317 320 324
313 317 315 314 314 314 315 316 316 315 315 315 313 312 311 311 312 312 314 317 316 313 311 312 312 313 314 314 314 314 315 317 314 315 314 313 316 313 313 312 313 315 316 318 321
313 316 315 314 314 315 316 316 314 312 313 313 313 314 311 310 311 311 312 312 312 311 311 311 312 314 313 313 315 315 316 316 314 313 314 312 313 311 313 314 313 314 314 316 316
313 314 315 314 313 315 315 313 313 314 314 312 312 312 311 311 313 311 311 312 312 311 311 311 312 314 313 313 315 315 315 314 314 313 314 313 314 313 313 314 314 315 314 314 314
314 313 315 313 314 315 314 312 312 312 313 310 309 310 310 312 311 311 311 311 312 312 312 312 313 314 314 313 314 314 314 314 313 312 313 313 313 313 313 313 314 315 316 315 315
314 314 315 313 314 315 313 311 311 311 311 311 309 310 311 311 312 311 311 312 312 312 313 313 314 314 313 312 313 314 314 313 314 312 313 313 311 312 312 314 313 314 314 314 314
315 314 313 313 314 314 312 311 310 309 309 309 310 309 311 311 312 311 311 312 312 313 313 314 312 313 312 312 312 313 312 314 313 311 311 311 308 312 309 309 310 311 312 312 312
316 314 314 313 312 313 311 313 309 308 311 309 310 310 312 312 311 311 311 311 312 313 313 312 311 312 313 313 312 313 313 314 314 314 313 313 309 312 309 309 310 313 313 313 313
315 314 312 313 312 312 312 311 308 312 316 309 308 311 312 311 311 310 310 310 312 312 310 310 309 312 313 311 312 312 313 314 314 314 310 313 309 310 309 309 311 313 314 313 313
311 314 313 312 312 311 313 310 311 314 311 310 309 311 312 312 312 311 311 310 310 311 311 309 310 310 310 311 311 312 311 311 311 311 312 307 310 309 310 312 310 311 313 313 312
308 313 313 311 312 312 312 311 312 311 311 309 309 311 312 312 312 311 311 310 310 310 311 311 311 309 310 311 311 311 310 312 313 314 310 307 308 310 308 309 312 314 313 313 313
309 314 312 312 312 311 312 311 310 310 312 310 311 311 312 312 312 311 311 311 310 310 310 311 312 310 310 311 311 311 311 312 308 303 311 308 309 309 307 307 311 313 312 312 312
304 311 311 313 312 312 312 311 311 310 311 310 310 311 311 311 312 311 311 311 311 310 311 310 311 311 309 310 310 310 309 309 310 307 312 310 311 309 309 307 309 311 312 312 311
301 309 309 313 311 313 312 311 311 311 311 310 311 311 310 311 311 312 311 311 311 310 309 311 313 311 310 310 310 309 308 310 311 313 314 310 308 307 310 309 309 312 313 311 310
299 304 307 311 311 312 311 311 312 311 310 311 311 311 310 310 310 311 312 311 312 310 309 311 311 311 311 309 308 308 310 309 311 310 308 312 311 309 308 309 311 313 312 311 310
299 300 304 309 309 311 311 311 313 311 311 313 311 311 311 310 310 311 311 309 311 309 309 311 312 312 311 311 309 310 309 310 309 310 309 308 308 307 310 310 312 312 311 311 311
299 304 301 302 304 310 311 312 312 313 312 314 311 310 310 311 311 311 312 309 308 310 310 311 313 313 312 311 310 310 309 308 309 310 309 309 311 309 311 310 312 311 311 311 311
298 301 299 305 304 308 311 311 312 314 314 314 314 311 310 311 311 312 312 308 308 308 310 310 310 311 311 311 311 310 309 309 309 310 309 309 309 309 309 310 311 311 311 311 310
299 300 299 301 299 307 310 311 312 313 314 315 316 313 310 310 311 311 311 310 309 309 308 309 309 309 311 310 311 311 310 310 309 309 308 308 309 309 310 312 312 311 311 310 310
297 299 300 301 303 305 306 310 311 311 313 313 314 314 313 314 312 311 311 310 310 309 309 309 309 308 306 310 309 308 310 310 310 309 309 309 310 309 309 311 312 311 311 310 310

GFSSW_850_thetae_087.txt.gz
Theta_e
319 316 315 314 314 317 320 323 324 322 319 318 316 321 322 320 318 315 316 317 317 317 316 314 314 315 316 317 318 319 316 318 319 317 318 319 318 319 321 322 322 327 325 326 334
314 316 315 314 315 318 321 324 322 319 316 321 321 321 320 318 316 316 313 318 316 321 322 316 314 322 316 317 318 316 316 319 317 315 316 318 319 318 320 322 328 329 328 330 333
312 317 315 314 316 318 321 323 320 317 317 318 318 319 318 314 313 315 314 319 316 318 315 315 321 316 315 317 317 317 317 317 317 318 320 318 318 318 319 318 326 331 332 332 333
312 317 315 314 316 318 319 321 321 320 318 319 318 318 318 315 319 319 316 314 311 313 312 315 317 313 315 316 317 316 317 317 317 318 319 318 318 317 318 318 320 324 331 331 333
313 317 314 314 315 317 318 320 320 320 317 318 319 317 316 315 317 315 319 314 312 312 313 316 316 314 315 316 317 316 315 317 316 317 319 318 317 316 317 319 320 324 330 328 332
311 316 315 314 315 315 317 319 320 319 317 318 317 317 315 316 317 318 316 319 316 319 314 317 315 314 313 316 316 317 316 315 315 315 316 315 315 317 316 318 321 325 326 326 330
310 313 316 314 315 315 317 318 319 318 317 316 317 317 316 316 314 318 319 320 320 322 317 316 314 313 313 315 317 315 314 313 314 315 315 316 315 314 316 315 324 326 326 328 329
310 312 315 315 313 314 317 318 319 319 318 317 315 315 314 314 314 314 320 319 319 322 319 315 315 311 312 314 315 315 312 314 313 314 314 313 315 313 315 315 315 320 326 329 329
310 311 316 314 313 315 317 317 318 318 317 313 313 312 312 313 312 312 314 318 317 315 314 315 313 311 313 312 313 313 312 313 314 313 312 312 313 312 313 314 314 314 317 322 327
310 310 315 314 314 315 315 316 317 317 315 313 313 313 312 311 312 315 313 319 316 317 316 314 313 311 310 309 315 312 313 313 312 312 312 311 313 309 313 312 312 313 315 318 321
310 312 316 314 314 314 315 316 316 315 316 315 313 311 311 312 313 312 312 313 313 312 313 312 314 313 310 311 313 312 312 313 311 311 312 310 310 310 311 313 312 312 314 316 317
310 312 315 314 314 314 315 315 313 312 314 311 311 311 311 311 311 311 311 312 312 312 312 312 312 311 311 311 311 312 312 312 311 311 312 310 311 310 310 311 313 314 312 314 315
311 313 314 314 314 315 316 313 311 310 311 311 311 311 310 311 311 311 311 312 312 311 312 312 312 311 312 312 311 311 311 309 311 311 311 311 308 312 311 312 313 314 314 314 314
310 313 314 314 314 315 314 311 311 310 307 309 308 309 311 311 311 311 311 312 312 312 311 312 312 312 312 312 310 311 311 312 311 309 309 308 308 307 308 309 309 312 313 313 313
311 314 314 314 315 315 313 311 311 309 308 307 309 309 310 311 311 311 311 311 311 312 311 312 311 312 311 311 310 311 311 311 310 311 309 310 306 306 307 309 307 308 311 312 312
311 313 313 314 315 314 312 311 311 311 312 309 308 310 310 311 311 310 311 311 310 311 310 309 309 310 311 310 310 310 311 311 310 309 309 309 305 305 307 309 307 309 311 312 313
310 312 313 313 314 313 312 310 309 311 308 308 308 310 310 310 310 310 310 310 310 314 312 308 310 309 310 311 310 311 309 309 309 309 308 306 307 306 308 307 308 310 312 313 313
306 312 314 313 314 313 312 309 310 308 309 307 308 310 310 311 310 310 310 310 308 310 308 310 310 309 309 310 310 309 308 308 310 311 308 306 309 309 307 307 311 313 313 312 312
307 313 313 311 312 311 309 310 308 309 309 308 309 310 311 311 310 310 310 310 309 308 311 309 310 309 309 309 310 310 310 308 307 297 308 305 306 308 307 308 310 311 312 312 312
307 311 311 310 310 309 309 310 308 309 308 309 309 309 311 311 310 310 310 310 310 308 309 309 310 310 309 309 309 309 308 309 306 307 308 307 308 307 306 306 309 309 311 312 312
303 307 308 309 309 311 309 308 308 309 309 308 308 309 309 311 309 310 310 309 309 308 308 310 311 310 309 309 308 308 307 307 308 307 308 307 307 304 307 305 308 309 311 311 311
300 302 308 311 312 310 310 308 309 309 310 309 308 309 310 310 310 310 310 310 311 308 309 311 310 310 309 309 308 308 307 307 308 308 308 307 307 307 306 305 308 310 311 311 310
300 299 304 310 310 310 310 309 311 309 310 310 309 309 309 310 310 310 310 309 309 309 310 310 310 310 311 309 309 309 308 307 308 305 307 308 307 306 307 306 309 310 311 310 310
299 303 302 309 307 310 310 309 313 312 310 311 309 308 309 310 311 310 310 309 309 309 310 311 311 310 310 308 308 310 308 307 308 307 306 306 306 308 307 307 309 310 311 310 310
298 299 298 307 306 309 309 309 312 313 313 312 310 309 310 310 312 312 310 308 308 309 309 309 310 311 310 309 309 309 309 307 308 308 309 308 306 307 307 308 310 310 311 310 310
298 299 299 300 303 309 310 309 310 313 313 314 311 310 310 310 311 311 309 309 309 308 308 308 308 308 309 309 310 309 309 309 308 307 306 306 307 305 308 310 310 310 310 310 310
297 298 298 300 302 309 310 308 310 311 311 313 313 311 312 312 310 310 309 309 308 308 308 309 307 305 306 309 308 308 308 308 308 306 309 307 308 306 306 309 310 310 310 311 310

GFSSW_850_thetae_090.txt.gz
Theta_e
314 317 317 317 315 314 314 317 319 321 324 321 320 320 321 322 323 323 323 321 321 315 315 317 314 323 317 317 318 319 315 316 318 315 317 317 316 317 320 321 323 326 326 327 335
313 313 318 317 316 315 314 316 319 323 323 322 320 320 320 322 322 322 321 321 319 314 313 314 314 320 316 317 318 316 315 317 317 315 315 317 318 320 321 323 328 327 325 331 335
311 312 314 317 315 314 314 317 321 323 322 319 318 318 321 321 316 319 320 320 320 316 316 312 318 319 315 315 317 316 317 316 317 317 318 317 317 317 320 319 327 326 329 334 335
309 310 313 317 315 314 316 319 322 322 319 316 318 319 320 317 320 319 320 320 316 316 316 317 322 323 317 314 316 315 316 317 317 318 317 316 317 317 318 318 319 323 323 333 335
308 312 313 316 315 315 317 322 322 318 317 317 317 317 315 314 318 319 317 319 318 316 315 319 324 322 321 315 315 315 315 316 317 318 318 317 316 315 318 317 320 327 328 331 334
308 311 314 316 314 315 318 321 319 319 318 317 317 317 314 315 319 317 316 317 316 313 318 317 319 320 317 314 313 316 315 315 316 316 316 315 315 316 316 318 325 329 330 330 331
310 310 314 316 314 316 319 320 320 319 317 317 317 317 316 317 317 319 317 314 316 314 315 318 319 316 312 311 314 315 313 313 313 315 315 315 315 313 316 319 327 331 330 330 329
310 308 312 315 314 316 317 319 320 318 318 316 317 315 316 316 314 316 319 316 315 314 315 317 316 316 314 311 313 313 312 313 313 313 313 314 314 313 315 321 328 330 329 327 329
309 309 311 315 314 316 316 318 320 318 317 316 315 314 313 314 314 316 319 319 317 317 316 318 316 314 314 311 312 312 311 312 313 312 311 312 313 312 314 321 326 329 328 328 327
308 308 309 313 315 315 316 318 319 317 317 315 314 313 311 312 314 316 318 318 316 317 315 315 314 315 313 311 316 313 312 312 312 311 311 311 312 309 313 313 316 321 325 328 328
307 308 310 312 315 315 317 318 319 318 315 313 313 312 311 312 312 316 317 316 315 315 316 315 316 317 316 313 310 312 312 313 311 310 310 310 311 308 310 310 310 312 313 317 324
305 308 310 312 314 315 317 319 315 314 313 312 313 311 311 312 312 316 315 314 315 316 314 315 319 315 314 312 311 311 312 312 311 311 311 309 309 308 308 310 311 311 312 314 317
305 308 310 314 314 316 317 317 314 314 312 310 312 311 311 312 311 314 313 312 314 315 315 317 317 315 313 313 313 311 310 309 311 310 310 309 310 310 309 310 311 311 312 313 315
306 309 309 315 315 315 316 315 313 313 309 310 310 311 311 312 311 311 313 312 311 314 314 315 315 315 313 314 313 311 309 310 310 309 310 307 310 306 308 308 308 311 312 312 313
306 311 310 315 315 315 314 313 312 310 313 308 308 310 310 310 311 311 311 312 313 312 311 313 314 316 314 314 313 311 310 310 309 308 309 309 306 305 306 308 307 309 311 313 313
306 311 313 314 314 314 313 311 310 309 309 308 308 309 310 310 310 310 311 311 312 312 311 311 312 312 313 312 311 309 310 308 309 308 308 308 306 305 305 307 308 307 310 312 312
305 309 312 315 314 314 311 311 310 308 306 308 308 310 310 309 309 309 310 311 312 315 313 311 310 309 311 311 309 310 311 310 311 310 311 306 305 307 307 306 306 308 310 310 311
303 308 310 310 314 313 311 310 304 306 307 306 308 309 310 309 309 308 310 311 310 310 313 313 312 308 308 312 311 310 309 309 310 310 307 305 308 308 306 307 309 309 311 311 312
303 307 311 312 314 311 310 311 308 308 307 308 309 310 309 310 308 308 309 311 310 310 312 311 311 308 308 309 310 309 310 306 307 297 307 305 305 306 307 309 308 309 310 312 312
305 307 310 312 313 311 310 310 306 307 307 309 309 309 310 310 309 309 309 310 311 309 310 308 310 309 308 308 309 308 308 310 307 309 308 305 306 307 307 307 307 308 310 311 312
304 306 310 312 313 311 311 309 307 308 308 308 308 309 308 310 308 310 309 308 310 308 309 309 311 311 309 309 309 308 307 307 308 308 308 306 306 303 306 307 309 309 310 311 312
302 302 309 311 311 309 311 308 309 307 308 307 307 307 309 309 308 309 309 308 310 308 308 310 310 312 310 308 307 307 307 307 310 308 306 307 306 304 303 304 308 309 311 311 311
300 300 307 307 309 307 309 309 310 308 308 308 307 307 308 310 309 308 308 309 310 308 309 310 310 311 310 309 308 308 307 307 306 305 307 309 307 304 305 304 306 310 310 311 311
300 302 301 306 307 309 309 309 310 309 310 308 307 307 309 309 309 309 309 308 308 309 310 310 310 311 311 310 308 309 308 307 307 307 306 306 308 307 307 305 306 309 311 310 310
299 299 299 305 306 309 308 308 311 311 311 310 308 309 309 309 310 311 309 308 308 309 309 309 311 309 310 308 308 308 309 307 308 309 309 308 305 306 305 305 307 308 310 310 310
298 298 299 300 306 309 309 308 310 312 311 312 308 307 309 309 310 310 308 309 308 307 309 306 308 308 309 309 308 308 308 307 307 307 306 305 304 303 306 308 308 309 309 309 309
298 298 297 300 307 310 309 308 309 310 311 311 308 309 309 309 309 310 310 309 308 308 309 308 307 306 307 308 309 310 308 308 308 305 307 306 308 303 305 306 308 309 309 310 310

GFSSW_850_thetae_093.txt.gz
Theta_e
314 314 315 317 317 318 317 316 315 318 323 324 323 321 321 321 322 324 324 326 326 327 331 328 324 314 316 317 317 317 314 316 317 313 316 316 315 317 318 324 326 326 327 330 335
313 311 314 317 319 317 316 315 315 318 321 323 323 320 320 320 322 323 324 325 326 320 321 317 317 314 317 317 317 315 314 316 315 313 314 316 316 317 320 323 326 327 327 332 334
314 310 312 313 312 318 315 315 315 317 320 324 323 320 320 320 320 321 322 324 326 319 314 314 314 316 321 315 316 314 315 315 317 316 316 316 316 318 319 319 325 325 330 334 334
312 311 310 310 312 318 316 314 314 316 321 321 321 320 320 320 319 320 322 323 325 325 315 313 313 319 319 316 314 314 315 316 317 317 316 314 317 317 320 319 320 323 323 333 334
309 309 308 311 312 317 316 315 314 316 320 323 322 318 317 316 318 319 320 321 322 318 317 315 316 320 322 318 315 314 314 315 316 317 316 316 315 316 318 317 319 324 330 332 333
310 309 310 312 313 316 316 315 314 317 322 322 319 317 315 316 319 318 318 318 319 319 315 317 319 321 322 319 316 313 313 314 314 316 316 315 314 316 317 317 323 325 330 332 332
310 310 309 312 314 316 315 314 316 322 321 318 318 317 314 317 318 318 316 316 317 316 316 319 321 322 318 318 317 315 312 312 313 314 314 315 314 312 316 317 325 326 328 332 332
309 310 309 311 313 316 315 317 318 321 319 316 317 315 316 316 316 318 316 316 315 316 318 319 322 320 316 315 316 313 311 313 312 312 313 314 314 313 315 320 328 328 328 330 331
306 308 309 312 311 315 315 319 320 318 317 317 316 316 313 316 314 317 316 315 314 315 316 318 321 315 315 317 316 315 313 311 313 311 311 312 313 313 314 322 328 329 329 329 329
306 308 309 310 312 314 316 320 319 318 317 316 315 314 313 314 314 316 316 315 315 315 316 318 316 315 315 318 323 320 311 311 313 311 310 311 310 310 312 321 326 328 329 330 328
304 307 307 311 314 315 316 320 318 320 315 315 315 312 312 314 315 316 316 315 315 316 318 316 318 320 317 317 313 310 312 312 311 311 310 310 312 309 309 312 318 324 328 328 324
303 305 308 309 314 315 317 320 318 316 315 314 315 311 312 313 315 317 317 316 316 319 316 317 320 318 316 316 314 314 311 312 310 310 311 309 311 309 307 309 312 319 323 325 324
302 304 307 307 312 315 317 319 318 314 311 312 312 311 312 314 315 315 316 314 316 316 317 319 319 317 317 315 315 316 312 312 313 310 310 309 310 310 308 308 310 311 313 315 317
304 305 307 306 311 314 317 319 316 313 312 311 312 310 312 312 313 316 314 313 312 317 317 318 317 316 317 316 316 317 313 310 310 312 314 308 312 307 308 308 307 310 311 311 312
303 306 306 306 312 315 316 316 314 312 317 310 310 310 312 312 312 314 313 312 312 313 313 316 318 317 317 316 314 316 309 310 310 310 309 307 307 307 305 309 307 308 311 312 312
302 305 308 307 310 315 316 314 311 310 314 309 308 309 311 309 310 312 312 311 311 312 311 311 313 315 316 313 314 310 311 310 310 308 310 310 307 308 304 307 309 309 312 313 312
302 305 308 307 311 315 314 312 310 315 307 307 308 310 311 309 310 311 312 312 314 314 314 311 313 310 313 314 313 311 312 315 315 313 312 305 305 314 305 304 306 310 311 313 312
301 303 307 308 315 315 312 312 313 307 308 306 308 310 311 309 309 311 312 313 310 309 311 314 314 312 311 315 314 312 313 313 315 314 312 304 306 308 304 306 307 308 309 311 311
299 302 307 309 313 313 310 314 313 308 306 308 309 310 310 310 309 309 311 312 310 307 311 311 313 310 309 311 313 313 314 311 307 298 306 306 305 305 304 305 308 308 308 308 311
303 305 307 308 311 310 311 313 306 305 307 308 309 309 310 310 308 309 310 310 310 309 308 308 309 309 307 311 311 311 311 310 308 310 306 304 304 309 307 306 306 306 308 308 310
303 306 309 310 309 310 311 311 306 307 308 307 307 308 308 310 308 309 309 308 309 309 309 307 309 310 308 310 313 311 310 308 309 308 309 306 306 302 306 306 305 307 309 309 310
302 304 308 311 310 311 312 308 307 307 307 306 306 306 308 309 308 309 308 308 310 310 309 307 309 309 310 308 307 309 311 309 312 308 305 307 307 304 302 303 306 307 309 309 310
301 301 305 309 308 308 311 309 307 307 306 306 307 307 307 309 309 308 307 308 309 309 308 308 308 309 313 311 307 309 307 306 306 306 309 309 308 303 304 304 305 308 310 310 311
299 301 302 303 301 308 311 310 308 308 307 306 306 307 308 309 307 308 308 307 309 307 309 309 309 310 314 313 311 308 306 305 307 308 308 307 308 306 305 305 304 306 309 311 311
299 299 298 304 303 307 310 309 309 308 308 307 307 309 309 309 308 308 307 307 306 308 309 309 308 309 309 309 310 308 309 306 307 308 308 308 307 307 306 305 305 306 308 310 311
298 298 298 299 300 307 310 309 309 310 309 308 307 307 308 308 309 308 307 307 309 306 307 306 306 309 306 308 308 311 309 309 308 308 307 306 305 305 305 306 307 307 308 310 310
298 298 297 301 302 308 308 308 308 309 310 308 306 307 307 307 308 309 308 308 306 307 308 306 305 305 309 307 308 309 309 308 309 307 309 305 308 304 305 305 308 308 308 309 310

GFSSW_850_thetae_096.txt.gz
Theta_e
314 316 314 314 314 316 318 319 318 317 315 318 322 323 322 322 322 323 323 323 325 327 331 333 329 319 315 315 317 317 314 315 316 313 317 316 315 316 318 324 326 324 325 328 335
314 316 314 315 316 315 318 319 318 316 315 318 322 323 322 322 322 322 321 323 325 326 329 332 330 318 315 316 316 315 313 315 315 312 314 315 316 316 320 325 325 326 327 330 335
313 316 315 313 314 316 318 318 318 316 316 318 323 323 321 321 319 320 320 323 325 325 323 329 325 316 315 316 315 313 315 315 316 316 316 315 315 318 319 322 324 324 326 332 335
311 314 314 311 310 314 316 318 318 316 316 318 323 324 320 320 320 319 319 322 324 324 316 318 316 314 317 317 314 314 314 314 316 316 315 313 316 317 320 320 320 321 323 329 333
310 312 313 313 310 311 312 314 318 316 315 318 321 323 320 317 319 319 320 321 323 325 316 314 315 317 320 317 315 314 313 314 314 314 315 315 315 315 318 317 318 321 325 328 332
308 309 309 311 309 312 312 313 318 315 315 317 320 321 320 317 318 319 319 320 322 321 320 314 314 318 321 318 316 314 318 312 314 313 314 314 313 315 317 317 320 322 325 329 330
307 309 309 309 309 310 313 312 316 315 315 317 319 320 318 317 317 318 318 318 318 317 318 317 315 319 319 319 317 319 318 314 313 313 313 314 314 312 315 317 322 325 326 330 331
305 309 310 309 309 312 312 311 316 315 315 317 321 320 315 316 317 317 315 315 316 317 316 318 319 318 318 318 315 322 319 319 315 312 313 313 314 313 314 317 325 327 329 330 330
305 307 309 310 309 311 313 314 316 315 316 319 318 316 315 316 316 317 315 315 315 315 316 319 320 318 319 320 322 318 326 319 320 312 311 312 314 312 314 319 324 327 328 329 330
306 306 306 308 310 311 315 316 315 315 319 318 315 315 314 315 316 316 314 315 315 316 317 319 318 317 317 324 327 322 323 313 321 313 310 311 310 310 312 320 322 326 326 327 330
306 305 306 308 308 311 315 316 316 319 318 315 314 313 314 315 316 316 314 314 316 317 318 316 320 323 322 323 322 322 322 322 311 311 311 310 311 311 310 315 323 325 326 326 327
305 305 305 308 306 310 313 316 316 319 314 315 313 313 314 315 316 316 315 315 316 316 316 318 322 320 318 320 316 316 318 319 311 310 310 310 310 310 306 309 315 321 325 325 325
304 303 304 307 306 311 313 315 318 315 313 313 312 314 315 316 316 315 315 316 316 317 317 320 320 317 318 318 316 316 318 318 313 310 309 309 311 309 308 308 310 312 318 321 322
303 302 301 306 306 308 312 314 316 313 312 314 311 313 315 315 317 316 316 315 314 318 317 319 318 317 318 319 318 319 315 313 311 312 318 308 315 311 307 308 305 310 312 317 320
301 301 304 306 306 308 312 315 312 313 317 310 311 312 314 313 315 315 315 314 314 316 316 318 319 319 318 318 316 319 312 312 312 311 310 313 308 312 305 308 308 307 311 313 314
302 303 305 306 305 311 311 314 312 312 316 310 309 311 311 311 311 313 312 313 312 313 312 312 312 317 318 316 315 312 313 313 312 313 315 315 309 312 310 306 309 309 312 313 313
301 301 305 307 304 309 313 312 312 318 307 309 311 312 311 311 313 314 313 312 315 315 315 313 314 311 315 315 312 312 316 317 318 317 318 308 307 314 309 304 307 311 313 314 314
298 300 304 306 305 307 312 313 316 310 310 306 311 312 312 311 312 314 313 313 311 309 314 317 317 312 313 315 315 314 317 317 319 316 314 303 309 312 305 307 308 309 311 312 313
298 300 302 305 305 306 311 315 314 310 306 309 312 313 311 310 311 312 313 313 312 308 314 314 315 310 310 312 313 313 316 310 308 301 309 308 306 305 303 303 305 307 308 310 312
301 301 302 304 305 304 312 313 306 305 307 311 313 312 312 311 311 310 313 312 312 308 307 310 312 310 309 311 312 314 313 316 311 310 309 306 305 313 307 306 304 304 308 310 311
302 304 305 305 305 307 311 310 306 307 309 309 308 308 310 310 308 310 312 309 309 309 308 307 308 309 309 313 315 313 315 311 312 308 309 307 306 302 308 306 306 306 310 311 311
302 304 305 306 304 302 311 308 307 307 307 305 305 305 309 309 307 309 310 309 311 310 310 308 308 308 308 307 307 311 312 312 316 311 305 307 307 304 302 301 304 306 307 310 311
301 301 304 306 306 306 310 308 307 307 305 306 306 306 308 309 309 308 307 307 309 310 310 308 308 310 312 310 307 312 309 313 311 307 311 310 309 302 303 303 305 305 307 309 309
299 299 302 304 300 307 309 309 307 307 306 305 305 307 308 309 307 308 308 306 309 310 310 309 307 309 311 310 308 309 313 307 312 312 312 309 308 308 309 305 305 306 307 308 309
299 298 297 303 302 306 311 309 308 307 306 306 306 307 308 308 308 307 306 306 306 309 308 308 307 308 309 309 309 308 309 310 309 311 310 312 308 306 306 306 305 308 307 308 310
297 297 298 299 300 306 309 309 308 308 306 306 307 307 306 307 308 306 306 306 306 306 308 304 306 309 307 308 307 309 307 310 309 308 308 308 306 304 306 307 306 308 307 308 309
298 298 297 299 301 305 308 308 308 308 309 306 306 306 306 306 307 307 309 308 306 308 306 308 305 306 306 307 308 310 309 309 308 306 309 310 309 307 304 304 308 310 308 309 310

GFSSW_850_thetae_099.txt.gz
Theta_e
306 309 314 317 318 318 318 318 320 320 319 317 316 319 322 322 322 322 322 319 322 325 328 331 332 325 316 317 316 316 315 316 316 314 318 316 315 316 318 323 327 326 324 327 333
310 310 313 315 316 314 314 316 319 320 319 317 316 318 322 322 321 321 321 320 321 324 326 330 332 325 315 315 316 315 316 317 315 312 314 315 316 316 320 325 324 325 324 327 333
310 311 312 314 316 314 314 315 316 319 319 317 316 317 322 322 322 321 321 321 320 323 325 327 328 322 315 315 315 313 316 315 315 315 314 315 314 318 319 322 323 323 324 329 334
310 311 312 314 315 316 316 315 315 318 319 317 316 318 322 322 323 319 320 321 320 323 322 320 319 315 316 315 314 315 312 313 313 314 314 313 315 317 319 319 319 322 323 327 333
308 309 312 315 315 313 313 314 315 314 319 318 316 319 322 320 320 318 318 319 321 323 323 316 316 316 317 317 314 314 314 314 314 313 314 314 314 315 317 318 318 321 323 325 331
304 308 310 313 314 313 311 311 315 317 319 318 316 319 322 318 320 320 319 320 321 323 323 314 315 318 318 317 316 315 317 316 320 315 314 313 312 315 316 318 317 319 322 324 326
305 308 309 311 312 313 312 311 312 314 317 318 316 320 319 319 319 319 319 320 320 322 323 314 315 320 319 317 316 318 320 320 321 313 313 312 313 312 315 317 318 320 323 326 327
305 306 308 309 309 310 310 312 312 314 317 317 317 321 319 318 318 318 318 318 318 318 320 316 316 318 319 317 319 321 319 323 321 314 313 312 315 314 314 317 321 322 324 326 327
305 305 307 308 309 308 309 311 312 313 317 316 319 320 316 317 317 317 318 318 316 315 316 320 316 318 318 320 323 318 325 320 321 316 312 311 314 312 313 316 320 324 325 325 327
305 304 305 308 309 309 309 312 312 314 317 317 318 317 315 317 317 316 315 316 315 316 319 319 319 319 321 322 326 324 323 320 323 318 310 311 310 310 311 318 319 323 325 325 326
305 305 305 305 308 309 309 312 314 314 317 318 316 315 315 316 317 316 315 315 315 316 318 317 321 323 323 322 322 321 323 322 314 312 316 312 311 312 312 313 320 321 324 326 324
306 306 305 306 306 309 310 311 313 316 318 316 315 315 316 316 314 315 315 315 316 319 317 318 322 321 319 322 322 321 324 324 318 311 313 317 319 312 308 309 312 318 321 323 325
305 305 305 305 308 308 309 312 315 314 317 315 314 315 315 316 315 314 315 316 316 317 319 321 320 319 321 322 324 320 323 322 321 311 309 309 312 313 308 309 310 311 316 320 322
303 304 304 304 306 307 307 310 314 315 311 314 314 316 315 316 317 315 315 316 316 317 316 319 318 319 321 322 322 321 315 314 315 316 322 310 314 316 312 308 305 310 312 314 318
302 303 303 302 305 306 306 310 311 314 317 310 312 315 316 315 315 315 316 315 317 317 317 318 318 319 321 321 319 320 314 313 313 314 315 312 313 315 309 309 308 307 311 314 315
302 302 302 301 302 306 306 312 313 312 316 310 310 312 316 316 314 313 313 314 314 316 313 313 313 317 317 316 317 313 314 314 313 316 318 317 316 316 313 311 309 309 312 316 316
300 301 302 302 304 304 309 313 313 315 306 307 310 314 315 316 315 313 313 314 316 318 317 315 315 311 315 314 312 314 318 319 318 317 319 308 313 320 314 306 308 310 313 315 316
301 301 301 303 305 305 308 309 313 309 310 308 312 313 314 314 315 314 315 316 312 311 317 318 319 314 313 314 314 316 318 319 322 317 315 305 316 315 311 317 316 313 312 313 314
298 299 302 302 304 305 304 311 313 311 307 313 312 313 313 311 315 314 314 315 313 309 315 318 315 311 313 312 313 314 318 310 311 298 307 307 307 307 304 304 304 306 309 311 313
298 300 300 301 304 306 302 308 309 308 309 312 314 312 314 311 314 314 314 312 311 308 308 311 314 311 311 312 311 313 312 316 314 319 314 310 307 314 308 306 305 304 306 311 312
300 301 304 302 304 301 305 308 306 307 311 312 312 310 311 312 311 314 314 309 309 307 307 306 309 310 311 314 315 314 316 314 312 309 313 309 310 303 310 309 306 307 309 311 312
301 302 304 302 303 301 306 306 305 308 311 306 306 308 311 310 310 311 312 309 310 308 309 307 307 312 310 307 312 311 314 313 315 313 306 307 308 305 301 303 304 306 308 309 310
301 302 304 304 304 305 307 307 307 311 308 306 306 307 309 310 311 308 308 308 309 310 309 307 307 306 311 310 307 312 311 313 310 308 312 311 318 302 303 304 306 307 308 309 309
300 300 302 302 302 305 306 307 308 309 305 304 305 308 308 309 307 307 308 305 309 310 309 307 306 307 311 309 308 309 312 312 314 315 315 313 316 312 307 305 305 307 308 308 309
299 298 299 303 302 304 305 306 309 308 306 306 307 309 307 308 306 306 305 306 308 309 309 307 306 308 308 307 307 309 310 311 314 315 316 316 314 311 309 308 306 308 310 308 309
298 298 297 299 300 304 305 306 309 307 305 306 307 308 307 308 308 306 305 305 307 306 306 304 304 307 307 306 308 309 308 311 310 313 314 313 311 307 307 307 306 307 308 310 311
298 298 297 299 302 305 305 306 308 307 307 304 307 307 305 305 306 307 308 307 306 309 310 305 305 302 301 306 309 307 307 309 311 310 310 310 312 305 305 305 306 308 307 309 310

GFSSW_850_thetae_102.txt.gz
Theta_e
309 309 305 310 314 316 319 320 317 320 322 321 320 318 320 323 323 321 322 320 318 321 326 328 331 331 316 315 317 317 323 323 323 320 321 320 320 317 319 326 328 328 326 329 332
307 308 304 306 312 315 317 319 319 318 321 321 320 318 318 322 323 322 321 320 319 319 324 328 331 331 315 316 317 319 324 322 319 318 319 320 321 318 323 326 326 327 323 330 333
307 309 309 304 310 315 317 318 319 319 319 320 320 318 316 321 322 322 320 320 320 319 322 326 327 321 316 316 318 318 324 319 315 316 315 318 318 319 321 325 323 325 327 329 334
306 308 310 307 308 314 316 317 314 318 319 319 320 317 317 320 325 320 320 321 321 321 322 324 325 316 316 318 317 320 315 316 314 314 315 316 316 318 320 321 321 323 321 326 334
306 309 310 310 309 312 315 315 314 314 316 318 319 317 317 320 321 318 318 320 321 321 323 319 318 318 318 318 317 319 315 314 314 315 314 314 316 318 318 318 318 321 323 325 331
306 308 309 310 311 312 314 315 315 314 315 317 319 318 317 320 320 320 319 319 320 321 322 317 318 319 317 318 318 320 317 317 315 319 314 315 315 315 317 318 317 321 323 324 329
305 306 307 309 311 313 314 315 315 314 315 316 318 318 318 319 319 321 319 319 320 321 321 317 316 319 319 318 315 318 320 320 320 317 314 314 318 316 316 317 322 326 328 326 327
304 305 304 308 310 314 314 314 311 311 314 315 317 318 319 319 320 320 319 319 320 321 320 318 315 319 319 317 319 321 321 324 322 318 318 318 322 319 315 320 322 325 328 330 326
303 303 304 306 309 312 312 312 312 311 311 314 316 318 319 318 319 319 319 319 320 319 320 317 317 319 318 322 323 322 326 324 324 320 323 318 322 319 312 319 320 324 327 329 330
304 303 304 306 308 309 310 310 311 312 312 314 315 318 316 318 319 318 318 319 318 316 316 317 319 320 322 323 329 326 325 323 325 321 319 324 323 316 318 315 318 321 326 328 329
305 305 305 306 308 309 309 309 313 312 312 314 317 317 316 318 318 317 317 316 317 317 320 319 321 323 322 322 324 325 325 326 324 317 322 323 324 320 319 315 316 319 322 326 328
305 305 305 305 307 308 310 309 311 313 314 313 315 317 316 318 315 315 315 317 317 319 319 320 324 322 320 321 323 324 326 326 320 315 320 324 324 325 324 322 317 316 318 322 326
305 305 305 304 304 307 308 309 311 313 314 313 316 315 316 317 315 315 316 317 318 319 319 321 320 321 323 323 323 325 326 326 325 317 315 311 321 323 322 323 322 315 315 318 323
304 305 305 305 306 306 308 308 309 313 313 313 316 316 315 316 316 315 316 317 317 320 319 320 320 321 322 325 324 323 320 321 317 321 326 317 327 326 322 323 321 315 313 315 319
303 304 305 305 305 307 306 307 308 312 317 313 314 314 316 316 314 315 316 316 317 318 318 320 321 322 323 323 324 321 317 318 317 318 318 319 319 326 323 321 321 321 317 314 315
302 302 303 304 304 304 306 306 307 310 317 310 312 315 317 315 316 315 315 316 317 318 317 316 315 320 321 321 322 314 315 315 314 317 321 323 322 327 326 322 321 320 316 314 316
300 302 303 303 304 302 305 307 309 313 306 308 312 317 316 317 316 315 315 316 319 319 320 317 318 313 317 317 316 317 320 321 322 322 326 313 323 324 323 323 320 320 318 315 317
301 302 301 301 302 302 304 304 308 311 311 307 314 317 317 316 315 316 317 318 316 317 319 320 321 316 315 319 317 317 321 322 324 324 323 312 321 321 318 319 319 313 313 314 314
301 301 300 300 302 304 304 305 311 311 309 312 315 316 317 316 315 317 317 318 317 317 319 319 318 313 314 314 316 315 320 314 315 305 315 318 316 314 313 313 308 313 316 314 312
301 300 299 300 302 304 304 303 307 306 310 313 315 316 316 315 316 317 317 316 317 314 316 317 318 312 312 313 312 317 314 319 319 325 323 321 316 319 318 317 314 311 310 313 314
298 299 299 299 302 303 305 303 306 305 310 314 313 315 315 316 317 318 317 316 314 312 314 316 316 312 312 315 316 315 317 317 317 319 323 322 321 315 314 314 313 311 309 309 310
298 301 300 301 304 302 306 304 305 305 306 312 312 315 315 316 316 316 316 315 313 310 314 310 313 315 313 309 313 316 317 317 321 319 315 316 319 309 307 306 306 308 309 309 308
300 302 302 303 304 305 305 306 306 306 306 311 310 312 313 314 315 312 314 311 312 313 313 310 312 313 312 310 309 315 316 316 316 313 316 321 321 306 307 309 307 308 309 310 310
301 302 301 303 302 305 306 307 308 306 304 307 309 312 312 311 311 310 313 310 312 314 310 309 310 315 318 316 313 314 315 316 317 318 319 319 319 318 316 313 309 308 310 312 313
300 301 300 302 302 305 307 308 308 309 304 306 310 311 312 311 310 312 310 309 311 312 310 311 312 310 310 311 311 315 316 315 317 318 318 319 318 317 317 317 316 312 309 311 310
298 299 298 300 302 305 305 306 308 307 306 308 311 311 311 311 311 312 311 311 312 311 311 307 311 311 309 310 311 312 313 316 316 317 317 317 317 316 313 310 309 309 307 308 310
298 299 299 301 303 304 306 306 307 307 307 308 311 311 311 310 309 310 310 310 310 312 311 309 310 313 314 310 311 314 312 314 314 315 316 318 317 315 313 312 313 312 310 308 310

GFSSW_850_thetae_105.txt.gz
Theta_e
304 308 302 302 312 316 319 321 321 320 319 322 322 321 320 322 322 322 322 323 322 320 322 325 329 331 327 316 321 319 324 326 326 325 324 323 325 322 323 327 327 328 326 331 335
304 304 308 302 304 311 315 318 320 321 318 320 322 321 319 321 322 322 321 321 321 320 319 324 327 330 324 317 319 321 325 325 323 322 322 323 323 322 323 326 327 328 330 334 333
304 305 309 308 303 306 310 315 317 320 319 318 321 320 318 319 322 323 321 321 321 319 320 323 326 328 326 316 320 322 326 325 320 320 318 320 323 322 323 325 324 326 329 334 336
303 306 309 308 304 304 308 313 316 319 320 318 321 320 318 318 326 322 321 320 321 321 321 321 324 322 317 321 320 323 323 322 317 316 318 319 320 321 322 323 321 323 329 333 333
303 307 308 309 308 303 307 312 316 318 319 319 319 320 317 319 320 319 318 320 321 321 320 321 324 323 321 320 324 323 322 317 316 316 316 316 318 319 320 321 320 325 329 332 332
304 308 307 309 309 306 305 313 315 317 315 318 319 320 319 320 320 320 319 319 321 322 320 320 323 326 323 320 322 321 322 317 316 319 317 318 319 317 320 320 321 326 329 331 333
305 306 306 308 309 308 307 311 314 315 315 314 317 319 319 319 320 319 320 319 320 323 322 320 321 324 323 321 319 320 322 320 319 323 323 320 323 318 319 320 322 325 328 331 333
306 305 306 308 309 310 309 311 313 315 315 314 315 318 319 319 319 319 320 320 321 322 321 321 319 320 320 319 318 320 321 324 323 321 321 321 327 323 320 319 321 323 325 329 331
306 305 305 307 308 310 312 312 314 314 315 314 315 317 318 318 319 319 320 321 319 319 319 319 318 320 319 321 324 322 326 324 324 322 322 323 326 325 318 318 320 321 324 326 330
306 305 304 305 306 309 313 314 314 312 312 313 315 316 316 317 318 319 319 319 319 319 318 318 319 322 322 326 330 327 325 324 325 323 322 324 324 325 321 320 319 319 321 325 327
305 304 303 304 304 309 312 313 312 312 313 314 312 315 315 316 318 318 318 318 319 319 321 318 320 324 325 323 324 326 325 325 325 321 324 324 325 325 325 325 323 320 319 321 325
304 303 303 302 303 308 310 311 312 312 313 313 313 315 315 318 317 317 318 318 319 321 319 320 322 320 322 324 325 325 327 327 324 320 322 325 326 325 324 325 325 323 322 319 321
303 304 304 303 304 308 309 311 311 312 314 313 312 314 315 316 317 317 317 318 319 321 321 321 320 320 321 323 325 326 327 327 326 320 319 322 325 325 324 324 325 325 325 321 319
303 304 305 305 307 309 311 310 311 311 314 311 315 313 315 315 316 316 317 318 319 321 321 320 318 321 321 322 323 326 324 326 322 325 329 322 330 328 327 327 326 325 325 324 320
305 305 305 305 306 308 308 310 310 311 313 313 314 314 314 315 315 316 317 317 319 320 320 321 319 321 324 322 322 325 323 324 323 322 321 322 322 327 325 326 326 324 325 325 322
305 305 305 305 308 307 307 308 309 310 314 315 314 316 317 315 315 315 316 316 318 319 319 320 318 320 320 321 323 317 318 318 316 319 325 327 324 326 325 326 325 324 323 325 322
305 305 305 305 306 306 307 308 308 310 308 311 314 315 316 316 316 316 316 318 319 321 320 319 321 318 319 320 319 320 322 325 325 326 328 319 326 324 324 324 324 324 323 322 323
304 304 305 305 306 304 307 306 305 309 310 307 311 316 317 316 316 317 316 319 318 319 320 321 320 320 320 321 318 321 323 323 323 323 322 317 324 323 321 321 320 321 320 318 320
303 303 304 303 303 303 305 306 307 308 311 309 311 316 316 316 315 317 317 318 319 319 321 320 320 315 319 318 318 317 323 320 318 310 321 320 320 318 318 317 317 316 317 320 317
301 302 302 302 302 303 305 305 306 307 306 308 314 315 317 315 316 317 317 318 319 319 318 318 319 313 313 315 315 320 317 320 322 326 325 321 322 321 321 320 319 318 316 315 315
301 300 300 300 300 303 305 304 304 304 304 306 313 311 316 315 316 318 318 318 318 318 317 317 318 313 314 316 317 318 319 321 321 323 324 324 322 320 318 311 312 313 312 311 310
300 302 300 300 303 303 305 303 303 303 305 304 303 311 316 316 318 318 318 319 317 317 317 316 316 316 316 310 315 318 319 320 321 321 320 321 321 311 312 312 310 311 310 310 311
300 300 300 301 304 303 303 303 304 304 306 305 307 312 315 316 318 317 318 317 317 317 317 314 316 313 313 313 312 317 318 319 318 316 321 322 320 316 315 311 310 311 310 312 312
302 301 301 302 303 303 304 305 305 305 306 304 305 304 315 316 316 317 316 317 316 315 314 313 315 317 319 318 316 317 318 318 319 320 320 320 319 315 314 313 311 312 315 313 312
303 303 301 302 302 304 304 305 306 307 306 304 306 306 315 313 314 316 312 314 313 313 311 313 316 315 315 317 317 318 319 318 319 319 320 320 320 319 318 318 317 317 316 314 312
300 301 298 302 303 303 305 306 305 305 306 307 306 308 314 314 315 316 314 315 315 312 313 313 314 312 313 314 316 318 317 318 319 319 319 319 319 317 316 316 314 314 314 314 312
299 300 303 303 304 304 305 306 306 307 307 308 307 308 315 313 313 313 312 312 314 315 315 312 313 317 314 313 313 314 316 318 318 317 318 319 318 316 316 315 315 314 314 314 312

GFSSW_850_thetae_108.txt.gz
Theta_e
305 304 303 301 307 313 318 321 323 322 317 322 322 322 322 321 321 321 321 322 321 322 323 323 329 331 327 320 322 320 323 326 326 326 324 323 324 324 325 327 327 328 329 333 331
306 305 304 303 300 306 313 318 320 322 321 318 322 322 321 320 321 322 322 321 321 321 320 326 328 330 328 323 318 323 325 326 323 321 320 323 324 323 324 326 327 328 331 334 332
308 307 305 304 303 300 308 313 318 321 321 319 319 322 321 320 321 322 321 322 320 321 320 322 327 329 329 324 321 321 322 325 320 319 318 321 323 322 323 324 326 327 332 334 332
309 307 307 310 308 301 301 309 314 318 320 321 318 321 321 319 323 322 321 321 321 321 319 321 326 327 323 325 319 320 322 324 321 317 318 319 319 322 322 323 322 324 327 331 333
309 308 304 308 311 307 301 304 310 315 317 320 318 321 320 320 321 319 318 321 321 321 320 321 323 325 322 322 324 322 321 321 317 317 317 318 318 318 319 321 322 324 327 330 330
309 308 305 303 310 308 305 303 309 314 317 319 318 321 319 320 320 321 321 319 322 322 321 320 322 324 325 323 324 324 323 320 316 317 318 319 320 318 319 319 321 326 329 331 329
308 308 305 303 305 308 308 304 307 313 317 318 319 319 319 319 320 320 320 319 321 321 322 320 321 323 325 325 323 324 324 321 316 318 321 322 325 324 320 319 321 324 329 331 332
309 308 304 304 305 308 309 306 309 314 316 317 317 319 319 318 319 320 320 320 320 323 323 321 320 320 322 320 321 319 320 322 319 319 320 323 325 325 324 319 320 322 326 329 332
309 308 306 304 305 308 309 307 310 314 315 315 314 316 317 318 319 320 319 320 320 323 322 321 321 320 320 321 321 322 325 322 323 321 320 322 324 323 325 319 319 320 322 326 330
308 308 306 305 306 308 310 307 310 314 315 314 315 316 315 316 318 320 320 321 321 321 319 319 319 320 322 322 327 325 325 325 322 322 321 320 321 321 324 320 318 319 319 322 327
308 308 305 305 307 308 310 311 313 313 314 314 314 314 316 316 316 318 319 320 320 319 321 320 321 322 321 323 323 323 324 325 323 322 322 321 322 321 323 323 323 322 320 319 322
307 307 305 305 306 308 311 311 311 311 312 313 313 314 314 316 317 317 318 319 320 321 320 320 321 319 319 323 324 325 327 325 323 319 322 323 323 322 322 323 324 325 325 321 319
307 307 305 305 305 307 311 311 311 311 311 312 313 314 314 315 317 318 318 318 319 320 321 321 319 318 320 321 325 325 326 326 325 319 319 320 322 323 322 324 324 324 325 325 322
307 306 304 304 305 307 310 310 311 311 312 312 313 313 313 315 315 316 318 318 318 321 321 320 318 319 320 320 325 327 324 325 322 323 327 320 328 324 324 323 322 324 324 325 325
305 304 304 303 305 308 309 310 311 310 311 310 313 313 313 314 315 316 315 318 320 318 321 321 318 319 320 320 322 324 323 324 323 323 322 323 324 323 322 324 324 324 324 324 325
304 303 304 304 306 307 308 309 309 309 307 311 312 314 315 314 315 316 316 317 318 319 319 320 318 319 319 319 320 318 319 318 317 321 326 325 323 325 323 323 322 323 325 325 325
303 303 304 304 306 307 308 309 308 308 307 309 314 314 314 313 314 316 318 319 318 320 321 320 319 318 319 321 319 320 323 324 326 325 327 322 324 324 322 320 320 320 322 323 323
303 304 305 305 306 306 307 307 307 306 308 308 310 313 313 314 314 313 316 318 317 318 320 319 321 319 318 321 320 321 322 321 323 322 320 317 321 322 321 321 321 322 321 321 320
305 306 306 306 306 306 306 304 303 305 307 309 309 309 315 315 315 315 313 311 318 318 319 321 321 318 319 319 319 321 323 319 317 306 317 317 318 317 316 315 316 316 316 319 320
305 305 305 305 305 305 305 305 304 306 308 308 309 310 314 315 315 315 315 313 312 318 317 317 319 316 316 317 318 319 317 321 318 319 320 318 318 318 316 315 314 315 316 316 315
304 303 303 303 304 305 304 304 305 305 306 307 309 311 311 313 315 315 316 315 312 316 317 317 317 313 315 318 318 318 320 319 319 319 321 320 318 317 314 310 311 310 310 310 310
301 302 301 303 303 303 303 303 303 305 305 304 304 305 308 310 313 316 317 316 314 315 319 318 317 315 318 310 313 317 319 319 320 320 318 317 317 311 307 308 309 310 311 311 311
300 301 301 301 302 301 303 303 303 303 303 305 305 305 307 308 312 315 315 315 315 318 319 316 316 314 314 314 313 317 317 318 318 315 318 318 317 310 308 309 310 310 311 312 313
300 301 300 301 301 301 301 303 303 303 305 305 305 305 305 306 306 311 316 316 316 317 316 315 315 316 319 318 316 318 318 318 319 317 317 318 317 313 310 310 309 310 312 316 315
302 301 299 300 300 303 302 302 302 303 304 305 305 304 305 305 306 308 316 316 316 317 315 315 314 315 314 316 316 316 318 317 319 318 318 316 317 316 311 311 313 314 315 315 315
301 300 299 299 300 302 303 302 303 302 306 305 305 305 305 307 307 308 315 317 317 312 314 313 314 312 311 315 317 317 317 317 318 318 317 316 316 315 316 315 314 315 316 315 315
299 300 299 301 299 301 302 303 303 304 305 305 305 305 306 305 306 306 310 315 314 315 314 314 310 312 315 315 315 318 317 317 317 317 317 318 317 314 314 315 315 315 314 314 313

GFSSW_850_thetae_111.txt.gz
Theta_e
309 306 302 301 307 313 315 320 323 322 316 321 323 323 323 322 322 322 321 321 321 323 321 320 327 331 328 326 322 321 319 324 325 322 323 323 322 324 327 327 328 327 330 331 327
309 306 305 304 301 303 311 315 321 322 321 317 321 322 322 322 321 321 321 321 321 321 322 322 326 329 329 322 320 323 323 325 325 317 317 322 322 323 324 326 328 328 328 330 332
311 308 306 305 304 301 303 311 316 320 322 318 319 322 322 321 321 320 320 320 321 320 321 323 326 329 327 322 321 322 325 322 319 318 318 321 322 323 323 323 326 328 330 331 330
311 310 308 305 305 304 301 303 312 318 320 321 317 321 322 321 323 321 320 320 321 320 320 322 325 328 326 322 320 319 323 325 322 319 318 318 319 321 322 322 323 324 325 330 331
311 310 310 306 305 305 305 300 307 314 318 320 320 318 321 321 320 318 320 320 322 321 320 321 326 326 322 324 323 322 322 321 322 320 317 318 317 317 318 319 321 324 327 328 328
311 311 310 306 305 307 311 305 303 312 315 319 320 319 320 319 319 320 320 321 321 321 320 320 323 323 325 322 325 325 325 323 320 317 318 318 320 320 319 319 322 324 327 329 327
310 311 310 307 305 305 309 307 307 308 313 316 319 319 320 319 319 320 320 320 320 321 321 320 321 323 324 324 323 325 323 322 320 316 317 319 320 323 321 319 324 327 328 329 329
310 311 310 308 305 305 308 306 308 308 310 315 318 319 318 318 319 319 319 320 320 321 321 320 321 320 321 322 321 322 322 324 323 316 317 320 321 322 324 323 320 325 327 328 329
309 310 309 308 305 303 307 308 307 308 312 315 317 318 318 317 319 319 319 319 319 320 322 322 321 320 320 320 318 317 320 319 320 316 318 320 323 322 323 324 319 320 324 328 328
308 309 309 308 304 306 308 308 307 311 313 315 315 316 315 317 318 319 320 319 319 321 322 321 320 317 318 318 324 321 322 320 320 319 316 319 320 319 322 322 319 320 320 322 328
307 308 308 308 304 306 308 309 311 312 313 313 314 315 314 315 317 318 319 320 320 320 320 319 320 321 319 319 320 321 321 323 321 319 319 318 317 317 320 319 318 319 319 319 322
307 307 308 308 305 306 309 310 310 310 313 313 313 314 314 315 317 317 319 320 319 320 319 320 321 318 317 320 322 322 322 322 321 319 319 320 320 320 319 320 321 320 321 321 322
307 307 308 307 305 307 309 309 310 309 310 311 312 313 314 314 316 317 318 319 320 320 320 320 319 317 318 319 322 322 323 324 322 319 318 320 321 320 319 321 322 323 323 323 323
306 307 307 307 306 308 309 309 309 310 305 311 311 312 313 314 315 316 317 317 317 321 319 319 318 318 318 319 321 324 321 323 322 321 324 320 327 322 320 321 321 322 323 324 324
306 307 308 305 306 307 308 310 309 309 310 306 311 311 313 314 313 315 316 317 317 317 320 320 319 318 319 318 318 322 321 322 322 321 323 323 324 321 320 321 320 321 322 322 324
306 307 307 305 305 305 308 310 309 309 308 307 312 312 313 313 314 315 316 317 317 317 316 318 318 317 317 317 317 317 318 318 318 321 326 325 324 324 322 321 321 321 322 324 324
306 307 306 305 305 305 308 311 311 308 302 310 312 313 312 312 313 313 316 317 316 320 320 317 318 318 317 318 318 319 322 325 327 325 325 321 322 324 320 318 319 319 321 322 322
307 307 305 305 304 304 309 308 307 298 298 309 311 311 313 312 311 313 313 314 314 314 316 319 319 318 318 317 319 321 322 321 323 323 321 316 322 322 320 320 321 321 321 321 321
306 305 305 305 304 305 307 309 304 300 306 309 309 312 312 312 312 313 312 312 313 314 316 317 320 317 317 317 318 318 323 318 315 301 314 316 315 315 315 318 317 318 319 319 317
305 305 305 305 305 306 305 304 298 305 306 306 303 305 308 313 313 313 312 310 315 316 314 316 320 317 317 317 318 318 318 321 318 315 317 315 316 317 316 316 315 314 314 317 316
305 305 305 305 306 306 305 303 303 305 306 305 306 307 307 311 313 314 313 310 310 313 316 316 318 315 315 319 320 318 320 319 318 316 317 315 315 312 314 312 310 309 311 312 312
303 303 305 305 305 301 303 301 304 305 304 303 303 304 307 307 308 313 314 312 310 313 318 317 317 317 317 312 312 317 320 319 320 318 315 315 315 310 307 306 309 308 310 309 310
302 303 305 305 301 298 301 302 302 304 303 302 302 305 305 307 307 309 309 311 312 312 316 316 312 319 316 314 313 319 317 319 315 314 317 317 315 309 306 306 308 310 311 312 313
301 301 300 301 300 300 299 301 301 302 302 303 303 304 304 305 305 305 306 306 311 312 313 314 313 315 319 318 317 319 318 318 319 317 317 317 314 311 306 307 307 310 312 314 314
300 298 300 302 296 299 299 300 301 300 302 304 303 303 303 301 305 306 306 306 308 311 313 315 314 314 315 315 317 318 318 317 319 318 317 316 315 313 310 307 309 310 310 314 313
300 298 300 294 299 299 300 297 301 301 302 302 301 303 303 303 303 301 306 309 310 313 316 315 314 315 316 315 316 318 316 317 317 318 317 316 315 312 315 312 310 311 314 314 314
299 298 299 299 296 298 299 298 300 300 301 303 303 303 303 303 303 302 304 305 306 307 308 316 313 314 318 314 316 318 317 317 317 317 317 318 316 312 311 311 313 314 315 314 313

GFSSW_850_thetae_114.txt.gz
Theta_e
312 307 303 305 314 315 316 320 322 320 317 322 324 325 325 323 323 322 322 322 322 323 323 322 320 325 328 326 322 321 320 325 326 318 319 322 321 325 326 327 327 328 329 330 329
313 311 307 302 303 313 314 315 320 323 318 318 323 323 324 323 322 322 322 321 321 322 322 321 321 325 329 324 324 322 321 324 325 318 315 321 321 324 326 327 328 328 328 328 329
313 312 310 306 302 302 309 314 315 321 322 317 320 322 322 322 322 321 321 321 321 321 322 322 324 327 325 322 323 322 323 322 320 321 318 319 322 322 324 324 326 326 327 327 332
311 313 311 307 305 302 301 305 313 316 321 321 318 321 321 322 321 320 319 319 320 321 322 323 324 327 326 319 320 322 324 325 325 321 318 317 318 320 322 322 323 325 325 327 330
311 311 313 307 305 305 303 301 306 314 318 321 319 320 321 321 320 319 319 319 320 321 321 323 324 325 323 324 321 320 322 326 326 324 319 317 317 317 318 319 321 323 327 327 328
311 311 312 310 308 305 304 303 301 310 316 319 321 319 321 320 320 319 320 320 321 321 321 322 324 323 324 324 323 324 323 324 323 321 316 316 319 319 318 319 320 323 327 328 327
310 310 310 311 310 306 305 304 302 304 314 317 320 319 319 319 318 319 320 320 320 321 320 320 321 324 323 321 324 325 324 324 325 321 316 317 318 320 319 320 322 325 326 329 328
310 310 310 311 310 307 306 309 307 301 313 316 318 319 319 318 319 319 319 320 320 321 321 320 321 320 321 322 320 322 321 322 320 318 317 318 320 319 321 319 324 326 327 328 329
309 309 310 311 310 306 307 310 307 302 312 315 318 318 318 318 319 319 319 319 320 320 321 320 320 320 319 318 317 318 321 320 321 318 316 318 319 319 321 322 321 325 327 326 327
309 309 309 311 309 306 306 308 307 308 311 315 316 317 316 318 318 319 319 319 319 320 322 322 320 317 315 317 322 318 319 319 320 319 315 318 318 317 322 321 321 321 320 324 325
309 309 309 311 309 305 308 309 309 310 312 312 313 314 314 316 317 319 319 319 319 319 321 319 320 322 319 317 318 317 319 320 319 318 316 317 319 317 320 318 320 320 318 319 322
309 308 310 310 308 304 307 310 308 308 313 312 312 314 314 315 318 318 319 318 319 319 318 319 322 318 317 318 320 320 322 320 319 318 316 317 317 317 316 317 319 320 321 320 318
309 308 310 310 308 306 308 309 308 309 310 312 312 314 314 315 316 317 318 318 318 319 319 320 319 318 317 318 320 320 320 322 321 319 317 319 319 319 317 319 320 320 320 321 320
308 308 310 309 306 308 309 308 309 309 308 310 311 313 313 314 315 316 318 318 318 320 319 319 317 318 317 318 318 319 318 321 322 321 322 318 324 320 320 319 317 320 321 321 322
308 308 309 308 307 308 308 309 309 308 306 307 310 310 312 313 313 315 318 317 317 318 319 320 318 319 319 318 317 318 318 320 321 321 322 322 323 320 319 319 319 320 321 322 322
307 307 309 308 307 308 308 308 309 307 304 309 310 311 312 312 313 315 317 316 316 315 315 317 318 317 317 316 316 316 318 318 317 321 326 322 323 321 321 320 319 319 321 323 323
306 307 309 307 307 307 308 308 310 310 301 311 311 312 311 312 312 312 315 316 316 317 317 316 316 317 317 318 316 319 320 322 324 324 321 317 320 321 319 317 319 320 321 322 322
307 307 308 306 306 306 309 308 310 299 299 309 311 311 311 310 311 311 313 315 314 313 315 314 315 316 317 318 318 318 320 318 322 321 318 317 323 321 317 320 320 321 320 321 321
306 308 306 306 305 308 308 309 308 301 306 310 310 312 310 310 310 311 311 312 312 313 316 318 318 314 315 317 317 317 320 317 314 300 313 316 315 313 313 315 318 318 319 320 321
308 307 306 306 306 309 308 308 304 304 306 308 310 310 311 311 311 310 311 311 311 311 311 313 316 315 315 316 316 318 317 321 319 317 316 314 314 318 315 316 317 314 316 319 318
307 306 306 305 306 308 308 307 302 305 306 305 304 307 309 311 311 310 311 309 310 310 312 312 314 313 316 318 318 318 319 319 318 314 317 315 315 310 315 315 316 313 315 315 315
305 304 306 306 305 304 305 302 304 304 303 303 303 305 306 308 311 311 310 309 310 311 314 313 313 313 315 314 313 317 318 319 320 319 314 314 316 311 306 307 311 310 311 311 311
305 305 307 305 303 304 302 302 303 303 302 302 303 304 305 306 306 307 311 309 309 312 313 314 315 315 317 315 313 316 317 318 318 312 317 320 317 308 305 306 308 308 309 310 311
304 304 302 304 301 302 302 301 301 303 302 302 302 303 303 305 304 305 307 306 308 310 312 314 312 315 316 317 316 318 318 317 318 318 318 316 316 313 307 306 306 309 310 312 314
303 299 301 301 297 301 301 301 301 299 302 303 302 303 302 299 303 304 305 305 305 308 311 314 315 313 313 313 316 317 318 319 319 318 318 317 316 315 309 305 307 311 311 311 314
300 300 299 297 300 301 302 299 301 300 302 302 301 302 302 300 302 302 304 304 306 309 309 311 314 314 314 313 314 315 317 318 318 318 319 317 314 314 314 310 308 309 310 311 314
300 301 302 299 294 298 296 299 300 301 301 302 301 301 301 302 302 302 302 304 305 307 310 307 309 313 314 312 314 316 315 317 316 317 318 318 317 310 311 309 309 310 310 310 311

GFSSW_850_thetae_117.txt.gz
Theta_e
314 311 307 309 315 315 318 323 320 318 318 324 325 327 327 326 325 324 324 325 324 323 323 324 322 322 326 328 322 321 318 322 324 319 317 320 321 324 326 327 327 330 327 329 330
312 314 310 308 309 314 315 317 322 321 319 318 323 325 325 325 323 323 324 323 323 322 322 322 321 324 328 326 324 321 318 322 324 316 316 316 321 325 326 327 328 328 328 329 329
312 312 313 311 307 302 314 315 317 322 321 317 320 323 323 324 323 323 323 323 322 321 322 322 322 325 326 324 323 322 321 321 321 318 318 316 320 321 324 324 326 326 325 328 329
312 311 312 313 308 305 304 314 315 317 322 321 317 321 322 322 322 319 321 323 321 321 321 323 324 325 324 321 321 325 323 324 323 323 323 317 316 319 324 323 324 325 324 325 328
311 312 311 313 311 306 302 305 314 315 318 321 318 320 321 321 321 320 319 320 320 320 321 322 323 325 323 321 321 319 319 323 324 325 322 320 316 317 317 319 320 324 325 324 325
311 312 311 313 312 310 305 301 305 313 316 320 320 320 320 320 320 319 319 319 320 320 321 321 322 323 323 324 320 322 320 323 325 324 318 316 316 319 318 318 319 322 325 325 325
312 311 311 311 313 310 305 304 301 308 314 318 321 319 320 319 319 319 320 320 320 321 321 320 322 323 322 320 324 324 324 322 324 323 319 316 316 317 319 319 319 323 326 327 326
312 311 311 311 312 310 305 304 303 302 313 316 319 319 320 319 318 319 319 320 320 321 321 320 321 323 322 321 320 322 321 323 321 323 321 316 321 317 319 319 321 323 326 328 327
314 312 311 311 311 312 308 305 304 301 312 315 318 319 318 318 318 318 319 319 321 321 321 320 320 320 319 317 317 318 320 320 321 319 318 317 318 319 320 319 320 321 322 324 327
310 312 311 311 311 312 310 306 307 304 314 316 316 317 315 318 318 318 319 319 319 321 321 320 320 318 314 316 321 318 320 319 320 319 315 317 316 315 318 319 320 321 322 323 324
308 309 311 310 310 311 308 310 309 308 314 312 314 314 314 316 318 318 318 319 319 319 320 319 320 322 319 316 318 316 318 319 318 318 316 316 318 319 319 318 319 320 320 320 322
306 311 310 310 310 311 307 309 307 307 311 312 312 314 313 316 317 318 318 318 318 319 318 319 321 318 316 317 319 319 320 320 317 317 315 316 316 315 315 317 318 319 320 321 321
305 308 310 309 310 310 306 308 306 308 309 311 312 313 315 316 316 317 318 317 317 318 318 319 318 318 317 317 319 319 319 320 321 317 316 317 318 318 316 317 317 318 319 320 321
306 305 310 309 311 308 308 308 308 308 305 311 311 313 313 315 315 316 318 317 316 317 316 317 316 318 317 318 318 320 316 319 320 321 321 317 321 317 318 317 316 319 319 320 320
306 305 310 310 311 307 307 308 308 307 307 308 311 312 313 313 313 315 318 317 316 316 316 316 316 318 318 317 316 319 317 318 319 320 320 321 322 318 317 318 317 318 319 320 322
305 305 311 310 309 307 307 308 308 307 303 310 310 311 312 312 312 315 317 316 316 315 315 316 317 316 316 315 316 315 317 317 315 318 321 319 320 319 319 318 317 318 320 321 321
305 306 310 310 308 307 308 308 309 309 300 311 311 311 311 313 311 312 315 315 316 317 317 317 317 316 317 317 315 318 318 322 323 322 318 312 318 319 316 315 315 317 319 320 321
305 307 310 309 308 306 308 308 310 297 301 307 310 310 311 311 311 311 314 315 313 312 312 317 316 315 316 318 318 318 319 319 320 320 317 314 319 317 315 318 318 319 320 321 321
304 310 309 308 307 307 308 308 304 301 302 310 310 311 311 310 311 310 310 312 312 311 312 312 314 313 313 315 316 317 320 316 317 300 311 314 315 314 312 312 316 318 319 319 320
303 308 308 308 306 308 306 306 300 302 306 309 311 310 310 311 309 310 310 309 310 312 311 312 317 314 312 315 315 317 316 320 319 320 316 314 313 317 315 314 314 316 316 318 319
307 306 308 308 306 307 306 301 301 305 305 308 306 308 309 311 308 310 309 308 308 309 311 312 313 309 316 316 317 318 318 319 318 315 316 315 315 309 314 313 314 314 315 316 317
305 304 308 306 307 305 305 301 305 303 303 303 303 304 307 309 308 309 307 307 309 310 311 311 312 309 311 314 314 315 317 318 321 317 315 313 317 309 309 307 308 311 313 315 315
306 308 308 306 306 306 304 303 303 303 303 303 304 305 305 307 308 309 307 308 308 309 310 311 312 313 309 311 312 317 317 317 317 314 317 315 318 309 304 304 310 309 311 311 310
307 307 306 305 303 304 304 302 302 302 301 301 302 302 303 305 303 308 310 307 309 309 310 311 309 309 310 307 310 314 315 316 318 320 318 317 317 314 311 307 306 308 309 309 310
306 302 303 303 300 303 301 301 302 301 301 302 302 303 302 305 302 305 306 305 305 309 310 312 313 311 311 310 312 314 313 314 316 317 318 319 316 316 313 310 311 310 308 309 312
302 302 302 299 302 302 303 302 302 301 301 301 302 302 301 302 303 303 304 304 304 306 309 310 310 311 312 312 311 313 313 315 315 315 314 316 317 315 314 314 311 309 308 309 312
304 303 302 302 302 302 297 301 301 300 301 300 301 302 302 300 301 304 303 303 304 306 307 307 308 308 307 310 309 313 312 312 314 315 317 318 317 314 312 310 311 312 311 310 311

GFSSW_850_thetae_120.txt.gz
Theta_e
312 313 314 308 307 314 316 322 323 317 317 323 324 326 328 327 327 326 325 326 326 325 324 324 324 322 324 329 322 320 317 320 322 318 319 319 320 323 325 329 329 331 327 328 331
311 312 312 313 307 307 314 316 323 322 318 318 323 324 326 326 326 326 326 326 325 324 323 323 323 322 325 326 324 320 317 319 322 316 315 316 320 324 325 327 327 328 328 328 331
310 312 312 313 312 306 306 315 319 323 321 317 319 324 323 324 324 324 325 325 324 323 322 322 321 323 325 324 323 321 321 319 322 317 317 316 320 320 324 324 326 326 326 327 331
313 310 313 312 314 310 304 310 315 318 322 319 317 320 323 324 324 322 323 324 323 322 321 322 322 324 322 322 322 324 323 322 323 322 323 317 315 318 323 324 325 326 325 325 328
314 310 312 312 314 312 309 302 313 315 317 321 320 318 321 323 322 319 320 324 322 321 321 321 322 324 323 320 320 320 320 321 323 324 324 320 316 315 318 322 321 321 324 324 324
314 313 311 312 312 314 312 308 303 314 315 319 321 318 322 320 320 320 319 321 323 321 321 322 322 322 322 322 319 322 319 321 323 323 322 317 316 318 319 317 318 320 324 324 324
313 314 312 311 312 312 313 308 302 311 314 316 321 320 321 319 318 320 319 319 321 321 321 321 322 322 322 321 323 323 323 320 321 323 320 315 317 314 319 318 318 319 323 324 324
311 314 314 311 312 311 313 310 304 302 313 314 319 320 319 318 318 319 319 320 320 321 321 321 322 323 322 321 320 322 321 322 320 322 323 316 323 318 320 318 319 319 322 323 324
311 313 313 312 311 312 313 311 305 301 306 314 319 320 318 316 318 319 319 320 320 322 321 320 321 320 319 316 317 317 318 320 320 319 320 315 317 318 320 318 319 321 321 321 321
305 311 314 313 311 311 313 310 306 305 305 313 317 317 316 318 316 318 319 319 321 321 320 320 320 317 314 316 319 319 320 318 319 317 316 318 317 315 318 317 317 319 320 322 322
303 307 310 313 311 311 312 310 308 308 306 312 314 314 315 316 317 317 318 319 319 321 321 319 320 322 318 316 316 315 317 318 317 316 316 316 316 317 318 318 317 318 319 320 320
303 305 310 314 312 311 312 309 307 306 308 312 312 315 314 315 317 318 318 318 318 316 318 319 322 317 316 316 318 318 319 318 316 316 316 316 317 316 315 316 318 319 320 320 320
302 303 306 309 312 312 312 310 307 305 307 310 311 314 313 315 316 317 317 317 316 317 318 320 318 317 316 317 318 318 321 320 320 316 315 315 316 316 315 316 319 318 319 319 320
303 302 304 307 313 312 312 310 307 305 304 310 310 311 312 315 315 317 317 317 315 318 318 318 316 316 316 317 317 320 316 318 319 320 319 315 320 316 315 315 314 317 318 319 320
302 302 303 304 308 313 311 308 308 306 307 306 309 311 312 313 313 316 317 317 316 315 316 316 316 318 317 317 315 318 315 317 318 319 318 318 320 316 315 315 314 316 318 319 319
301 301 303 305 310 311 310 308 308 306 307 310 309 311 311 311 312 315 317 316 315 315 314 313 316 315 315 314 315 314 316 316 315 317 321 317 317 316 314 314 315 316 318 319 319
301 301 304 304 311 311 309 308 309 309 300 310 311 311 310 311 312 314 315 316 317 318 317 316 316 315 315 316 314 316 316 315 322 322 318 312 315 316 313 313 314 315 318 318 318
302 301 303 306 309 309 308 308 309 297 303 307 310 311 312 311 311 311 313 316 315 312 315 317 318 316 314 317 318 318 316 316 320 318 315 311 315 313 312 314 315 315 316 317 318
301 302 304 305 308 307 308 309 305 303 302 310 310 311 311 311 312 312 312 313 314 312 313 314 315 312 314 315 316 317 319 315 317 298 311 312 312 312 311 312 314 316 318 318 319
302 302 305 304 308 307 307 307 300 301 306 309 310 309 310 311 310 309 311 310 311 313 310 311 313 312 311 314 314 317 316 317 318 318 315 313 312 315 312 313 312 312 316 317 316
302 303 303 307 308 306 308 303 301 304 308 307 308 310 307 311 309 309 310 307 308 310 312 311 310 311 313 315 315 317 317 317 317 317 316 312 313 308 312 312 312 311 315 316 315
302 303 306 307 307 304 306 302 304 302 304 302 303 304 307 309 310 308 307 306 308 310 312 311 310 308 309 314 313 313 315 315 318 315 317 316 318 309 307 307 310 310 313 311 312
301 307 307 307 307 306 303 304 303 303 303 303 304 305 305 307 309 307 306 307 308 309 310 309 308 311 309 306 311 314 315 316 315 314 316 317 316 307 308 307 310 307 311 311 310
304 306 307 306 305 304 305 306 303 302 300 301 302 304 304 306 305 308 307 306 307 309 310 311 307 306 308 305 307 312 313 314 314 315 317 316 315 313 311 309 311 313 312 312 310
304 303 301 304 305 304 302 304 304 303 300 302 303 306 306 307 306 307 307 305 305 309 310 310 311 309 308 309 310 311 310 312 315 313 313 311 313 315 313 312 312 314 315 315 314
302 303 303 304 304 303 304 304 305 301 300 300 304 303 302 305 304 306 305 305 307 306 309 310 311 312 311 309 310 311 311 310 311 312 313 312 312 311 313 313 313 314 314 314 313
304 304 305 304 303 304 297 302 302 300 299 301 302 301 301 301 303 303 305 304 302 305 307 308 309 305 297 307 308 305 309 310 310 311 314 315 314 312 312 311 311 313 314 315 315

GFSSW_850_thetae_123.txt.gz
Theta_e
310 310 311 313 312 305 314 317 322 319 316 320 323 325 326 327 327 326 326 327 326 326 325 325 324 324 323 324 323 319 318 320 321 319 319 318 320 322 324 328 330 330 328 327 328
314 311 310 312 313 311 306 315 320 322 318 315 319 323 323 324 325 326 326 326 326 326 325 324 324 323 322 325 324 319 318 319 320 316 315 315 319 323 325 327 329 327 329 327 328
316 314 311 310 313 314 309 307 315 319 322 319 315 320 322 323 324 324 324 326 326 325 323 323 322 322 323 324 323 321 321 319 321 317 320 315 319 321 324 324 326 327 327 327 329
315 315 313 310 311 313 313 306 310 315 320 321 319 317 320 321 323 321 321 324 326 324 322 322 321 323 321 321 322 324 323 322 322 322 324 320 316 317 323 325 325 326 326 326 327
313 314 315 312 310 312 313 311 304 313 318 321 321 317 319 321 321 320 320 322 324 322 322 322 322 322 320 320 320 321 321 321 322 323 323 323 317 315 317 321 322 321 325 325 325
312 313 314 315 310 312 312 313 309 306 315 320 321 319 318 320 320 322 319 322 324 322 321 321 321 322 321 321 319 320 320 320 321 322 323 318 318 317 319 319 319 319 321 324 324
309 311 313 314 312 312 312 314 311 304 313 315 319 320 319 319 318 319 320 319 323 322 321 321 321 321 321 320 322 322 323 320 321 321 320 315 318 314 321 319 319 319 318 323 324
307 309 311 313 314 311 313 313 313 310 306 314 316 319 319 318 319 319 319 319 319 322 321 321 322 322 321 319 319 321 319 322 318 321 322 318 326 320 321 318 319 319 319 320 322
306 307 311 313 314 312 312 312 313 310 304 313 315 317 318 316 317 318 319 319 319 321 321 321 322 321 319 316 318 316 317 319 319 318 320 315 321 318 320 319 318 319 319 319 320
305 305 307 311 314 314 312 312 313 310 304 310 313 317 316 317 318 318 318 318 319 320 320 320 320 316 314 317 321 318 320 317 318 315 316 319 316 316 319 317 317 319 319 319 320
302 304 305 310 313 314 312 312 314 310 306 309 313 314 315 316 316 316 317 319 319 320 320 319 321 321 319 315 315 314 317 318 316 315 316 315 315 316 316 317 317 318 320 320 319
302 303 304 305 311 314 312 313 310 308 308 308 312 314 315 316 316 316 317 319 319 320 318 318 321 316 314 316 318 316 317 318 315 315 316 316 317 317 315 316 317 318 319 319 320
302 302 303 304 307 308 312 313 310 307 306 307 311 314 314 315 316 316 316 314 317 318 319 320 318 316 316 316 318 317 321 319 319 316 315 313 315 315 314 315 318 318 318 317 318
302 302 302 303 304 308 313 312 311 306 307 309 311 311 313 313 315 316 317 317 316 316 318 319 317 317 317 317 317 321 316 318 319 320 321 315 320 316 314 314 313 316 317 318 318
301 302 303 303 305 307 312 311 308 306 308 307 309 310 312 312 313 316 317 316 316 316 316 316 315 318 319 318 316 319 315 317 317 319 318 317 321 317 314 314 313 314 317 317 317
301 303 303 303 303 307 311 312 307 307 308 309 309 310 310 311 312 314 316 315 315 315 314 314 314 315 314 314 314 313 315 315 315 317 322 317 317 315 313 312 313 314 316 316 317
300 301 302 302 304 304 309 308 308 309 304 309 309 310 310 311 312 313 315 316 317 315 317 315 315 314 314 315 314 315 317 319 321 320 319 311 315 317 312 311 313 314 317 317 318
299 300 303 302 303 305 307 307 310 305 304 307 308 310 310 311 311 311 313 315 314 312 315 317 318 315 314 314 315 317 316 316 315 316 314 310 316 313 311 313 313 313 314 315 315
299 300 301 302 303 305 308 309 307 306 306 309 309 309 311 311 312 311 312 313 314 311 315 314 313 311 314 315 314 316 316 313 315 298 312 313 311 310 309 310 311 314 315 316 317
300 300 302 301 303 304 305 308 303 302 306 308 308 308 310 311 311 311 313 312 312 312 310 310 313 312 312 312 312 315 314 319 317 317 315 312 311 314 312 312 311 311 313 315 314
301 302 302 301 302 306 307 304 302 306 307 307 307 307 307 310 309 310 310 306 311 312 311 311 309 313 312 313 313 313 316 316 316 317 316 312 313 307 311 310 309 309 312 311 312
302 302 303 304 303 301 306 304 305 305 304 303 304 304 307 308 308 309 308 306 308 312 313 311 310 310 313 311 310 312 313 316 319 316 317 317 316 309 308 307 308 308 310 310 312
301 302 302 304 304 306 302 305 303 304 303 304 304 305 306 308 310 307 306 306 309 311 311 310 311 309 308 305 309 314 314 314 314 313 315 315 313 304 306 308 310 311 312 312 312
301 304 304 303 301 304 306 306 303 301 301 301 303 306 307 307 304 305 307 306 307 309 310 310 307 306 308 304 306 310 311 313 315 316 314 313 313 310 310 312 313 314 313 314 314
302 303 302 305 303 306 306 306 305 302 301 303 305 307 307 306 306 306 306 305 306 309 309 307 306 307 308 307 309 309 309 310 314 313 311 311 308 308 309 310 311 311 312 312 312
301 301 302 302 303 306 307 305 305 300 301 301 305 305 304 306 306 308 306 307 308 307 308 309 309 309 308 309 309 309 308 308 310 311 311 311 311 308 310 311 311 312 312 311 311
303 304 305 304 304 306 305 305 302 300 301 303 303 304 304 302 305 305 306 306 305 306 306 310 308 309 309 306 308 305 307 307 307 308 310 310 310 308 309 310 311 311 311 311 311